<?xml version="1.0" encoding="UTF-8" standalone="no" ?>
<gpx xmlns="http://www.topografix.com/GPX/1/1" xmlns:xsi="http://www.w3.org/2001/XMLSchema-instance" xsi:schemaLocation="http://www.topografix.com/GPX/1/1 http://www.topografix.com/GPX/1/1/gpx.xsd" version="1.1" creator="VisuGPX - https://www.visugpx.com">
  <metadata>
    <name>baou_telegraphe</name>
    <desc><![CDATA[boucle au départ des 4 chemins des routes (parking facile). c'est assez long et physique mais la boucle est composée de 3 boucles pour pouvoir choisir de s’arrêter quand on veut. quelques poussages en montée sur la descente du télégraphe ... quelques pieds à terre en descente à cause de la pente raide et glissante. attention par temps très sec, ça glisse beaucoup.]]></desc>
  </metadata>
  <trk>
    <name><![CDATA[baou_telegraphe]]></name>
    <trkseg>
      <trkpt lat="43.14721" lon="5.90177">
        <ele>56.6</ele>
        <time>2022-04-08T06:40:14Z</time>
      </trkpt>
      <trkpt lat="43.1474" lon="5.90206">
        <ele>56.8</ele>
        <time>2022-04-08T06:40:24Z</time>
      </trkpt>
      <trkpt lat="43.14752" lon="5.90238">
        <ele>60</ele>
        <time>2022-04-08T06:40:32Z</time>
      </trkpt>
      <trkpt lat="43.14774" lon="5.90241">
        <ele>61</ele>
        <time>2022-04-08T06:40:40Z</time>
      </trkpt>
      <trkpt lat="43.1479" lon="5.90245">
        <ele>62.2</ele>
        <time>2022-04-08T06:40:46Z</time>
      </trkpt>
      <trkpt lat="43.14808" lon="5.90248">
        <ele>63.4</ele>
        <time>2022-04-08T06:40:53Z</time>
      </trkpt>
      <trkpt lat="43.14826" lon="5.90251">
        <ele>64.2</ele>
        <time>2022-04-08T06:41:00Z</time>
      </trkpt>
      <trkpt lat="43.14853" lon="5.90255">
        <ele>65.4</ele>
        <time>2022-04-08T06:41:10Z</time>
      </trkpt>
      <trkpt lat="43.14876" lon="5.90259">
        <ele>66.4</ele>
        <time>2022-04-08T06:41:19Z</time>
      </trkpt>
      <trkpt lat="43.14892" lon="5.90262">
        <ele>67.6</ele>
        <time>2022-04-08T06:41:25Z</time>
      </trkpt>
      <trkpt lat="43.14905" lon="5.90265">
        <ele>68.6</ele>
        <time>2022-04-08T06:41:30Z</time>
      </trkpt>
      <trkpt lat="43.14919" lon="5.90267">
        <ele>69.6</ele>
        <time>2022-04-08T06:41:36Z</time>
      </trkpt>
      <trkpt lat="43.14931" lon="5.9027">
        <ele>71</ele>
        <time>2022-04-08T06:41:41Z</time>
      </trkpt>
      <trkpt lat="43.14947" lon="5.90273">
        <ele>72</ele>
        <time>2022-04-08T06:41:47Z</time>
      </trkpt>
      <trkpt lat="43.14965" lon="5.90277">
        <ele>73.2</ele>
        <time>2022-04-08T06:41:54Z</time>
      </trkpt>
      <trkpt lat="43.14977" lon="5.90277">
        <ele>74.2</ele>
        <time>2022-04-08T06:41:59Z</time>
      </trkpt>
      <trkpt lat="43.14989" lon="5.90279">
        <ele>75.2</ele>
        <time>2022-04-08T06:42:04Z</time>
      </trkpt>
      <trkpt lat="43.15004" lon="5.90281">
        <ele>76.4</ele>
        <time>2022-04-08T06:42:10Z</time>
      </trkpt>
      <trkpt lat="43.15016" lon="5.90283">
        <ele>77.6</ele>
        <time>2022-04-08T06:42:15Z</time>
      </trkpt>
      <trkpt lat="43.15034" lon="5.90288">
        <ele>78.8</ele>
        <time>2022-04-08T06:42:23Z</time>
      </trkpt>
      <trkpt lat="43.15048" lon="5.90292">
        <ele>79.8</ele>
        <time>2022-04-08T06:42:29Z</time>
      </trkpt>
      <trkpt lat="43.15056" lon="5.90294">
        <ele>81</ele>
        <time>2022-04-08T06:42:33Z</time>
      </trkpt>
      <trkpt lat="43.15069" lon="5.90298">
        <ele>82</ele>
        <time>2022-04-08T06:42:39Z</time>
      </trkpt>
      <trkpt lat="43.15081" lon="5.90302">
        <ele>83.2</ele>
        <time>2022-04-08T06:42:45Z</time>
      </trkpt>
      <trkpt lat="43.1509" lon="5.90305">
        <ele>84.4</ele>
        <time>2022-04-08T06:42:49Z</time>
      </trkpt>
      <trkpt lat="43.15098" lon="5.90306">
        <ele>85.4</ele>
        <time>2022-04-08T06:42:53Z</time>
      </trkpt>
      <trkpt lat="43.15112" lon="5.9031">
        <ele>86.6</ele>
        <time>2022-04-08T06:43:00Z</time>
      </trkpt>
      <trkpt lat="43.15125" lon="5.90312">
        <ele>87.6</ele>
        <time>2022-04-08T06:43:06Z</time>
      </trkpt>
      <trkpt lat="43.15137" lon="5.90315">
        <ele>88.6</ele>
        <time>2022-04-08T06:43:12Z</time>
      </trkpt>
      <trkpt lat="43.15152" lon="5.90319">
        <ele>89.8</ele>
        <time>2022-04-08T06:43:19Z</time>
      </trkpt>
      <trkpt lat="43.15162" lon="5.90321">
        <ele>90.8</ele>
        <time>2022-04-08T06:43:24Z</time>
      </trkpt>
      <trkpt lat="43.15176" lon="5.90326">
        <ele>91.8</ele>
        <time>2022-04-08T06:43:30Z</time>
      </trkpt>
      <trkpt lat="43.15194" lon="5.90337">
        <ele>93</ele>
        <time>2022-04-08T06:43:38Z</time>
      </trkpt>
      <trkpt lat="43.15211" lon="5.90348">
        <ele>94</ele>
        <time>2022-04-08T06:43:45Z</time>
      </trkpt>
      <trkpt lat="43.15227" lon="5.90359">
        <ele>95.2</ele>
        <time>2022-04-08T06:43:52Z</time>
      </trkpt>
      <trkpt lat="43.15241" lon="5.90368">
        <ele>96.2</ele>
        <time>2022-04-08T06:43:58Z</time>
      </trkpt>
      <trkpt lat="43.15248" lon="5.90373">
        <ele>97.4</ele>
        <time>2022-04-08T06:44:01Z</time>
      </trkpt>
      <trkpt lat="43.15255" lon="5.90378">
        <ele>98.6</ele>
        <time>2022-04-08T06:44:04Z</time>
      </trkpt>
      <trkpt lat="43.15296" lon="5.90405">
        <ele>99.8</ele>
        <time>2022-04-08T06:44:21Z</time>
      </trkpt>
      <trkpt lat="43.15311" lon="5.90407">
        <ele>100.8</ele>
        <time>2022-04-08T06:44:27Z</time>
      </trkpt>
      <trkpt lat="43.1532" lon="5.90408">
        <ele>102.2</ele>
        <time>2022-04-08T06:44:31Z</time>
      </trkpt>
      <trkpt lat="43.15341" lon="5.90412">
        <ele>103.4</ele>
        <time>2022-04-08T06:44:41Z</time>
      </trkpt>
      <trkpt lat="43.15347" lon="5.90414">
        <ele>104.4</ele>
        <time>2022-04-08T06:44:45Z</time>
      </trkpt>
      <trkpt lat="43.15356" lon="5.90425">
        <ele>105.4</ele>
        <time>2022-04-08T06:44:51Z</time>
      </trkpt>
      <trkpt lat="43.15364" lon="5.90453">
        <ele>106.6</ele>
        <time>2022-04-08T06:45:00Z</time>
      </trkpt>
      <trkpt lat="43.1537" lon="5.90482">
        <ele>107.8</ele>
        <time>2022-04-08T06:45:09Z</time>
      </trkpt>
      <trkpt lat="43.15372" lon="5.90495">
        <ele>108.8</ele>
        <time>2022-04-08T06:45:13Z</time>
      </trkpt>
      <trkpt lat="43.15373" lon="5.9051">
        <ele>110</ele>
        <time>2022-04-08T06:45:18Z</time>
      </trkpt>
      <trkpt lat="43.15375" lon="5.90529">
        <ele>111</ele>
        <time>2022-04-08T06:45:24Z</time>
      </trkpt>
      <trkpt lat="43.15374" lon="5.90543">
        <ele>112</ele>
        <time>2022-04-08T06:45:28Z</time>
      </trkpt>
      <trkpt lat="43.15373" lon="5.90557">
        <ele>113.2</ele>
        <time>2022-04-08T06:45:32Z</time>
      </trkpt>
      <trkpt lat="43.1537" lon="5.9059">
        <ele>114.6</ele>
        <time>2022-04-08T06:45:41Z</time>
      </trkpt>
      <trkpt lat="43.15376" lon="5.90616">
        <ele>114.8</ele>
        <time>2022-04-08T06:45:50Z</time>
      </trkpt>
      <trkpt lat="43.15387" lon="5.90616">
        <ele>115</ele>
        <time>2022-04-08T06:45:54Z</time>
      </trkpt>
      <trkpt lat="43.15396" lon="5.90606">
        <ele>115.6</ele>
        <time>2022-04-08T06:45:59Z</time>
      </trkpt>
      <trkpt lat="43.154" lon="5.90589">
        <ele>116.6</ele>
        <time>2022-04-08T06:46:04Z</time>
      </trkpt>
      <trkpt lat="43.15401" lon="5.90578">
        <ele>117.6</ele>
        <time>2022-04-08T06:46:07Z</time>
      </trkpt>
      <trkpt lat="43.15404" lon="5.90557">
        <ele>118.8</ele>
        <time>2022-04-08T06:46:13Z</time>
      </trkpt>
      <trkpt lat="43.15409" lon="5.90539">
        <ele>120</ele>
        <time>2022-04-08T06:46:19Z</time>
      </trkpt>
      <trkpt lat="43.15415" lon="5.90524">
        <ele>121</ele>
        <time>2022-04-08T06:46:25Z</time>
      </trkpt>
      <trkpt lat="43.15422" lon="5.9051">
        <ele>122</ele>
        <time>2022-04-08T06:46:31Z</time>
      </trkpt>
      <trkpt lat="43.15428" lon="5.90501">
        <ele>123.2</ele>
        <time>2022-04-08T06:46:36Z</time>
      </trkpt>
      <trkpt lat="43.15434" lon="5.90493">
        <ele>124.2</ele>
        <time>2022-04-08T06:46:40Z</time>
      </trkpt>
      <trkpt lat="43.15441" lon="5.90485">
        <ele>125.2</ele>
        <time>2022-04-08T06:46:44Z</time>
      </trkpt>
      <trkpt lat="43.15448" lon="5.90478">
        <ele>126.8</ele>
        <time>2022-04-08T06:46:48Z</time>
      </trkpt>
      <trkpt lat="43.15456" lon="5.90473">
        <ele>127.8</ele>
        <time>2022-04-08T06:46:52Z</time>
      </trkpt>
      <trkpt lat="43.15463" lon="5.90469">
        <ele>129</ele>
        <time>2022-04-08T06:46:56Z</time>
      </trkpt>
      <trkpt lat="43.15476" lon="5.90465">
        <ele>130</ele>
        <time>2022-04-08T06:47:02Z</time>
      </trkpt>
      <trkpt lat="43.15489" lon="5.90463">
        <ele>131</ele>
        <time>2022-04-08T06:47:08Z</time>
      </trkpt>
      <trkpt lat="43.15505" lon="5.90468">
        <ele>132</ele>
        <time>2022-04-08T06:47:16Z</time>
      </trkpt>
      <trkpt lat="43.15515" lon="5.90475">
        <ele>133.2</ele>
        <time>2022-04-08T06:47:22Z</time>
      </trkpt>
      <trkpt lat="43.15557" lon="5.90494">
        <ele>134.2</ele>
        <time>2022-04-08T06:47:46Z</time>
      </trkpt>
      <trkpt lat="43.15563" lon="5.90496">
        <ele>135.4</ele>
        <time>2022-04-08T06:47:49Z</time>
      </trkpt>
      <trkpt lat="43.15586" lon="5.905">
        <ele>136.6</ele>
        <time>2022-04-08T06:48:00Z</time>
      </trkpt>
      <trkpt lat="43.15594" lon="5.90498">
        <ele>137.6</ele>
        <time>2022-04-08T06:48:04Z</time>
      </trkpt>
      <trkpt lat="43.15599" lon="5.90495">
        <ele>138.6</ele>
        <time>2022-04-08T06:48:07Z</time>
      </trkpt>
      <trkpt lat="43.15604" lon="5.90491">
        <ele>140</ele>
        <time>2022-04-08T06:48:10Z</time>
      </trkpt>
      <trkpt lat="43.15605" lon="5.90487">
        <ele>141</ele>
        <time>2022-04-08T06:48:12Z</time>
      </trkpt>
      <trkpt lat="43.15607" lon="5.90481">
        <ele>142.4</ele>
        <time>2022-04-08T06:48:15Z</time>
      </trkpt>
      <trkpt lat="43.15608" lon="5.90474">
        <ele>143.4</ele>
        <time>2022-04-08T06:48:18Z</time>
      </trkpt>
      <trkpt lat="43.15609" lon="5.90465">
        <ele>144.6</ele>
        <time>2022-04-08T06:48:21Z</time>
      </trkpt>
      <trkpt lat="43.1561" lon="5.90455">
        <ele>145.8</ele>
        <time>2022-04-08T06:48:25Z</time>
      </trkpt>
      <trkpt lat="43.15611" lon="5.90441">
        <ele>147</ele>
        <time>2022-04-08T06:48:30Z</time>
      </trkpt>
      <trkpt lat="43.15611" lon="5.90436">
        <ele>147.6</ele>
        <time>2022-04-08T06:48:32Z</time>
      </trkpt>
      <trkpt lat="43.15612" lon="5.90428">
        <ele>148</ele>
        <time>2022-04-08T06:48:35Z</time>
      </trkpt>
      <trkpt lat="43.15612" lon="5.90413">
        <ele>149.2</ele>
        <time>2022-04-08T06:48:41Z</time>
      </trkpt>
      <trkpt lat="43.15615" lon="5.90392">
        <ele>150.4</ele>
        <time>2022-04-08T06:48:49Z</time>
      </trkpt>
      <trkpt lat="43.15617" lon="5.90376">
        <ele>151.6</ele>
        <time>2022-04-08T06:48:55Z</time>
      </trkpt>
      <trkpt lat="43.15619" lon="5.90367">
        <ele>152.6</ele>
        <time>2022-04-08T06:48:59Z</time>
      </trkpt>
      <trkpt lat="43.15621" lon="5.90355">
        <ele>153.6</ele>
        <time>2022-04-08T06:49:04Z</time>
      </trkpt>
      <trkpt lat="43.15624" lon="5.90348">
        <ele>154.8</ele>
        <time>2022-04-08T06:49:07Z</time>
      </trkpt>
      <trkpt lat="43.15627" lon="5.90336">
        <ele>155.8</ele>
        <time>2022-04-08T06:49:12Z</time>
      </trkpt>
      <trkpt lat="43.15634" lon="5.90312">
        <ele>157</ele>
        <time>2022-04-08T06:49:22Z</time>
      </trkpt>
      <trkpt lat="43.1564" lon="5.90297">
        <ele>158</ele>
        <time>2022-04-08T06:49:30Z</time>
      </trkpt>
      <trkpt lat="43.15645" lon="5.90285">
        <ele>159</ele>
        <time>2022-04-08T06:49:36Z</time>
      </trkpt>
      <trkpt lat="43.15649" lon="5.90277">
        <ele>160</ele>
        <time>2022-04-08T06:49:40Z</time>
      </trkpt>
      <trkpt lat="43.15652" lon="5.90263">
        <ele>161.2</ele>
        <time>2022-04-08T06:49:46Z</time>
      </trkpt>
      <trkpt lat="43.15656" lon="5.90249">
        <ele>162.4</ele>
        <time>2022-04-08T06:49:53Z</time>
      </trkpt>
      <trkpt lat="43.15657" lon="5.90238">
        <ele>163.4</ele>
        <time>2022-04-08T06:49:58Z</time>
      </trkpt>
      <trkpt lat="43.15657" lon="5.90226">
        <ele>164.6</ele>
        <time>2022-04-08T06:50:03Z</time>
      </trkpt>
      <trkpt lat="43.15656" lon="5.90216">
        <ele>165.6</ele>
        <time>2022-04-08T06:50:07Z</time>
      </trkpt>
      <trkpt lat="43.15652" lon="5.90201">
        <ele>167</ele>
        <time>2022-04-08T06:50:13Z</time>
      </trkpt>
      <trkpt lat="43.15648" lon="5.90184">
        <ele>168</ele>
        <time>2022-04-08T06:50:19Z</time>
      </trkpt>
      <trkpt lat="43.15643" lon="5.9017">
        <ele>169.2</ele>
        <time>2022-04-08T06:50:25Z</time>
      </trkpt>
      <trkpt lat="43.1564" lon="5.90155">
        <ele>170.4</ele>
        <time>2022-04-08T06:50:31Z</time>
      </trkpt>
      <trkpt lat="43.15638" lon="5.90146">
        <ele>171.4</ele>
        <time>2022-04-08T06:50:35Z</time>
      </trkpt>
      <trkpt lat="43.15638" lon="5.90135">
        <ele>172.6</ele>
        <time>2022-04-08T06:50:39Z</time>
      </trkpt>
      <trkpt lat="43.15636" lon="5.90123">
        <ele>173.8</ele>
        <time>2022-04-08T06:50:44Z</time>
      </trkpt>
      <trkpt lat="43.15636" lon="5.90112">
        <ele>175</ele>
        <time>2022-04-08T06:50:48Z</time>
      </trkpt>
      <trkpt lat="43.15635" lon="5.90099">
        <ele>176.2</ele>
        <time>2022-04-08T06:50:53Z</time>
      </trkpt>
      <trkpt lat="43.15636" lon="5.90079">
        <ele>177.2</ele>
        <time>2022-04-08T06:51:01Z</time>
      </trkpt>
      <trkpt lat="43.15635" lon="5.90066">
        <ele>178.2</ele>
        <time>2022-04-08T06:51:07Z</time>
      </trkpt>
      <trkpt lat="43.15635" lon="5.90051">
        <ele>179.4</ele>
        <time>2022-04-08T06:51:13Z</time>
      </trkpt>
      <trkpt lat="43.15635" lon="5.90041">
        <ele>180.4</ele>
        <time>2022-04-08T06:51:17Z</time>
      </trkpt>
      <trkpt lat="43.15637" lon="5.90028">
        <ele>181.4</ele>
        <time>2022-04-08T06:51:22Z</time>
      </trkpt>
      <trkpt lat="43.15638" lon="5.90013">
        <ele>182.6</ele>
        <time>2022-04-08T06:51:28Z</time>
      </trkpt>
      <trkpt lat="43.15641" lon="5.89998">
        <ele>183.6</ele>
        <time>2022-04-08T06:51:34Z</time>
      </trkpt>
      <trkpt lat="43.15644" lon="5.89985">
        <ele>184.8</ele>
        <time>2022-04-08T06:51:40Z</time>
      </trkpt>
      <trkpt lat="43.15647" lon="5.89976">
        <ele>186</ele>
        <time>2022-04-08T06:51:44Z</time>
      </trkpt>
      <trkpt lat="43.1565" lon="5.89967">
        <ele>187</ele>
        <time>2022-04-08T06:51:48Z</time>
      </trkpt>
      <trkpt lat="43.15656" lon="5.89954">
        <ele>188</ele>
        <time>2022-04-08T06:51:54Z</time>
      </trkpt>
      <trkpt lat="43.1566" lon="5.89942">
        <ele>189.2</ele>
        <time>2022-04-08T06:51:59Z</time>
      </trkpt>
      <trkpt lat="43.15664" lon="5.89932">
        <ele>190.2</ele>
        <time>2022-04-08T06:52:03Z</time>
      </trkpt>
      <trkpt lat="43.15666" lon="5.89913">
        <ele>191.4</ele>
        <time>2022-04-08T06:52:10Z</time>
      </trkpt>
      <trkpt lat="43.15664" lon="5.89892">
        <ele>192.4</ele>
        <time>2022-04-08T06:52:18Z</time>
      </trkpt>
      <trkpt lat="43.1566" lon="5.89872">
        <ele>193.4</ele>
        <time>2022-04-08T06:52:25Z</time>
      </trkpt>
      <trkpt lat="43.15656" lon="5.89858">
        <ele>194</ele>
        <time>2022-04-08T06:52:29Z</time>
      </trkpt>
      <trkpt lat="43.15648" lon="5.89836">
        <ele>194.4</ele>
        <time>2022-04-08T06:52:35Z</time>
      </trkpt>
      <trkpt lat="43.15642" lon="5.89824">
        <ele>194.6</ele>
        <time>2022-04-08T06:52:39Z</time>
      </trkpt>
      <trkpt lat="43.15615" lon="5.89801">
        <ele>195.6</ele>
        <time>2022-04-08T06:52:51Z</time>
      </trkpt>
      <trkpt lat="43.15601" lon="5.89788">
        <ele>196.8</ele>
        <time>2022-04-08T06:52:59Z</time>
      </trkpt>
      <trkpt lat="43.15592" lon="5.89776">
        <ele>197.6</ele>
        <time>2022-04-08T06:53:05Z</time>
      </trkpt>
      <trkpt lat="43.15586" lon="5.89765">
        <ele>198.8</ele>
        <time>2022-04-08T06:53:10Z</time>
      </trkpt>
      <trkpt lat="43.15582" lon="5.89752">
        <ele>199.8</ele>
        <time>2022-04-08T06:53:15Z</time>
      </trkpt>
      <trkpt lat="43.1558" lon="5.8974">
        <ele>200.8</ele>
        <time>2022-04-08T06:53:19Z</time>
      </trkpt>
      <trkpt lat="43.15581" lon="5.89727">
        <ele>202</ele>
        <time>2022-04-08T06:53:24Z</time>
      </trkpt>
      <trkpt lat="43.15585" lon="5.89707">
        <ele>203</ele>
        <time>2022-04-08T06:53:32Z</time>
      </trkpt>
      <trkpt lat="43.1559" lon="5.89693">
        <ele>204</ele>
        <time>2022-04-08T06:53:38Z</time>
      </trkpt>
      <trkpt lat="43.15593" lon="5.89687">
        <ele>205.2</ele>
        <time>2022-04-08T06:53:41Z</time>
      </trkpt>
      <trkpt lat="43.15599" lon="5.89671">
        <ele>206.2</ele>
        <time>2022-04-08T06:53:48Z</time>
      </trkpt>
      <trkpt lat="43.15604" lon="5.89657">
        <ele>207.2</ele>
        <time>2022-04-08T06:53:54Z</time>
      </trkpt>
      <trkpt lat="43.1561" lon="5.89644">
        <ele>208.4</ele>
        <time>2022-04-08T06:54:00Z</time>
      </trkpt>
      <trkpt lat="43.15615" lon="5.89632">
        <ele>209.6</ele>
        <time>2022-04-08T06:54:05Z</time>
      </trkpt>
      <trkpt lat="43.1562" lon="5.89618">
        <ele>210.8</ele>
        <time>2022-04-08T06:54:11Z</time>
      </trkpt>
      <trkpt lat="43.15626" lon="5.89607">
        <ele>212</ele>
        <time>2022-04-08T06:54:16Z</time>
      </trkpt>
      <trkpt lat="43.15634" lon="5.89592">
        <ele>213</ele>
        <time>2022-04-08T06:54:23Z</time>
      </trkpt>
      <trkpt lat="43.15642" lon="5.89578">
        <ele>214.2</ele>
        <time>2022-04-08T06:54:30Z</time>
      </trkpt>
      <trkpt lat="43.15646" lon="5.8957">
        <ele>215.4</ele>
        <time>2022-04-08T06:54:34Z</time>
      </trkpt>
      <trkpt lat="43.15653" lon="5.89557">
        <ele>216.6</ele>
        <time>2022-04-08T06:54:40Z</time>
      </trkpt>
      <trkpt lat="43.15663" lon="5.89546">
        <ele>217.6</ele>
        <time>2022-04-08T06:54:46Z</time>
      </trkpt>
      <trkpt lat="43.1567" lon="5.89537">
        <ele>218.6</ele>
        <time>2022-04-08T06:54:52Z</time>
      </trkpt>
      <trkpt lat="43.15679" lon="5.89527">
        <ele>219.6</ele>
        <time>2022-04-08T06:54:58Z</time>
      </trkpt>
      <trkpt lat="43.15687" lon="5.89516">
        <ele>220.8</ele>
        <time>2022-04-08T06:55:04Z</time>
      </trkpt>
      <trkpt lat="43.15693" lon="5.89509">
        <ele>221.8</ele>
        <time>2022-04-08T06:55:09Z</time>
      </trkpt>
      <trkpt lat="43.15694" lon="5.89507">
        <ele>222</ele>
        <time>2022-04-08T06:55:10Z</time>
      </trkpt>
      <trkpt lat="43.15699" lon="5.89498">
        <ele>223</ele>
        <time>2022-04-08T06:55:15Z</time>
      </trkpt>
      <trkpt lat="43.157" lon="5.89493">
        <ele>223.4</ele>
        <time>2022-04-08T06:55:17Z</time>
      </trkpt>
      <trkpt lat="43.15697" lon="5.89483">
        <ele>224.2</ele>
        <time>2022-04-08T06:55:21Z</time>
      </trkpt>
      <trkpt lat="43.15695" lon="5.89481">
        <ele>224.4</ele>
        <time>2022-04-08T06:55:22Z</time>
      </trkpt>
      <trkpt lat="43.1569" lon="5.89478">
        <ele>225.2</ele>
        <time>2022-04-08T06:55:25Z</time>
      </trkpt>
      <trkpt lat="43.1568" lon="5.89476">
        <ele>226.6</ele>
        <time>2022-04-08T06:55:31Z</time>
      </trkpt>
      <trkpt lat="43.15672" lon="5.89471">
        <ele>227.8</ele>
        <time>2022-04-08T06:55:36Z</time>
      </trkpt>
      <trkpt lat="43.15662" lon="5.89463">
        <ele>228.8</ele>
        <time>2022-04-08T06:55:42Z</time>
      </trkpt>
      <trkpt lat="43.15652" lon="5.89456">
        <ele>229.8</ele>
        <time>2022-04-08T06:55:48Z</time>
      </trkpt>
      <trkpt lat="43.15642" lon="5.89448">
        <ele>231</ele>
        <time>2022-04-08T06:55:54Z</time>
      </trkpt>
      <trkpt lat="43.15635" lon="5.89441">
        <ele>232</ele>
        <time>2022-04-08T06:55:59Z</time>
      </trkpt>
      <trkpt lat="43.15627" lon="5.89435">
        <ele>233.2</ele>
        <time>2022-04-08T06:56:04Z</time>
      </trkpt>
      <trkpt lat="43.15617" lon="5.89426">
        <ele>234.4</ele>
        <time>2022-04-08T06:56:10Z</time>
      </trkpt>
      <trkpt lat="43.15608" lon="5.89413">
        <ele>235.4</ele>
        <time>2022-04-08T06:56:17Z</time>
      </trkpt>
      <trkpt lat="43.15602" lon="5.89399">
        <ele>236.4</ele>
        <time>2022-04-08T06:56:23Z</time>
      </trkpt>
      <trkpt lat="43.156" lon="5.89385">
        <ele>237.4</ele>
        <time>2022-04-08T06:56:29Z</time>
      </trkpt>
      <trkpt lat="43.15601" lon="5.89373">
        <ele>238.6</ele>
        <time>2022-04-08T06:56:34Z</time>
      </trkpt>
      <trkpt lat="43.15601" lon="5.89358">
        <ele>239.6</ele>
        <time>2022-04-08T06:56:40Z</time>
      </trkpt>
      <trkpt lat="43.15604" lon="5.89343">
        <ele>240.6</ele>
        <time>2022-04-08T06:56:46Z</time>
      </trkpt>
      <trkpt lat="43.15607" lon="5.89333">
        <ele>241.6</ele>
        <time>2022-04-08T06:56:51Z</time>
      </trkpt>
      <trkpt lat="43.15611" lon="5.89323">
        <ele>242.6</ele>
        <time>2022-04-08T06:56:56Z</time>
      </trkpt>
      <trkpt lat="43.15614" lon="5.8931">
        <ele>243.6</ele>
        <time>2022-04-08T06:57:02Z</time>
      </trkpt>
      <trkpt lat="43.1562" lon="5.89297">
        <ele>244.8</ele>
        <time>2022-04-08T06:57:09Z</time>
      </trkpt>
      <trkpt lat="43.15626" lon="5.89284">
        <ele>245.8</ele>
        <time>2022-04-08T06:57:15Z</time>
      </trkpt>
      <trkpt lat="43.15631" lon="5.89272">
        <ele>247</ele>
        <time>2022-04-08T06:57:21Z</time>
      </trkpt>
      <trkpt lat="43.15636" lon="5.89264">
        <ele>247.8</ele>
        <time>2022-04-08T06:57:26Z</time>
      </trkpt>
      <trkpt lat="43.15638" lon="5.89263">
        <ele>248</ele>
        <time>2022-04-08T06:57:27Z</time>
      </trkpt>
      <trkpt lat="43.15643" lon="5.8925">
        <ele>249</ele>
        <time>2022-04-08T06:57:33Z</time>
      </trkpt>
      <trkpt lat="43.15646" lon="5.89241">
        <ele>250.2</ele>
        <time>2022-04-08T06:57:38Z</time>
      </trkpt>
      <trkpt lat="43.1565" lon="5.8923">
        <ele>251.2</ele>
        <time>2022-04-08T06:57:44Z</time>
      </trkpt>
      <trkpt lat="43.15653" lon="5.89221">
        <ele>251.8</ele>
        <time>2022-04-08T06:57:48Z</time>
      </trkpt>
      <trkpt lat="43.15657" lon="5.89215">
        <ele>252.4</ele>
        <time>2022-04-08T06:57:51Z</time>
      </trkpt>
      <trkpt lat="43.15661" lon="5.89205">
        <ele>253.4</ele>
        <time>2022-04-08T06:57:56Z</time>
      </trkpt>
      <trkpt lat="43.15665" lon="5.89196">
        <ele>254.6</ele>
        <time>2022-04-08T06:58:01Z</time>
      </trkpt>
      <trkpt lat="43.15669" lon="5.89186">
        <ele>255.8</ele>
        <time>2022-04-08T06:58:06Z</time>
      </trkpt>
      <trkpt lat="43.15674" lon="5.89179">
        <ele>256.4</ele>
        <time>2022-04-08T06:58:10Z</time>
      </trkpt>
      <trkpt lat="43.15677" lon="5.89173">
        <ele>257</ele>
        <time>2022-04-08T06:58:13Z</time>
      </trkpt>
      <trkpt lat="43.15683" lon="5.89163">
        <ele>258</ele>
        <time>2022-04-08T06:58:19Z</time>
      </trkpt>
      <trkpt lat="43.15684" lon="5.89161">
        <ele>258.2</ele>
        <time>2022-04-08T06:58:20Z</time>
      </trkpt>
      <trkpt lat="43.15689" lon="5.89151">
        <ele>259</ele>
        <time>2022-04-08T06:58:25Z</time>
      </trkpt>
      <trkpt lat="43.15692" lon="5.89147">
        <ele>259.2</ele>
        <time>2022-04-08T06:58:27Z</time>
      </trkpt>
      <trkpt lat="43.15699" lon="5.89133">
        <ele>260.4</ele>
        <time>2022-04-08T06:58:33Z</time>
      </trkpt>
      <trkpt lat="43.15701" lon="5.89113">
        <ele>261.6</ele>
        <time>2022-04-08T06:58:40Z</time>
      </trkpt>
      <trkpt lat="43.15679" lon="5.89092">
        <ele>262.6</ele>
        <time>2022-04-08T06:58:50Z</time>
      </trkpt>
      <trkpt lat="43.15653" lon="5.89079">
        <ele>263</ele>
        <time>2022-04-08T06:58:59Z</time>
      </trkpt>
      <trkpt lat="43.15635" lon="5.89077">
        <ele>263.4</ele>
        <time>2022-04-08T06:59:05Z</time>
      </trkpt>
      <trkpt lat="43.15609" lon="5.89072">
        <ele>264.4</ele>
        <time>2022-04-08T06:59:16Z</time>
      </trkpt>
      <trkpt lat="43.15599" lon="5.8907">
        <ele>265.4</ele>
        <time>2022-04-08T06:59:21Z</time>
      </trkpt>
      <trkpt lat="43.15591" lon="5.8907">
        <ele>266.4</ele>
        <time>2022-04-08T06:59:25Z</time>
      </trkpt>
      <trkpt lat="43.15581" lon="5.89069">
        <ele>267.6</ele>
        <time>2022-04-08T06:59:30Z</time>
      </trkpt>
      <trkpt lat="43.1557" lon="5.89067">
        <ele>268.6</ele>
        <time>2022-04-08T06:59:35Z</time>
      </trkpt>
      <trkpt lat="43.15559" lon="5.89064">
        <ele>269.6</ele>
        <time>2022-04-08T06:59:40Z</time>
      </trkpt>
      <trkpt lat="43.15546" lon="5.89058">
        <ele>270.8</ele>
        <time>2022-04-08T06:59:47Z</time>
      </trkpt>
      <trkpt lat="43.15542" lon="5.89047">
        <ele>271.8</ele>
        <time>2022-04-08T06:59:52Z</time>
      </trkpt>
      <trkpt lat="43.1554" lon="5.89035">
        <ele>273</ele>
        <time>2022-04-08T06:59:57Z</time>
      </trkpt>
      <trkpt lat="43.15542" lon="5.89025">
        <ele>274.4</ele>
        <time>2022-04-08T07:00:02Z</time>
      </trkpt>
      <trkpt lat="43.15544" lon="5.89013">
        <ele>275.4</ele>
        <time>2022-04-08T07:00:07Z</time>
      </trkpt>
      <trkpt lat="43.15546" lon="5.88996">
        <ele>276.4</ele>
        <time>2022-04-08T07:00:14Z</time>
      </trkpt>
      <trkpt lat="43.15546" lon="5.88981">
        <ele>277.6</ele>
        <time>2022-04-08T07:00:20Z</time>
      </trkpt>
      <trkpt lat="43.15546" lon="5.88963">
        <ele>278.6</ele>
        <time>2022-04-08T07:00:27Z</time>
      </trkpt>
      <trkpt lat="43.15544" lon="5.88941">
        <ele>279.8</ele>
        <time>2022-04-08T07:00:34Z</time>
      </trkpt>
      <trkpt lat="43.15539" lon="5.88921">
        <ele>280.8</ele>
        <time>2022-04-08T07:00:40Z</time>
      </trkpt>
      <trkpt lat="43.15528" lon="5.8889">
        <ele>282</ele>
        <time>2022-04-08T07:00:51Z</time>
      </trkpt>
      <trkpt lat="43.15516" lon="5.88866">
        <ele>283</ele>
        <time>2022-04-08T07:01:01Z</time>
      </trkpt>
      <trkpt lat="43.15507" lon="5.88851">
        <ele>284</ele>
        <time>2022-04-08T07:01:08Z</time>
      </trkpt>
      <trkpt lat="43.15501" lon="5.88844">
        <ele>285.2</ele>
        <time>2022-04-08T07:01:12Z</time>
      </trkpt>
      <trkpt lat="43.15493" lon="5.88836">
        <ele>286.4</ele>
        <time>2022-04-08T07:01:17Z</time>
      </trkpt>
      <trkpt lat="43.15485" lon="5.88828">
        <ele>287.4</ele>
        <time>2022-04-08T07:01:22Z</time>
      </trkpt>
      <trkpt lat="43.15475" lon="5.8882">
        <ele>288.4</ele>
        <time>2022-04-08T07:01:28Z</time>
      </trkpt>
      <trkpt lat="43.15467" lon="5.88809">
        <ele>289.6</ele>
        <time>2022-04-08T07:01:34Z</time>
      </trkpt>
      <trkpt lat="43.15456" lon="5.88797">
        <ele>290.6</ele>
        <time>2022-04-08T07:01:41Z</time>
      </trkpt>
      <trkpt lat="43.15451" lon="5.8879">
        <ele>291.8</ele>
        <time>2022-04-08T07:01:45Z</time>
      </trkpt>
      <trkpt lat="43.15444" lon="5.88777">
        <ele>293</ele>
        <time>2022-04-08T07:01:51Z</time>
      </trkpt>
      <trkpt lat="43.1544" lon="5.88768">
        <ele>294.2</ele>
        <time>2022-04-08T07:01:55Z</time>
      </trkpt>
      <trkpt lat="43.15437" lon="5.88754">
        <ele>295.4</ele>
        <time>2022-04-08T07:02:00Z</time>
      </trkpt>
      <trkpt lat="43.15439" lon="5.88741">
        <ele>296.6</ele>
        <time>2022-04-08T07:02:05Z</time>
      </trkpt>
      <trkpt lat="43.15451" lon="5.88735">
        <ele>297.8</ele>
        <time>2022-04-08T07:02:13Z</time>
      </trkpt>
      <trkpt lat="43.15454" lon="5.88734">
        <ele>297.4</ele>
        <time>2022-04-08T07:02:48Z</time>
      </trkpt>
      <trkpt lat="43.15481" lon="5.88724">
        <ele>297.2</ele>
        <time>2022-04-08T07:03:00Z</time>
      </trkpt>
      <trkpt lat="43.15508" lon="5.88714">
        <ele>298.6</ele>
        <time>2022-04-08T07:03:13Z</time>
      </trkpt>
      <trkpt lat="43.15512" lon="5.88713">
        <ele>298.8</ele>
        <time>2022-04-08T07:03:15Z</time>
      </trkpt>
      <trkpt lat="43.15522" lon="5.88709">
        <ele>299.4</ele>
        <time>2022-04-08T07:03:20Z</time>
      </trkpt>
      <trkpt lat="43.15529" lon="5.88707">
        <ele>299.8</ele>
        <time>2022-04-08T07:03:24Z</time>
      </trkpt>
      <trkpt lat="43.1554" lon="5.88702">
        <ele>300.8</ele>
        <time>2022-04-08T07:03:30Z</time>
      </trkpt>
      <trkpt lat="43.15549" lon="5.88699">
        <ele>301.6</ele>
        <time>2022-04-08T07:03:35Z</time>
      </trkpt>
      <trkpt lat="43.15553" lon="5.88697">
        <ele>302</ele>
        <time>2022-04-08T07:03:37Z</time>
      </trkpt>
      <trkpt lat="43.1556" lon="5.88693">
        <ele>303</ele>
        <time>2022-04-08T07:03:41Z</time>
      </trkpt>
      <trkpt lat="43.15569" lon="5.88688">
        <ele>304.2</ele>
        <time>2022-04-08T07:03:46Z</time>
      </trkpt>
      <trkpt lat="43.15578" lon="5.88679">
        <ele>305.2</ele>
        <time>2022-04-08T07:03:52Z</time>
      </trkpt>
      <trkpt lat="43.15587" lon="5.88669">
        <ele>306.6</ele>
        <time>2022-04-08T07:03:58Z</time>
      </trkpt>
      <trkpt lat="43.15593" lon="5.88663">
        <ele>307.6</ele>
        <time>2022-04-08T07:04:02Z</time>
      </trkpt>
      <trkpt lat="43.15602" lon="5.88656">
        <ele>308.6</ele>
        <time>2022-04-08T07:04:08Z</time>
      </trkpt>
      <trkpt lat="43.15618" lon="5.88646">
        <ele>309.6</ele>
        <time>2022-04-08T07:04:18Z</time>
      </trkpt>
      <trkpt lat="43.15628" lon="5.88643">
        <ele>310.8</ele>
        <time>2022-04-08T07:04:24Z</time>
      </trkpt>
      <trkpt lat="43.1564" lon="5.88639">
        <ele>311.8</ele>
        <time>2022-04-08T07:04:31Z</time>
      </trkpt>
      <trkpt lat="43.15648" lon="5.88635">
        <ele>312.8</ele>
        <time>2022-04-08T07:04:36Z</time>
      </trkpt>
      <trkpt lat="43.15657" lon="5.88633">
        <ele>314</ele>
        <time>2022-04-08T07:04:41Z</time>
      </trkpt>
      <trkpt lat="43.15668" lon="5.88629">
        <ele>315</ele>
        <time>2022-04-08T07:04:48Z</time>
      </trkpt>
      <trkpt lat="43.15678" lon="5.88627">
        <ele>316</ele>
        <time>2022-04-08T07:04:54Z</time>
      </trkpt>
      <trkpt lat="43.15694" lon="5.88627">
        <ele>317</ele>
        <time>2022-04-08T07:05:03Z</time>
      </trkpt>
      <trkpt lat="43.15703" lon="5.88629">
        <ele>318.2</ele>
        <time>2022-04-08T07:05:09Z</time>
      </trkpt>
      <trkpt lat="43.1571" lon="5.88631">
        <ele>319.2</ele>
        <time>2022-04-08T07:05:13Z</time>
      </trkpt>
      <trkpt lat="43.15721" lon="5.88636">
        <ele>320.6</ele>
        <time>2022-04-08T07:05:20Z</time>
      </trkpt>
      <trkpt lat="43.15731" lon="5.88642">
        <ele>321.6</ele>
        <time>2022-04-08T07:05:27Z</time>
      </trkpt>
      <trkpt lat="43.15745" lon="5.88652">
        <ele>322.6</ele>
        <time>2022-04-08T07:05:36Z</time>
      </trkpt>
      <trkpt lat="43.15755" lon="5.88659">
        <ele>323.8</ele>
        <time>2022-04-08T07:05:43Z</time>
      </trkpt>
      <trkpt lat="43.15766" lon="5.88665">
        <ele>325</ele>
        <time>2022-04-08T07:05:50Z</time>
      </trkpt>
      <trkpt lat="43.15774" lon="5.8867">
        <ele>326</ele>
        <time>2022-04-08T07:05:56Z</time>
      </trkpt>
      <trkpt lat="43.15784" lon="5.88675">
        <ele>327.2</ele>
        <time>2022-04-08T07:06:02Z</time>
      </trkpt>
      <trkpt lat="43.15791" lon="5.88678">
        <ele>328.4</ele>
        <time>2022-04-08T07:06:07Z</time>
      </trkpt>
      <trkpt lat="43.15792" lon="5.88679">
        <ele>328.4</ele>
        <time>2022-04-08T07:06:08Z</time>
      </trkpt>
      <trkpt lat="43.15798" lon="5.88684">
        <ele>329.4</ele>
        <time>2022-04-08T07:06:13Z</time>
      </trkpt>
      <trkpt lat="43.15806" lon="5.8869">
        <ele>330.6</ele>
        <time>2022-04-08T07:06:18Z</time>
      </trkpt>
      <trkpt lat="43.15816" lon="5.88698">
        <ele>331.6</ele>
        <time>2022-04-08T07:06:25Z</time>
      </trkpt>
      <trkpt lat="43.15825" lon="5.88705">
        <ele>332.8</ele>
        <time>2022-04-08T07:06:31Z</time>
      </trkpt>
      <trkpt lat="43.15836" lon="5.88715">
        <ele>334</ele>
        <time>2022-04-08T07:06:39Z</time>
      </trkpt>
      <trkpt lat="43.15851" lon="5.88721">
        <ele>335.2</ele>
        <time>2022-04-08T07:06:48Z</time>
      </trkpt>
      <trkpt lat="43.15864" lon="5.88724">
        <ele>336.4</ele>
        <time>2022-04-08T07:06:55Z</time>
      </trkpt>
      <trkpt lat="43.15877" lon="5.88724">
        <ele>337.6</ele>
        <time>2022-04-08T07:07:03Z</time>
      </trkpt>
      <trkpt lat="43.15886" lon="5.88724">
        <ele>338.8</ele>
        <time>2022-04-08T07:07:08Z</time>
      </trkpt>
      <trkpt lat="43.15897" lon="5.88726">
        <ele>339.8</ele>
        <time>2022-04-08T07:07:15Z</time>
      </trkpt>
      <trkpt lat="43.15908" lon="5.88728">
        <ele>340.8</ele>
        <time>2022-04-08T07:07:21Z</time>
      </trkpt>
      <trkpt lat="43.15917" lon="5.88729">
        <ele>341.8</ele>
        <time>2022-04-08T07:07:27Z</time>
      </trkpt>
      <trkpt lat="43.15927" lon="5.88735">
        <ele>343</ele>
        <time>2022-04-08T07:07:33Z</time>
      </trkpt>
      <trkpt lat="43.15938" lon="5.88736">
        <ele>344</ele>
        <time>2022-04-08T07:07:40Z</time>
      </trkpt>
      <trkpt lat="43.15947" lon="5.88735">
        <ele>345.2</ele>
        <time>2022-04-08T07:07:45Z</time>
      </trkpt>
      <trkpt lat="43.15959" lon="5.88733">
        <ele>346.2</ele>
        <time>2022-04-08T07:07:52Z</time>
      </trkpt>
      <trkpt lat="43.1597" lon="5.88734">
        <ele>347.2</ele>
        <time>2022-04-08T07:07:59Z</time>
      </trkpt>
      <trkpt lat="43.15982" lon="5.88732">
        <ele>348.4</ele>
        <time>2022-04-08T07:08:06Z</time>
      </trkpt>
      <trkpt lat="43.15994" lon="5.88726">
        <ele>349.8</ele>
        <time>2022-04-08T07:08:13Z</time>
      </trkpt>
      <trkpt lat="43.16007" lon="5.88719">
        <ele>350.8</ele>
        <time>2022-04-08T07:08:21Z</time>
      </trkpt>
      <trkpt lat="43.16023" lon="5.8871">
        <ele>352</ele>
        <time>2022-04-08T07:08:31Z</time>
      </trkpt>
      <trkpt lat="43.16028" lon="5.88691">
        <ele>353.2</ele>
        <time>2022-04-08T07:08:38Z</time>
      </trkpt>
      <trkpt lat="43.16028" lon="5.88669">
        <ele>353.8</ele>
        <time>2022-04-08T07:08:46Z</time>
      </trkpt>
      <trkpt lat="43.16028" lon="5.88667">
        <ele>354.2</ele>
        <time>2022-04-08T07:08:55Z</time>
      </trkpt>
      <trkpt lat="43.16028" lon="5.88666">
        <ele>354.2</ele>
        <time>2022-04-08T07:09:20Z</time>
      </trkpt>
      <trkpt lat="43.1602" lon="5.88644">
        <ele>355</ele>
        <time>2022-04-08T07:09:36Z</time>
      </trkpt>
      <trkpt lat="43.16017" lon="5.8864">
        <ele>354.2</ele>
        <time>2022-04-08T07:12:07Z</time>
      </trkpt>
      <trkpt lat="43.16004" lon="5.88633">
        <ele>354.2</ele>
        <time>2022-04-08T07:12:14Z</time>
      </trkpt>
      <trkpt lat="43.15994" lon="5.8862">
        <ele>355</ele>
        <time>2022-04-08T07:12:20Z</time>
      </trkpt>
      <trkpt lat="43.15989" lon="5.88606">
        <ele>355.8</ele>
        <time>2022-04-08T07:12:25Z</time>
      </trkpt>
      <trkpt lat="43.15986" lon="5.88597">
        <ele>356</ele>
        <time>2022-04-08T07:12:28Z</time>
      </trkpt>
      <trkpt lat="43.15979" lon="5.88585">
        <ele>356.6</ele>
        <time>2022-04-08T07:12:33Z</time>
      </trkpt>
      <trkpt lat="43.15971" lon="5.8858">
        <ele>357.2</ele>
        <time>2022-04-08T07:12:37Z</time>
      </trkpt>
      <trkpt lat="43.1596" lon="5.88577">
        <ele>358.6</ele>
        <time>2022-04-08T07:12:42Z</time>
      </trkpt>
      <trkpt lat="43.15949" lon="5.88574">
        <ele>359.4</ele>
        <time>2022-04-08T07:12:48Z</time>
      </trkpt>
      <trkpt lat="43.15943" lon="5.8857">
        <ele>359.6</ele>
        <time>2022-04-08T07:12:51Z</time>
      </trkpt>
      <trkpt lat="43.15934" lon="5.8856">
        <ele>360.4</ele>
        <time>2022-04-08T07:12:57Z</time>
      </trkpt>
      <trkpt lat="43.15932" lon="5.88557">
        <ele>360.8</ele>
        <time>2022-04-08T07:12:59Z</time>
      </trkpt>
      <trkpt lat="43.15927" lon="5.88551">
        <ele>361.6</ele>
        <time>2022-04-08T07:13:03Z</time>
      </trkpt>
      <trkpt lat="43.15926" lon="5.88546">
        <ele>361.8</ele>
        <time>2022-04-08T07:13:05Z</time>
      </trkpt>
      <trkpt lat="43.15923" lon="5.88532">
        <ele>362.8</ele>
        <time>2022-04-08T07:13:11Z</time>
      </trkpt>
      <trkpt lat="43.1592" lon="5.88523">
        <ele>364</ele>
        <time>2022-04-08T07:13:15Z</time>
      </trkpt>
      <trkpt lat="43.1592" lon="5.88506">
        <ele>365.4</ele>
        <time>2022-04-08T07:13:22Z</time>
      </trkpt>
      <trkpt lat="43.15923" lon="5.88494">
        <ele>366.6</ele>
        <time>2022-04-08T07:13:27Z</time>
      </trkpt>
      <trkpt lat="43.15927" lon="5.88483">
        <ele>367.6</ele>
        <time>2022-04-08T07:13:32Z</time>
      </trkpt>
      <trkpt lat="43.15932" lon="5.8847">
        <ele>368.8</ele>
        <time>2022-04-08T07:13:38Z</time>
      </trkpt>
      <trkpt lat="43.15936" lon="5.88448">
        <ele>369.8</ele>
        <time>2022-04-08T07:13:47Z</time>
      </trkpt>
      <trkpt lat="43.15934" lon="5.88438">
        <ele>370.8</ele>
        <time>2022-04-08T07:13:51Z</time>
      </trkpt>
      <trkpt lat="43.15925" lon="5.88424">
        <ele>372</ele>
        <time>2022-04-08T07:13:58Z</time>
      </trkpt>
      <trkpt lat="43.15916" lon="5.88415">
        <ele>373</ele>
        <time>2022-04-08T07:14:04Z</time>
      </trkpt>
      <trkpt lat="43.15911" lon="5.88404">
        <ele>374.2</ele>
        <time>2022-04-08T07:14:09Z</time>
      </trkpt>
      <trkpt lat="43.15911" lon="5.88387">
        <ele>375.2</ele>
        <time>2022-04-08T07:14:16Z</time>
      </trkpt>
      <trkpt lat="43.15917" lon="5.88372">
        <ele>376.4</ele>
        <time>2022-04-08T07:14:23Z</time>
      </trkpt>
      <trkpt lat="43.15923" lon="5.88357">
        <ele>377.4</ele>
        <time>2022-04-08T07:14:30Z</time>
      </trkpt>
      <trkpt lat="43.15928" lon="5.88342">
        <ele>378.4</ele>
        <time>2022-04-08T07:14:37Z</time>
      </trkpt>
      <trkpt lat="43.15935" lon="5.88323">
        <ele>379.4</ele>
        <time>2022-04-08T07:14:46Z</time>
      </trkpt>
      <trkpt lat="43.15936" lon="5.88313">
        <ele>380.6</ele>
        <time>2022-04-08T07:14:50Z</time>
      </trkpt>
      <trkpt lat="43.15937" lon="5.88304">
        <ele>381.6</ele>
        <time>2022-04-08T07:14:54Z</time>
      </trkpt>
      <trkpt lat="43.15936" lon="5.88292">
        <ele>382.8</ele>
        <time>2022-04-08T07:14:59Z</time>
      </trkpt>
      <trkpt lat="43.15936" lon="5.88285">
        <ele>384.2</ele>
        <time>2022-04-08T07:15:02Z</time>
      </trkpt>
      <trkpt lat="43.15932" lon="5.88265">
        <ele>385.4</ele>
        <time>2022-04-08T07:15:11Z</time>
      </trkpt>
      <trkpt lat="43.15921" lon="5.88245">
        <ele>386.4</ele>
        <time>2022-04-08T07:15:21Z</time>
      </trkpt>
      <trkpt lat="43.15918" lon="5.8823">
        <ele>387.6</ele>
        <time>2022-04-08T07:15:27Z</time>
      </trkpt>
      <trkpt lat="43.1592" lon="5.8822">
        <ele>388.8</ele>
        <time>2022-04-08T07:15:31Z</time>
      </trkpt>
      <trkpt lat="43.15924" lon="5.88206">
        <ele>390</ele>
        <time>2022-04-08T07:15:37Z</time>
      </trkpt>
      <trkpt lat="43.15927" lon="5.88194">
        <ele>391.2</ele>
        <time>2022-04-08T07:15:42Z</time>
      </trkpt>
      <trkpt lat="43.15928" lon="5.88178">
        <ele>392.4</ele>
        <time>2022-04-08T07:15:48Z</time>
      </trkpt>
      <trkpt lat="43.15926" lon="5.88166">
        <ele>393.4</ele>
        <time>2022-04-08T07:15:54Z</time>
      </trkpt>
      <trkpt lat="43.1592" lon="5.88149">
        <ele>394.6</ele>
        <time>2022-04-08T07:16:01Z</time>
      </trkpt>
      <trkpt lat="43.15911" lon="5.88127">
        <ele>395.6</ele>
        <time>2022-04-08T07:16:11Z</time>
      </trkpt>
      <trkpt lat="43.15915" lon="5.88106">
        <ele>396.8</ele>
        <time>2022-04-08T07:16:19Z</time>
      </trkpt>
      <trkpt lat="43.15917" lon="5.88094">
        <ele>397.8</ele>
        <time>2022-04-08T07:16:24Z</time>
      </trkpt>
      <trkpt lat="43.15918" lon="5.88082">
        <ele>399</ele>
        <time>2022-04-08T07:16:29Z</time>
      </trkpt>
      <trkpt lat="43.15916" lon="5.88069">
        <ele>400.4</ele>
        <time>2022-04-08T07:16:34Z</time>
      </trkpt>
      <trkpt lat="43.15915" lon="5.88062">
        <ele>401.4</ele>
        <time>2022-04-08T07:16:37Z</time>
      </trkpt>
      <trkpt lat="43.15911" lon="5.8805">
        <ele>402.4</ele>
        <time>2022-04-08T07:16:42Z</time>
      </trkpt>
      <trkpt lat="43.15902" lon="5.8803">
        <ele>403.6</ele>
        <time>2022-04-08T07:16:51Z</time>
      </trkpt>
      <trkpt lat="43.15896" lon="5.88018">
        <ele>404.6</ele>
        <time>2022-04-08T07:16:56Z</time>
      </trkpt>
      <trkpt lat="43.1588" lon="5.88006">
        <ele>406</ele>
        <time>2022-04-08T07:17:04Z</time>
      </trkpt>
      <trkpt lat="43.15879" lon="5.88005">
        <ele>407</ele>
        <time>2022-04-08T07:17:14Z</time>
      </trkpt>
      <trkpt lat="43.15878" lon="5.88005">
        <ele>407.4</ele>
        <time>2022-04-08T07:17:19Z</time>
      </trkpt>
      <trkpt lat="43.15867" lon="5.88004">
        <ele>408.2</ele>
        <time>2022-04-08T07:17:24Z</time>
      </trkpt>
      <trkpt lat="43.15844" lon="5.88002">
        <ele>409.2</ele>
        <time>2022-04-08T07:17:33Z</time>
      </trkpt>
      <trkpt lat="43.15842" lon="5.88002">
        <ele>409.4</ele>
        <time>2022-04-08T07:17:34Z</time>
      </trkpt>
      <trkpt lat="43.15828" lon="5.88002">
        <ele>409.6</ele>
        <time>2022-04-08T07:17:40Z</time>
      </trkpt>
      <trkpt lat="43.15808" lon="5.87999">
        <ele>410.2</ele>
        <time>2022-04-08T07:17:49Z</time>
      </trkpt>
      <trkpt lat="43.15802" lon="5.87996">
        <ele>410.4</ele>
        <time>2022-04-08T07:17:52Z</time>
      </trkpt>
      <trkpt lat="43.1578" lon="5.8799">
        <ele>411.4</ele>
        <time>2022-04-08T07:18:04Z</time>
      </trkpt>
      <trkpt lat="43.1577" lon="5.87989">
        <ele>412.6</ele>
        <time>2022-04-08T07:18:09Z</time>
      </trkpt>
      <trkpt lat="43.15761" lon="5.87988">
        <ele>413.6</ele>
        <time>2022-04-08T07:18:14Z</time>
      </trkpt>
      <trkpt lat="43.15748" lon="5.87989">
        <ele>414.8</ele>
        <time>2022-04-08T07:18:20Z</time>
      </trkpt>
      <trkpt lat="43.15739" lon="5.87991">
        <ele>416</ele>
        <time>2022-04-08T07:18:25Z</time>
      </trkpt>
      <trkpt lat="43.15729" lon="5.87993">
        <ele>417.2</ele>
        <time>2022-04-08T07:18:30Z</time>
      </trkpt>
      <trkpt lat="43.1572" lon="5.87995">
        <ele>418.6</ele>
        <time>2022-04-08T07:18:35Z</time>
      </trkpt>
      <trkpt lat="43.15703" lon="5.87999">
        <ele>419.6</ele>
        <time>2022-04-08T07:18:44Z</time>
      </trkpt>
      <trkpt lat="43.15688" lon="5.88004">
        <ele>420.8</ele>
        <time>2022-04-08T07:18:52Z</time>
      </trkpt>
      <trkpt lat="43.15677" lon="5.88006">
        <ele>422.2</ele>
        <time>2022-04-08T07:18:58Z</time>
      </trkpt>
      <trkpt lat="43.15662" lon="5.88007">
        <ele>423.2</ele>
        <time>2022-04-08T07:19:06Z</time>
      </trkpt>
      <trkpt lat="43.1565" lon="5.88002">
        <ele>424.2</ele>
        <time>2022-04-08T07:19:13Z</time>
      </trkpt>
      <trkpt lat="43.15641" lon="5.87997">
        <ele>425.6</ele>
        <time>2022-04-08T07:19:18Z</time>
      </trkpt>
      <trkpt lat="43.15636" lon="5.87983">
        <ele>426.6</ele>
        <time>2022-04-08T07:19:24Z</time>
      </trkpt>
      <trkpt lat="43.15634" lon="5.87959">
        <ele>427.8</ele>
        <time>2022-04-08T07:19:35Z</time>
      </trkpt>
      <trkpt lat="43.15637" lon="5.87948">
        <ele>428.8</ele>
        <time>2022-04-08T07:19:40Z</time>
      </trkpt>
      <trkpt lat="43.15642" lon="5.8793">
        <ele>429.8</ele>
        <time>2022-04-08T07:19:48Z</time>
      </trkpt>
      <trkpt lat="43.15647" lon="5.87916">
        <ele>431</ele>
        <time>2022-04-08T07:19:55Z</time>
      </trkpt>
      <trkpt lat="43.15659" lon="5.879">
        <ele>432</ele>
        <time>2022-04-08T07:20:05Z</time>
      </trkpt>
      <trkpt lat="43.15665" lon="5.87896">
        <ele>433.2</ele>
        <time>2022-04-08T07:20:09Z</time>
      </trkpt>
      <trkpt lat="43.1567" lon="5.87892">
        <ele>434.2</ele>
        <time>2022-04-08T07:20:13Z</time>
      </trkpt>
      <trkpt lat="43.15677" lon="5.87886">
        <ele>435.4</ele>
        <time>2022-04-08T07:20:18Z</time>
      </trkpt>
      <trkpt lat="43.15689" lon="5.87875">
        <ele>436.4</ele>
        <time>2022-04-08T07:20:27Z</time>
      </trkpt>
      <trkpt lat="43.15696" lon="5.87868">
        <ele>437.6</ele>
        <time>2022-04-08T07:20:32Z</time>
      </trkpt>
      <trkpt lat="43.15704" lon="5.87863">
        <ele>438.6</ele>
        <time>2022-04-08T07:20:37Z</time>
      </trkpt>
      <trkpt lat="43.15715" lon="5.87858">
        <ele>439.6</ele>
        <time>2022-04-08T07:20:44Z</time>
      </trkpt>
      <trkpt lat="43.15725" lon="5.87853">
        <ele>440.6</ele>
        <time>2022-04-08T07:20:50Z</time>
      </trkpt>
      <trkpt lat="43.15735" lon="5.87849">
        <ele>441.8</ele>
        <time>2022-04-08T07:20:56Z</time>
      </trkpt>
      <trkpt lat="43.15748" lon="5.87846">
        <ele>442.8</ele>
        <time>2022-04-08T07:21:04Z</time>
      </trkpt>
      <trkpt lat="43.15759" lon="5.87847">
        <ele>444</ele>
        <time>2022-04-08T07:21:11Z</time>
      </trkpt>
      <trkpt lat="43.1577" lon="5.8785">
        <ele>445.2</ele>
        <time>2022-04-08T07:21:17Z</time>
      </trkpt>
      <trkpt lat="43.15779" lon="5.87849">
        <ele>446.2</ele>
        <time>2022-04-08T07:21:22Z</time>
      </trkpt>
      <trkpt lat="43.15788" lon="5.8785">
        <ele>447.2</ele>
        <time>2022-04-08T07:21:27Z</time>
      </trkpt>
      <trkpt lat="43.15806" lon="5.87852">
        <ele>448.2</ele>
        <time>2022-04-08T07:21:37Z</time>
      </trkpt>
      <trkpt lat="43.15816" lon="5.87856">
        <ele>449.4</ele>
        <time>2022-04-08T07:21:43Z</time>
      </trkpt>
      <trkpt lat="43.15826" lon="5.87861">
        <ele>450.6</ele>
        <time>2022-04-08T07:21:49Z</time>
      </trkpt>
      <trkpt lat="43.15839" lon="5.87869">
        <ele>451.8</ele>
        <time>2022-04-08T07:21:57Z</time>
      </trkpt>
      <trkpt lat="43.15847" lon="5.87873">
        <ele>452.6</ele>
        <time>2022-04-08T07:22:02Z</time>
      </trkpt>
      <trkpt lat="43.15854" lon="5.87876">
        <ele>454</ele>
        <time>2022-04-08T07:22:06Z</time>
      </trkpt>
      <trkpt lat="43.15866" lon="5.87878">
        <ele>455.2</ele>
        <time>2022-04-08T07:22:13Z</time>
      </trkpt>
      <trkpt lat="43.1588" lon="5.87882">
        <ele>456.2</ele>
        <time>2022-04-08T07:22:21Z</time>
      </trkpt>
      <trkpt lat="43.15889" lon="5.87883">
        <ele>457.2</ele>
        <time>2022-04-08T07:22:26Z</time>
      </trkpt>
      <trkpt lat="43.15901" lon="5.87883">
        <ele>458.4</ele>
        <time>2022-04-08T07:22:33Z</time>
      </trkpt>
      <trkpt lat="43.15914" lon="5.87879">
        <ele>459.4</ele>
        <time>2022-04-08T07:22:41Z</time>
      </trkpt>
      <trkpt lat="43.15924" lon="5.87878">
        <ele>460.6</ele>
        <time>2022-04-08T07:22:47Z</time>
      </trkpt>
      <trkpt lat="43.1593" lon="5.87874">
        <ele>461.6</ele>
        <time>2022-04-08T07:22:53Z</time>
      </trkpt>
      <trkpt lat="43.15934" lon="5.8787">
        <ele>462.4</ele>
        <time>2022-04-08T07:23:00Z</time>
      </trkpt>
      <trkpt lat="43.15936" lon="5.87869">
        <ele>462.6</ele>
        <time>2022-04-08T07:23:03Z</time>
      </trkpt>
      <trkpt lat="43.15942" lon="5.87865">
        <ele>463.4</ele>
        <time>2022-04-08T07:23:15Z</time>
      </trkpt>
      <trkpt lat="43.15942" lon="5.87864">
        <ele>463.2</ele>
        <time>2022-04-08T07:23:30Z</time>
      </trkpt>
      <trkpt lat="43.15962" lon="5.87846">
        <ele>464.6</ele>
        <time>2022-04-08T07:23:45Z</time>
      </trkpt>
      <trkpt lat="43.15965" lon="5.87836">
        <ele>465.8</ele>
        <time>2022-04-08T07:23:49Z</time>
      </trkpt>
      <trkpt lat="43.15967" lon="5.87825">
        <ele>466.8</ele>
        <time>2022-04-08T07:23:53Z</time>
      </trkpt>
      <trkpt lat="43.1597" lon="5.87813">
        <ele>467.6</ele>
        <time>2022-04-08T07:23:58Z</time>
      </trkpt>
      <trkpt lat="43.15973" lon="5.87801">
        <ele>468.8</ele>
        <time>2022-04-08T07:24:03Z</time>
      </trkpt>
      <trkpt lat="43.15977" lon="5.87789">
        <ele>469.8</ele>
        <time>2022-04-08T07:24:08Z</time>
      </trkpt>
      <trkpt lat="43.15983" lon="5.87765">
        <ele>471</ele>
        <time>2022-04-08T07:24:18Z</time>
      </trkpt>
      <trkpt lat="43.15985" lon="5.87756">
        <ele>472.2</ele>
        <time>2022-04-08T07:24:22Z</time>
      </trkpt>
      <trkpt lat="43.15989" lon="5.87742">
        <ele>473.2</ele>
        <time>2022-04-08T07:24:28Z</time>
      </trkpt>
      <trkpt lat="43.15992" lon="5.8772">
        <ele>474</ele>
        <time>2022-04-08T07:24:37Z</time>
      </trkpt>
      <trkpt lat="43.15995" lon="5.87705">
        <ele>475.2</ele>
        <time>2022-04-08T07:24:43Z</time>
      </trkpt>
      <trkpt lat="43.15996" lon="5.87697">
        <ele>476.4</ele>
        <time>2022-04-08T07:24:46Z</time>
      </trkpt>
      <trkpt lat="43.15998" lon="5.8769">
        <ele>477.8</ele>
        <time>2022-04-08T07:24:49Z</time>
      </trkpt>
      <trkpt lat="43.16004" lon="5.87677">
        <ele>478.8</ele>
        <time>2022-04-08T07:24:55Z</time>
      </trkpt>
      <trkpt lat="43.16009" lon="5.87661">
        <ele>480</ele>
        <time>2022-04-08T07:25:02Z</time>
      </trkpt>
      <trkpt lat="43.16013" lon="5.87645">
        <ele>481.2</ele>
        <time>2022-04-08T07:25:09Z</time>
      </trkpt>
      <trkpt lat="43.16025" lon="5.87628">
        <ele>482.4</ele>
        <time>2022-04-08T07:25:18Z</time>
      </trkpt>
      <trkpt lat="43.16034" lon="5.87621">
        <ele>483.4</ele>
        <time>2022-04-08T07:25:23Z</time>
      </trkpt>
      <trkpt lat="43.16041" lon="5.8761">
        <ele>484.8</ele>
        <time>2022-04-08T07:25:29Z</time>
      </trkpt>
      <trkpt lat="43.16045" lon="5.87604">
        <ele>486</ele>
        <time>2022-04-08T07:25:32Z</time>
      </trkpt>
      <trkpt lat="43.16055" lon="5.87586">
        <ele>487</ele>
        <time>2022-04-08T07:25:40Z</time>
      </trkpt>
      <trkpt lat="43.16064" lon="5.87576">
        <ele>487.8</ele>
        <time>2022-04-08T07:25:46Z</time>
      </trkpt>
      <trkpt lat="43.16082" lon="5.87557">
        <ele>488.6</ele>
        <time>2022-04-08T07:25:56Z</time>
      </trkpt>
      <trkpt lat="43.16099" lon="5.87536">
        <ele>488.6</ele>
        <time>2022-04-08T07:26:01Z</time>
      </trkpt>
      <trkpt lat="43.16103" lon="5.875">
        <ele>486.6</ele>
        <time>2022-04-08T07:26:06Z</time>
      </trkpt>
      <trkpt lat="43.16101" lon="5.87487">
        <ele>485.4</ele>
        <time>2022-04-08T07:26:08Z</time>
      </trkpt>
      <trkpt lat="43.16097" lon="5.87483">
        <ele>484.2</ele>
        <time>2022-04-08T07:26:10Z</time>
      </trkpt>
      <trkpt lat="43.16094" lon="5.87482">
        <ele>483.8</ele>
        <time>2022-04-08T07:26:11Z</time>
      </trkpt>
      <trkpt lat="43.16063" lon="5.87456">
        <ele>485.2</ele>
        <time>2022-04-08T07:26:30Z</time>
      </trkpt>
      <trkpt lat="43.16054" lon="5.87436">
        <ele>486.4</ele>
        <time>2022-04-08T07:26:36Z</time>
      </trkpt>
      <trkpt lat="43.16038" lon="5.8739">
        <ele>486.8</ele>
        <time>2022-04-08T07:26:50Z</time>
      </trkpt>
      <trkpt lat="43.16035" lon="5.87387">
        <ele>487.2</ele>
        <time>2022-04-08T07:26:55Z</time>
      </trkpt>
      <trkpt lat="43.16035" lon="5.87385">
        <ele>487.4</ele>
        <time>2022-04-08T07:27:02Z</time>
      </trkpt>
      <trkpt lat="43.16035" lon="5.87384">
        <ele>487</ele>
        <time>2022-04-08T07:29:14Z</time>
      </trkpt>
      <trkpt lat="43.16036" lon="5.87384">
        <ele>487</ele>
        <time>2022-04-08T07:29:18Z</time>
      </trkpt>
      <trkpt lat="43.1604" lon="5.87383">
        <ele>487</ele>
        <time>2022-04-08T07:29:25Z</time>
      </trkpt>
      <trkpt lat="43.16049" lon="5.87368">
        <ele>487</ele>
        <time>2022-04-08T07:29:32Z</time>
      </trkpt>
      <trkpt lat="43.16065" lon="5.87304">
        <ele>486.6</ele>
        <time>2022-04-08T07:29:45Z</time>
      </trkpt>
      <trkpt lat="43.16052" lon="5.87267">
        <ele>485.6</ele>
        <time>2022-04-08T07:29:50Z</time>
      </trkpt>
      <trkpt lat="43.16039" lon="5.87255">
        <ele>484.4</ele>
        <time>2022-04-08T07:29:53Z</time>
      </trkpt>
      <trkpt lat="43.16034" lon="5.87252">
        <ele>484.2</ele>
        <time>2022-04-08T07:29:54Z</time>
      </trkpt>
      <trkpt lat="43.16026" lon="5.87245">
        <ele>483.8</ele>
        <time>2022-04-08T07:29:56Z</time>
      </trkpt>
      <trkpt lat="43.16021" lon="5.87232">
        <ele>483.4</ele>
        <time>2022-04-08T07:29:59Z</time>
      </trkpt>
      <trkpt lat="43.16016" lon="5.87225">
        <ele>482.6</ele>
        <time>2022-04-08T07:30:01Z</time>
      </trkpt>
      <trkpt lat="43.16015" lon="5.87221">
        <ele>482.2</ele>
        <time>2022-04-08T07:30:02Z</time>
      </trkpt>
      <trkpt lat="43.16007" lon="5.87207">
        <ele>481.8</ele>
        <time>2022-04-08T07:30:06Z</time>
      </trkpt>
      <trkpt lat="43.15986" lon="5.87154">
        <ele>481</ele>
        <time>2022-04-08T07:30:20Z</time>
      </trkpt>
      <trkpt lat="43.15976" lon="5.8711">
        <ele>480</ele>
        <time>2022-04-08T07:30:28Z</time>
      </trkpt>
      <trkpt lat="43.15971" lon="5.87092">
        <ele>479.2</ele>
        <time>2022-04-08T07:30:31Z</time>
      </trkpt>
      <trkpt lat="43.15967" lon="5.8708">
        <ele>478.6</ele>
        <time>2022-04-08T07:30:33Z</time>
      </trkpt>
      <trkpt lat="43.15965" lon="5.87058">
        <ele>477.6</ele>
        <time>2022-04-08T07:30:36Z</time>
      </trkpt>
      <trkpt lat="43.15962" lon="5.87042">
        <ele>476.2</ele>
        <time>2022-04-08T07:30:38Z</time>
      </trkpt>
      <trkpt lat="43.15959" lon="5.87017">
        <ele>474.8</ele>
        <time>2022-04-08T07:30:41Z</time>
      </trkpt>
      <trkpt lat="43.15957" lon="5.87009">
        <ele>474.4</ele>
        <time>2022-04-08T07:30:42Z</time>
      </trkpt>
      <trkpt lat="43.15955" lon="5.87001">
        <ele>473.4</ele>
        <time>2022-04-08T07:30:43Z</time>
      </trkpt>
      <trkpt lat="43.1595" lon="5.86986">
        <ele>472.2</ele>
        <time>2022-04-08T07:30:45Z</time>
      </trkpt>
      <trkpt lat="43.15946" lon="5.86973">
        <ele>471</ele>
        <time>2022-04-08T07:30:47Z</time>
      </trkpt>
      <trkpt lat="43.15942" lon="5.86966">
        <ele>469.6</ele>
        <time>2022-04-08T07:30:49Z</time>
      </trkpt>
      <trkpt lat="43.15939" lon="5.86949">
        <ele>468.6</ele>
        <time>2022-04-08T07:30:55Z</time>
      </trkpt>
      <trkpt lat="43.15937" lon="5.86927">
        <ele>469.2</ele>
        <time>2022-04-08T07:31:02Z</time>
      </trkpt>
      <trkpt lat="43.1593" lon="5.86894">
        <ele>469.8</ele>
        <time>2022-04-08T07:31:11Z</time>
      </trkpt>
      <trkpt lat="43.15918" lon="5.86881">
        <ele>470.2</ele>
        <time>2022-04-08T07:31:18Z</time>
      </trkpt>
      <trkpt lat="43.15914" lon="5.86876">
        <ele>470.8</ele>
        <time>2022-04-08T07:31:20Z</time>
      </trkpt>
      <trkpt lat="43.15905" lon="5.86865">
        <ele>471.8</ele>
        <time>2022-04-08T07:31:25Z</time>
      </trkpt>
      <trkpt lat="43.15903" lon="5.86849">
        <ele>472.6</ele>
        <time>2022-04-08T07:31:31Z</time>
      </trkpt>
      <trkpt lat="43.15907" lon="5.86825">
        <ele>472.8</ele>
        <time>2022-04-08T07:31:37Z</time>
      </trkpt>
      <trkpt lat="43.15902" lon="5.86799">
        <ele>472.6</ele>
        <time>2022-04-08T07:31:41Z</time>
      </trkpt>
      <trkpt lat="43.159" lon="5.86788">
        <ele>471.8</ele>
        <time>2022-04-08T07:31:43Z</time>
      </trkpt>
      <trkpt lat="43.15901" lon="5.86783">
        <ele>471.4</ele>
        <time>2022-04-08T07:31:44Z</time>
      </trkpt>
      <trkpt lat="43.159" lon="5.86773">
        <ele>469.8</ele>
        <time>2022-04-08T07:31:46Z</time>
      </trkpt>
      <trkpt lat="43.15896" lon="5.86758">
        <ele>468.8</ele>
        <time>2022-04-08T07:31:49Z</time>
      </trkpt>
      <trkpt lat="43.15897" lon="5.86753">
        <ele>468.2</ele>
        <time>2022-04-08T07:31:50Z</time>
      </trkpt>
      <trkpt lat="43.15894" lon="5.86743">
        <ele>467.2</ele>
        <time>2022-04-08T07:31:52Z</time>
      </trkpt>
      <trkpt lat="43.15891" lon="5.86736">
        <ele>466.2</ele>
        <time>2022-04-08T07:31:54Z</time>
      </trkpt>
      <trkpt lat="43.15888" lon="5.8673">
        <ele>465</ele>
        <time>2022-04-08T07:31:56Z</time>
      </trkpt>
      <trkpt lat="43.15887" lon="5.86724">
        <ele>464.4</ele>
        <time>2022-04-08T07:31:58Z</time>
      </trkpt>
      <trkpt lat="43.15886" lon="5.86721">
        <ele>463.8</ele>
        <time>2022-04-08T07:31:59Z</time>
      </trkpt>
      <trkpt lat="43.15885" lon="5.86713">
        <ele>462.8</ele>
        <time>2022-04-08T07:32:01Z</time>
      </trkpt>
      <trkpt lat="43.15883" lon="5.86704">
        <ele>461.8</ele>
        <time>2022-04-08T07:32:03Z</time>
      </trkpt>
      <trkpt lat="43.15882" lon="5.86699">
        <ele>460.8</ele>
        <time>2022-04-08T07:32:05Z</time>
      </trkpt>
      <trkpt lat="43.15882" lon="5.8669">
        <ele>459.6</ele>
        <time>2022-04-08T07:32:09Z</time>
      </trkpt>
      <trkpt lat="43.15882" lon="5.86688">
        <ele>459.6</ele>
        <time>2022-04-08T07:32:10Z</time>
      </trkpt>
      <trkpt lat="43.15881" lon="5.86647">
        <ele>460.8</ele>
        <time>2022-04-08T07:32:25Z</time>
      </trkpt>
      <trkpt lat="43.1588" lon="5.86635">
        <ele>461.8</ele>
        <time>2022-04-08T07:32:29Z</time>
      </trkpt>
      <trkpt lat="43.15877" lon="5.86621">
        <ele>463</ele>
        <time>2022-04-08T07:32:34Z</time>
      </trkpt>
      <trkpt lat="43.15872" lon="5.86602">
        <ele>464</ele>
        <time>2022-04-08T07:32:40Z</time>
      </trkpt>
      <trkpt lat="43.15865" lon="5.86579">
        <ele>465.2</ele>
        <time>2022-04-08T07:32:48Z</time>
      </trkpt>
      <trkpt lat="43.15862" lon="5.86558">
        <ele>466.2</ele>
        <time>2022-04-08T07:32:56Z</time>
      </trkpt>
      <trkpt lat="43.15861" lon="5.86554">
        <ele>466.2</ele>
        <time>2022-04-08T07:32:57Z</time>
      </trkpt>
      <trkpt lat="43.1586" lon="5.86541">
        <ele>466.2</ele>
        <time>2022-04-08T07:33:00Z</time>
      </trkpt>
      <trkpt lat="43.1586" lon="5.86512">
        <ele>465.2</ele>
        <time>2022-04-08T07:33:07Z</time>
      </trkpt>
      <trkpt lat="43.15861" lon="5.86499">
        <ele>463.6</ele>
        <time>2022-04-08T07:33:11Z</time>
      </trkpt>
      <trkpt lat="43.1586" lon="5.86493">
        <ele>463</ele>
        <time>2022-04-08T07:33:13Z</time>
      </trkpt>
      <trkpt lat="43.1586" lon="5.86489">
        <ele>462.6</ele>
        <time>2022-04-08T07:33:14Z</time>
      </trkpt>
      <trkpt lat="43.15862" lon="5.8648">
        <ele>461.6</ele>
        <time>2022-04-08T07:33:17Z</time>
      </trkpt>
      <trkpt lat="43.15862" lon="5.86477">
        <ele>460.6</ele>
        <time>2022-04-08T07:33:18Z</time>
      </trkpt>
      <trkpt lat="43.15862" lon="5.86473">
        <ele>459.4</ele>
        <time>2022-04-08T07:33:20Z</time>
      </trkpt>
      <trkpt lat="43.15861" lon="5.86465">
        <ele>458</ele>
        <time>2022-04-08T07:33:23Z</time>
      </trkpt>
      <trkpt lat="43.15862" lon="5.86458">
        <ele>456.8</ele>
        <time>2022-04-08T07:33:25Z</time>
      </trkpt>
      <trkpt lat="43.15862" lon="5.86451">
        <ele>456</ele>
        <time>2022-04-08T07:33:27Z</time>
      </trkpt>
      <trkpt lat="43.15862" lon="5.86447">
        <ele>455.4</ele>
        <time>2022-04-08T07:33:28Z</time>
      </trkpt>
      <trkpt lat="43.15862" lon="5.86444">
        <ele>455</ele>
        <time>2022-04-08T07:33:29Z</time>
      </trkpt>
      <trkpt lat="43.15863" lon="5.86438">
        <ele>454.2</ele>
        <time>2022-04-08T07:33:31Z</time>
      </trkpt>
      <trkpt lat="43.15864" lon="5.86431">
        <ele>453.2</ele>
        <time>2022-04-08T07:33:34Z</time>
      </trkpt>
      <trkpt lat="43.15865" lon="5.86425">
        <ele>452.2</ele>
        <time>2022-04-08T07:33:37Z</time>
      </trkpt>
      <trkpt lat="43.15871" lon="5.86414">
        <ele>451.4</ele>
        <time>2022-04-08T07:33:41Z</time>
      </trkpt>
      <trkpt lat="43.15873" lon="5.86408">
        <ele>451</ele>
        <time>2022-04-08T07:33:45Z</time>
      </trkpt>
      <trkpt lat="43.15881" lon="5.8639">
        <ele>450.4</ele>
        <time>2022-04-08T07:33:52Z</time>
      </trkpt>
      <trkpt lat="43.15884" lon="5.86382">
        <ele>449.8</ele>
        <time>2022-04-08T07:33:55Z</time>
      </trkpt>
      <trkpt lat="43.15888" lon="5.8637">
        <ele>448.6</ele>
        <time>2022-04-08T07:33:59Z</time>
      </trkpt>
      <trkpt lat="43.15889" lon="5.86354">
        <ele>447.6</ele>
        <time>2022-04-08T07:34:04Z</time>
      </trkpt>
      <trkpt lat="43.1589" lon="5.86347">
        <ele>446.4</ele>
        <time>2022-04-08T07:34:06Z</time>
      </trkpt>
      <trkpt lat="43.15888" lon="5.86336">
        <ele>445</ele>
        <time>2022-04-08T07:34:09Z</time>
      </trkpt>
      <trkpt lat="43.15886" lon="5.86326">
        <ele>443.8</ele>
        <time>2022-04-08T07:34:12Z</time>
      </trkpt>
      <trkpt lat="43.15886" lon="5.86315">
        <ele>442.6</ele>
        <time>2022-04-08T07:34:15Z</time>
      </trkpt>
      <trkpt lat="43.15885" lon="5.86305">
        <ele>441.2</ele>
        <time>2022-04-08T07:34:18Z</time>
      </trkpt>
      <trkpt lat="43.15884" lon="5.863">
        <ele>439.6</ele>
        <time>2022-04-08T07:34:21Z</time>
      </trkpt>
      <trkpt lat="43.15883" lon="5.86298">
        <ele>438.4</ele>
        <time>2022-04-08T07:34:23Z</time>
      </trkpt>
      <trkpt lat="43.15882" lon="5.86293">
        <ele>437.2</ele>
        <time>2022-04-08T07:34:26Z</time>
      </trkpt>
      <trkpt lat="43.15882" lon="5.86292">
        <ele>436.2</ele>
        <time>2022-04-08T07:34:28Z</time>
      </trkpt>
      <trkpt lat="43.1588" lon="5.8629">
        <ele>435</ele>
        <time>2022-04-08T07:34:31Z</time>
      </trkpt>
      <trkpt lat="43.15879" lon="5.86288">
        <ele>433.8</ele>
        <time>2022-04-08T07:34:33Z</time>
      </trkpt>
      <trkpt lat="43.15879" lon="5.86287">
        <ele>433.6</ele>
        <time>2022-04-08T07:34:34Z</time>
      </trkpt>
      <trkpt lat="43.15878" lon="5.86285">
        <ele>433.4</ele>
        <time>2022-04-08T07:34:37Z</time>
      </trkpt>
      <trkpt lat="43.15874" lon="5.86276">
        <ele>432.4</ele>
        <time>2022-04-08T07:34:42Z</time>
      </trkpt>
      <trkpt lat="43.15874" lon="5.86274">
        <ele>432.4</ele>
        <time>2022-04-08T07:34:43Z</time>
      </trkpt>
      <trkpt lat="43.15873" lon="5.86268">
        <ele>431.2</ele>
        <time>2022-04-08T07:34:46Z</time>
      </trkpt>
      <trkpt lat="43.15872" lon="5.86263">
        <ele>429.8</ele>
        <time>2022-04-08T07:34:49Z</time>
      </trkpt>
      <trkpt lat="43.15871" lon="5.86261">
        <ele>429.4</ele>
        <time>2022-04-08T07:34:50Z</time>
      </trkpt>
      <trkpt lat="43.15871" lon="5.86254">
        <ele>428.6</ele>
        <time>2022-04-08T07:34:52Z</time>
      </trkpt>
      <trkpt lat="43.1587" lon="5.86247">
        <ele>427.4</ele>
        <time>2022-04-08T07:34:55Z</time>
      </trkpt>
      <trkpt lat="43.15868" lon="5.86241">
        <ele>427.2</ele>
        <time>2022-04-08T07:34:57Z</time>
      </trkpt>
      <trkpt lat="43.15866" lon="5.86235">
        <ele>426.6</ele>
        <time>2022-04-08T07:34:59Z</time>
      </trkpt>
      <trkpt lat="43.15865" lon="5.86233">
        <ele>426.4</ele>
        <time>2022-04-08T07:35:00Z</time>
      </trkpt>
      <trkpt lat="43.15862" lon="5.86227">
        <ele>425.2</ele>
        <time>2022-04-08T07:35:03Z</time>
      </trkpt>
      <trkpt lat="43.15862" lon="5.86222">
        <ele>424.4</ele>
        <time>2022-04-08T07:35:05Z</time>
      </trkpt>
      <trkpt lat="43.15862" lon="5.86219">
        <ele>423.4</ele>
        <time>2022-04-08T07:35:06Z</time>
      </trkpt>
      <trkpt lat="43.15861" lon="5.86217">
        <ele>422.6</ele>
        <time>2022-04-08T07:35:07Z</time>
      </trkpt>
      <trkpt lat="43.1586" lon="5.86214">
        <ele>422.2</ele>
        <time>2022-04-08T07:35:08Z</time>
      </trkpt>
      <trkpt lat="43.15855" lon="5.86201">
        <ele>421</ele>
        <time>2022-04-08T07:35:12Z</time>
      </trkpt>
      <trkpt lat="43.15852" lon="5.86194">
        <ele>420.4</ele>
        <time>2022-04-08T07:35:14Z</time>
      </trkpt>
      <trkpt lat="43.15851" lon="5.86189">
        <ele>419.8</ele>
        <time>2022-04-08T07:35:16Z</time>
      </trkpt>
      <trkpt lat="43.1585" lon="5.86183">
        <ele>419</ele>
        <time>2022-04-08T07:35:18Z</time>
      </trkpt>
      <trkpt lat="43.15851" lon="5.86181">
        <ele>418.8</ele>
        <time>2022-04-08T07:35:19Z</time>
      </trkpt>
      <trkpt lat="43.15851" lon="5.86177">
        <ele>417.8</ele>
        <time>2022-04-08T07:35:23Z</time>
      </trkpt>
      <trkpt lat="43.15852" lon="5.86175">
        <ele>417</ele>
        <time>2022-04-08T07:35:27Z</time>
      </trkpt>
      <trkpt lat="43.15852" lon="5.86172">
        <ele>416.8</ele>
        <time>2022-04-08T07:35:42Z</time>
      </trkpt>
      <trkpt lat="43.15851" lon="5.86171">
        <ele>416.4</ele>
        <time>2022-04-08T07:36:08Z</time>
      </trkpt>
      <trkpt lat="43.15843" lon="5.86168">
        <ele>416.4</ele>
        <time>2022-04-08T07:36:12Z</time>
      </trkpt>
      <trkpt lat="43.15841" lon="5.86168">
        <ele>416.4</ele>
        <time>2022-04-08T07:36:13Z</time>
      </trkpt>
      <trkpt lat="43.15826" lon="5.86132">
        <ele>417.8</ele>
        <time>2022-04-08T07:36:30Z</time>
      </trkpt>
      <trkpt lat="43.15815" lon="5.86122">
        <ele>418.4</ele>
        <time>2022-04-08T07:36:37Z</time>
      </trkpt>
      <trkpt lat="43.15812" lon="5.86119">
        <ele>418.8</ele>
        <time>2022-04-08T07:36:39Z</time>
      </trkpt>
      <trkpt lat="43.15805" lon="5.86112">
        <ele>420.2</ele>
        <time>2022-04-08T07:36:43Z</time>
      </trkpt>
      <trkpt lat="43.15799" lon="5.86107">
        <ele>421.4</ele>
        <time>2022-04-08T07:36:46Z</time>
      </trkpt>
      <trkpt lat="43.15791" lon="5.86102">
        <ele>422.6</ele>
        <time>2022-04-08T07:36:50Z</time>
      </trkpt>
      <trkpt lat="43.15786" lon="5.86097">
        <ele>423.6</ele>
        <time>2022-04-08T07:36:53Z</time>
      </trkpt>
      <trkpt lat="43.15783" lon="5.86085">
        <ele>424.8</ele>
        <time>2022-04-08T07:36:58Z</time>
      </trkpt>
      <trkpt lat="43.15745" lon="5.86032">
        <ele>423.6</ele>
        <time>2022-04-08T07:37:14Z</time>
      </trkpt>
      <trkpt lat="43.15742" lon="5.86028">
        <ele>422.6</ele>
        <time>2022-04-08T07:37:17Z</time>
      </trkpt>
      <trkpt lat="43.1574" lon="5.86026">
        <ele>421.2</ele>
        <time>2022-04-08T07:37:20Z</time>
      </trkpt>
      <trkpt lat="43.15739" lon="5.86024">
        <ele>418.6</ele>
        <time>2022-04-08T07:37:24Z</time>
      </trkpt>
      <trkpt lat="43.15732" lon="5.85992">
        <ele>417.4</ele>
        <time>2022-04-08T07:37:37Z</time>
      </trkpt>
      <trkpt lat="43.15728" lon="5.85977">
        <ele>416</ele>
        <time>2022-04-08T07:37:40Z</time>
      </trkpt>
      <trkpt lat="43.15722" lon="5.85959">
        <ele>415</ele>
        <time>2022-04-08T07:37:44Z</time>
      </trkpt>
      <trkpt lat="43.15719" lon="5.85943">
        <ele>413.8</ele>
        <time>2022-04-08T07:37:47Z</time>
      </trkpt>
      <trkpt lat="43.15716" lon="5.85925">
        <ele>412.4</ele>
        <time>2022-04-08T07:37:50Z</time>
      </trkpt>
      <trkpt lat="43.15708" lon="5.85903">
        <ele>411.2</ele>
        <time>2022-04-08T07:37:54Z</time>
      </trkpt>
      <trkpt lat="43.15705" lon="5.85895">
        <ele>410</ele>
        <time>2022-04-08T07:37:57Z</time>
      </trkpt>
      <trkpt lat="43.15705" lon="5.85894">
        <ele>408.4</ele>
        <time>2022-04-08T07:38:00Z</time>
      </trkpt>
      <trkpt lat="43.15704" lon="5.85893">
        <ele>407.4</ele>
        <time>2022-04-08T07:38:02Z</time>
      </trkpt>
      <trkpt lat="43.15699" lon="5.85871">
        <ele>405</ele>
        <time>2022-04-08T07:38:15Z</time>
      </trkpt>
      <trkpt lat="43.15699" lon="5.8587">
        <ele>404.6</ele>
        <time>2022-04-08T07:38:18Z</time>
      </trkpt>
      <trkpt lat="43.15699" lon="5.85869">
        <ele>403.6</ele>
        <time>2022-04-08T07:38:20Z</time>
      </trkpt>
      <trkpt lat="43.15702" lon="5.85875">
        <ele>402.6</ele>
        <time>2022-04-08T07:38:32Z</time>
      </trkpt>
      <trkpt lat="43.15702" lon="5.85879">
        <ele>403</ele>
        <time>2022-04-08T07:38:38Z</time>
      </trkpt>
      <trkpt lat="43.15703" lon="5.8588">
        <ele>404.2</ele>
        <time>2022-04-08T07:38:44Z</time>
      </trkpt>
      <trkpt lat="43.15701" lon="5.85886">
        <ele>404.4</ele>
        <time>2022-04-08T07:38:47Z</time>
      </trkpt>
      <trkpt lat="43.15698" lon="5.85888">
        <ele>404.4</ele>
        <time>2022-04-08T07:38:49Z</time>
      </trkpt>
      <trkpt lat="43.15692" lon="5.85889">
        <ele>405</ele>
        <time>2022-04-08T07:38:53Z</time>
      </trkpt>
      <trkpt lat="43.1569" lon="5.85891">
        <ele>405.4</ele>
        <time>2022-04-08T07:38:55Z</time>
      </trkpt>
      <trkpt lat="43.15689" lon="5.85895">
        <ele>406</ele>
        <time>2022-04-08T07:38:58Z</time>
      </trkpt>
      <trkpt lat="43.15684" lon="5.859">
        <ele>406.4</ele>
        <time>2022-04-08T07:39:02Z</time>
      </trkpt>
      <trkpt lat="43.15681" lon="5.85902">
        <ele>407</ele>
        <time>2022-04-08T07:39:04Z</time>
      </trkpt>
      <trkpt lat="43.15659" lon="5.85884">
        <ele>407.2</ele>
        <time>2022-04-08T07:39:19Z</time>
      </trkpt>
      <trkpt lat="43.15656" lon="5.8588">
        <ele>407</ele>
        <time>2022-04-08T07:39:22Z</time>
      </trkpt>
      <trkpt lat="43.15654" lon="5.85869">
        <ele>405.8</ele>
        <time>2022-04-08T07:39:27Z</time>
      </trkpt>
      <trkpt lat="43.15654" lon="5.85864">
        <ele>405.2</ele>
        <time>2022-04-08T07:39:29Z</time>
      </trkpt>
      <trkpt lat="43.15654" lon="5.85859">
        <ele>404.6</ele>
        <time>2022-04-08T07:39:31Z</time>
      </trkpt>
      <trkpt lat="43.15654" lon="5.85849">
        <ele>403.4</ele>
        <time>2022-04-08T07:39:35Z</time>
      </trkpt>
      <trkpt lat="43.15653" lon="5.85843">
        <ele>402</ele>
        <time>2022-04-08T07:39:37Z</time>
      </trkpt>
      <trkpt lat="43.15653" lon="5.85838">
        <ele>401</ele>
        <time>2022-04-08T07:39:39Z</time>
      </trkpt>
      <trkpt lat="43.15655" lon="5.85833">
        <ele>399.6</ele>
        <time>2022-04-08T07:39:41Z</time>
      </trkpt>
      <trkpt lat="43.15656" lon="5.85827">
        <ele>398.4</ele>
        <time>2022-04-08T07:39:43Z</time>
      </trkpt>
      <trkpt lat="43.15655" lon="5.85824">
        <ele>398</ele>
        <time>2022-04-08T07:39:44Z</time>
      </trkpt>
      <trkpt lat="43.15652" lon="5.85821">
        <ele>397.2</ele>
        <time>2022-04-08T07:39:46Z</time>
      </trkpt>
      <trkpt lat="43.15648" lon="5.85817">
        <ele>396</ele>
        <time>2022-04-08T07:39:48Z</time>
      </trkpt>
      <trkpt lat="43.15644" lon="5.85815">
        <ele>394.8</ele>
        <time>2022-04-08T07:39:50Z</time>
      </trkpt>
      <trkpt lat="43.1564" lon="5.85813">
        <ele>393.4</ele>
        <time>2022-04-08T07:39:52Z</time>
      </trkpt>
      <trkpt lat="43.15638" lon="5.85812">
        <ele>392.8</ele>
        <time>2022-04-08T07:39:53Z</time>
      </trkpt>
      <trkpt lat="43.15638" lon="5.85811">
        <ele>392.4</ele>
        <time>2022-04-08T07:39:54Z</time>
      </trkpt>
      <trkpt lat="43.15638" lon="5.85807">
        <ele>391</ele>
        <time>2022-04-08T07:39:56Z</time>
      </trkpt>
      <trkpt lat="43.15638" lon="5.85803">
        <ele>390</ele>
        <time>2022-04-08T07:39:58Z</time>
      </trkpt>
      <trkpt lat="43.15636" lon="5.85794">
        <ele>388.6</ele>
        <time>2022-04-08T07:40:01Z</time>
      </trkpt>
      <trkpt lat="43.15635" lon="5.85791">
        <ele>388.2</ele>
        <time>2022-04-08T07:40:02Z</time>
      </trkpt>
      <trkpt lat="43.15633" lon="5.85787">
        <ele>387.2</ele>
        <time>2022-04-08T07:40:04Z</time>
      </trkpt>
      <trkpt lat="43.15631" lon="5.85784">
        <ele>386</ele>
        <time>2022-04-08T07:40:06Z</time>
      </trkpt>
      <trkpt lat="43.15628" lon="5.85783">
        <ele>385</ele>
        <time>2022-04-08T07:40:08Z</time>
      </trkpt>
      <trkpt lat="43.15625" lon="5.85781">
        <ele>383.2</ele>
        <time>2022-04-08T07:40:10Z</time>
      </trkpt>
      <trkpt lat="43.15624" lon="5.85779">
        <ele>382.6</ele>
        <time>2022-04-08T07:40:11Z</time>
      </trkpt>
      <trkpt lat="43.15622" lon="5.85778">
        <ele>382</ele>
        <time>2022-04-08T07:40:12Z</time>
      </trkpt>
      <trkpt lat="43.15619" lon="5.85776">
        <ele>381</ele>
        <time>2022-04-08T07:40:14Z</time>
      </trkpt>
      <trkpt lat="43.15618" lon="5.85772">
        <ele>379.4</ele>
        <time>2022-04-08T07:40:17Z</time>
      </trkpt>
      <trkpt lat="43.15614" lon="5.85768">
        <ele>378</ele>
        <time>2022-04-08T07:40:20Z</time>
      </trkpt>
      <trkpt lat="43.15611" lon="5.85765">
        <ele>376.6</ele>
        <time>2022-04-08T07:40:22Z</time>
      </trkpt>
      <trkpt lat="43.15606" lon="5.85762">
        <ele>375.4</ele>
        <time>2022-04-08T07:40:25Z</time>
      </trkpt>
      <trkpt lat="43.15603" lon="5.85759">
        <ele>374</ele>
        <time>2022-04-08T07:40:28Z</time>
      </trkpt>
      <trkpt lat="43.15602" lon="5.85754">
        <ele>372.4</ele>
        <time>2022-04-08T07:40:30Z</time>
      </trkpt>
      <trkpt lat="43.15601" lon="5.85752">
        <ele>371.4</ele>
        <time>2022-04-08T07:40:32Z</time>
      </trkpt>
      <trkpt lat="43.156" lon="5.8575">
        <ele>370</ele>
        <time>2022-04-08T07:40:34Z</time>
      </trkpt>
      <trkpt lat="43.15598" lon="5.85748">
        <ele>369</ele>
        <time>2022-04-08T07:40:37Z</time>
      </trkpt>
      <trkpt lat="43.15594" lon="5.85733">
        <ele>369.8</ele>
        <time>2022-04-08T07:40:58Z</time>
      </trkpt>
      <trkpt lat="43.15594" lon="5.85731">
        <ele>370.8</ele>
        <time>2022-04-08T07:41:02Z</time>
      </trkpt>
      <trkpt lat="43.15593" lon="5.85729">
        <ele>371.6</ele>
        <time>2022-04-08T07:41:06Z</time>
      </trkpt>
      <trkpt lat="43.15592" lon="5.85727">
        <ele>372</ele>
        <time>2022-04-08T07:41:08Z</time>
      </trkpt>
      <trkpt lat="43.15592" lon="5.85724">
        <ele>372.6</ele>
        <time>2022-04-08T07:41:13Z</time>
      </trkpt>
      <trkpt lat="43.1559" lon="5.85716">
        <ele>373</ele>
        <time>2022-04-08T07:41:20Z</time>
      </trkpt>
      <trkpt lat="43.15587" lon="5.8571">
        <ele>373.4</ele>
        <time>2022-04-08T07:41:25Z</time>
      </trkpt>
      <trkpt lat="43.15582" lon="5.85703">
        <ele>374.2</ele>
        <time>2022-04-08T07:41:28Z</time>
      </trkpt>
      <trkpt lat="43.15572" lon="5.85695">
        <ele>374.4</ele>
        <time>2022-04-08T07:41:33Z</time>
      </trkpt>
      <trkpt lat="43.15554" lon="5.85673">
        <ele>375</ele>
        <time>2022-04-08T07:41:49Z</time>
      </trkpt>
      <trkpt lat="43.15552" lon="5.85672">
        <ele>375.2</ele>
        <time>2022-04-08T07:41:51Z</time>
      </trkpt>
      <trkpt lat="43.15519" lon="5.85654">
        <ele>374.6</ele>
        <time>2022-04-08T07:42:13Z</time>
      </trkpt>
      <trkpt lat="43.15517" lon="5.85654">
        <ele>374.4</ele>
        <time>2022-04-08T07:42:18Z</time>
      </trkpt>
      <trkpt lat="43.155" lon="5.85626">
        <ele>376.4</ele>
        <time>2022-04-08T07:42:36Z</time>
      </trkpt>
      <trkpt lat="43.15502" lon="5.85623">
        <ele>377.4</ele>
        <time>2022-04-08T07:42:41Z</time>
      </trkpt>
      <trkpt lat="43.15504" lon="5.85618">
        <ele>378.2</ele>
        <time>2022-04-08T07:42:47Z</time>
      </trkpt>
      <trkpt lat="43.15505" lon="5.85617">
        <ele>378.6</ele>
        <time>2022-04-08T07:42:49Z</time>
      </trkpt>
      <trkpt lat="43.15507" lon="5.85614">
        <ele>379.8</ele>
        <time>2022-04-08T07:42:54Z</time>
      </trkpt>
      <trkpt lat="43.15509" lon="5.85614">
        <ele>380.8</ele>
        <time>2022-04-08T07:43:00Z</time>
      </trkpt>
      <trkpt lat="43.1551" lon="5.85611">
        <ele>380.2</ele>
        <time>2022-04-08T07:43:13Z</time>
      </trkpt>
      <trkpt lat="43.15511" lon="5.8561">
        <ele>380</ele>
        <time>2022-04-08T07:43:21Z</time>
      </trkpt>
      <trkpt lat="43.15519" lon="5.85602">
        <ele>379.8</ele>
        <time>2022-04-08T07:43:27Z</time>
      </trkpt>
      <trkpt lat="43.15518" lon="5.85601">
        <ele>378.4</ele>
        <time>2022-04-08T07:43:35Z</time>
      </trkpt>
      <trkpt lat="43.15515" lon="5.85599">
        <ele>377.8</ele>
        <time>2022-04-08T07:43:40Z</time>
      </trkpt>
      <trkpt lat="43.15513" lon="5.85597">
        <ele>377.4</ele>
        <time>2022-04-08T07:43:45Z</time>
      </trkpt>
      <trkpt lat="43.15513" lon="5.85594">
        <ele>376</ele>
        <time>2022-04-08T07:43:50Z</time>
      </trkpt>
      <trkpt lat="43.15513" lon="5.85591">
        <ele>375</ele>
        <time>2022-04-08T07:43:54Z</time>
      </trkpt>
      <trkpt lat="43.15513" lon="5.85588">
        <ele>373.8</ele>
        <time>2022-04-08T07:43:58Z</time>
      </trkpt>
      <trkpt lat="43.15513" lon="5.85586">
        <ele>372.6</ele>
        <time>2022-04-08T07:44:03Z</time>
      </trkpt>
      <trkpt lat="43.15511" lon="5.85586">
        <ele>372.2</ele>
        <time>2022-04-08T07:44:05Z</time>
      </trkpt>
      <trkpt lat="43.15506" lon="5.85583">
        <ele>371.4</ele>
        <time>2022-04-08T07:44:08Z</time>
      </trkpt>
      <trkpt lat="43.15504" lon="5.85581">
        <ele>371.4</ele>
        <time>2022-04-08T07:44:09Z</time>
      </trkpt>
      <trkpt lat="43.15491" lon="5.85567">
        <ele>370</ele>
        <time>2022-04-08T07:44:16Z</time>
      </trkpt>
      <trkpt lat="43.15488" lon="5.85564">
        <ele>368.8</ele>
        <time>2022-04-08T07:44:18Z</time>
      </trkpt>
      <trkpt lat="43.15484" lon="5.85562">
        <ele>367.6</ele>
        <time>2022-04-08T07:44:20Z</time>
      </trkpt>
      <trkpt lat="43.15484" lon="5.85563">
        <ele>366.2</ele>
        <time>2022-04-08T07:44:22Z</time>
      </trkpt>
      <trkpt lat="43.15484" lon="5.85562">
        <ele>364.6</ele>
        <time>2022-04-08T07:44:24Z</time>
      </trkpt>
      <trkpt lat="43.1546" lon="5.85558">
        <ele>361.8</ele>
        <time>2022-04-08T07:45:12Z</time>
      </trkpt>
      <trkpt lat="43.15456" lon="5.85553">
        <ele>360.6</ele>
        <time>2022-04-08T07:45:15Z</time>
      </trkpt>
      <trkpt lat="43.15454" lon="5.85546">
        <ele>359.4</ele>
        <time>2022-04-08T07:45:18Z</time>
      </trkpt>
      <trkpt lat="43.1545" lon="5.85543">
        <ele>358.4</ele>
        <time>2022-04-08T07:45:21Z</time>
      </trkpt>
      <trkpt lat="43.15449" lon="5.85542">
        <ele>357.4</ele>
        <time>2022-04-08T07:45:23Z</time>
      </trkpt>
      <trkpt lat="43.15449" lon="5.85541">
        <ele>356.2</ele>
        <time>2022-04-08T07:45:25Z</time>
      </trkpt>
      <trkpt lat="43.15448" lon="5.8554">
        <ele>354.8</ele>
        <time>2022-04-08T07:45:28Z</time>
      </trkpt>
      <trkpt lat="43.15448" lon="5.85539">
        <ele>353.6</ele>
        <time>2022-04-08T07:45:30Z</time>
      </trkpt>
      <trkpt lat="43.15447" lon="5.85538">
        <ele>352.4</ele>
        <time>2022-04-08T07:45:34Z</time>
      </trkpt>
      <trkpt lat="43.15446" lon="5.85538">
        <ele>352.2</ele>
        <time>2022-04-08T07:45:35Z</time>
      </trkpt>
      <trkpt lat="43.15444" lon="5.85537">
        <ele>351.4</ele>
        <time>2022-04-08T07:45:39Z</time>
      </trkpt>
      <trkpt lat="43.15436" lon="5.85535">
        <ele>350.8</ele>
        <time>2022-04-08T07:45:44Z</time>
      </trkpt>
      <trkpt lat="43.15433" lon="5.85535">
        <ele>350.2</ele>
        <time>2022-04-08T07:45:49Z</time>
      </trkpt>
      <trkpt lat="43.15432" lon="5.85535">
        <ele>348.8</ele>
        <time>2022-04-08T07:45:51Z</time>
      </trkpt>
      <trkpt lat="43.15431" lon="5.85534">
        <ele>347.8</ele>
        <time>2022-04-08T07:45:53Z</time>
      </trkpt>
      <trkpt lat="43.15424" lon="5.85527">
        <ele>347.4</ele>
        <time>2022-04-08T07:45:56Z</time>
      </trkpt>
      <trkpt lat="43.15418" lon="5.85522">
        <ele>347.2</ele>
        <time>2022-04-08T07:45:59Z</time>
      </trkpt>
      <trkpt lat="43.15416" lon="5.85521">
        <ele>346.4</ele>
        <time>2022-04-08T07:46:01Z</time>
      </trkpt>
      <trkpt lat="43.15414" lon="5.8552">
        <ele>345</ele>
        <time>2022-04-08T07:46:03Z</time>
      </trkpt>
      <trkpt lat="43.1541" lon="5.85518">
        <ele>343.6</ele>
        <time>2022-04-08T07:46:05Z</time>
      </trkpt>
      <trkpt lat="43.15404" lon="5.85517">
        <ele>342</ele>
        <time>2022-04-08T07:46:07Z</time>
      </trkpt>
      <trkpt lat="43.15396" lon="5.85517">
        <ele>340.6</ele>
        <time>2022-04-08T07:46:09Z</time>
      </trkpt>
      <trkpt lat="43.15386" lon="5.85516">
        <ele>339.4</ele>
        <time>2022-04-08T07:46:13Z</time>
      </trkpt>
      <trkpt lat="43.15384" lon="5.85517">
        <ele>339</ele>
        <time>2022-04-08T07:46:14Z</time>
      </trkpt>
      <trkpt lat="43.1538" lon="5.85519">
        <ele>338.2</ele>
        <time>2022-04-08T07:46:16Z</time>
      </trkpt>
      <trkpt lat="43.15376" lon="5.85522">
        <ele>337.2</ele>
        <time>2022-04-08T07:46:18Z</time>
      </trkpt>
      <trkpt lat="43.15373" lon="5.85523">
        <ele>336.2</ele>
        <time>2022-04-08T07:46:20Z</time>
      </trkpt>
      <trkpt lat="43.15369" lon="5.85526">
        <ele>334.6</ele>
        <time>2022-04-08T07:46:22Z</time>
      </trkpt>
      <trkpt lat="43.15363" lon="5.8553">
        <ele>333.4</ele>
        <time>2022-04-08T07:46:26Z</time>
      </trkpt>
      <trkpt lat="43.15358" lon="5.85532">
        <ele>332</ele>
        <time>2022-04-08T07:46:29Z</time>
      </trkpt>
      <trkpt lat="43.15357" lon="5.85532">
        <ele>330.8</ele>
        <time>2022-04-08T07:46:31Z</time>
      </trkpt>
      <trkpt lat="43.15356" lon="5.85532">
        <ele>329.6</ele>
        <time>2022-04-08T07:46:33Z</time>
      </trkpt>
      <trkpt lat="43.15356" lon="5.85533">
        <ele>328.6</ele>
        <time>2022-04-08T07:46:35Z</time>
      </trkpt>
      <trkpt lat="43.15356" lon="5.85535">
        <ele>327.2</ele>
        <time>2022-04-08T07:46:38Z</time>
      </trkpt>
      <trkpt lat="43.15352" lon="5.85535">
        <ele>326.2</ele>
        <time>2022-04-08T07:46:45Z</time>
      </trkpt>
      <trkpt lat="43.15349" lon="5.85538">
        <ele>325.2</ele>
        <time>2022-04-08T07:46:52Z</time>
      </trkpt>
      <trkpt lat="43.15347" lon="5.85539">
        <ele>324.2</ele>
        <time>2022-04-08T07:46:55Z</time>
      </trkpt>
      <trkpt lat="43.15346" lon="5.85539">
        <ele>323</ele>
        <time>2022-04-08T07:46:59Z</time>
      </trkpt>
      <trkpt lat="43.15344" lon="5.8554">
        <ele>322</ele>
        <time>2022-04-08T07:47:03Z</time>
      </trkpt>
      <trkpt lat="43.15342" lon="5.85541">
        <ele>320.6</ele>
        <time>2022-04-08T07:47:08Z</time>
      </trkpt>
      <trkpt lat="43.15341" lon="5.85541">
        <ele>319.6</ele>
        <time>2022-04-08T07:47:14Z</time>
      </trkpt>
      <trkpt lat="43.15333" lon="5.85544">
        <ele>317.4</ele>
        <time>2022-04-08T07:47:56Z</time>
      </trkpt>
      <trkpt lat="43.15331" lon="5.85543">
        <ele>316.2</ele>
        <time>2022-04-08T07:48:00Z</time>
      </trkpt>
      <trkpt lat="43.15329" lon="5.85543">
        <ele>315</ele>
        <time>2022-04-08T07:48:04Z</time>
      </trkpt>
      <trkpt lat="43.15328" lon="5.85543">
        <ele>314.6</ele>
        <time>2022-04-08T07:48:05Z</time>
      </trkpt>
      <trkpt lat="43.15327" lon="5.85541">
        <ele>314</ele>
        <time>2022-04-08T07:48:07Z</time>
      </trkpt>
      <trkpt lat="43.15325" lon="5.8554">
        <ele>312.8</ele>
        <time>2022-04-08T07:48:12Z</time>
      </trkpt>
      <trkpt lat="43.15326" lon="5.85537">
        <ele>312</ele>
        <time>2022-04-08T07:48:15Z</time>
      </trkpt>
      <trkpt lat="43.15326" lon="5.85535">
        <ele>311.8</ele>
        <time>2022-04-08T07:48:16Z</time>
      </trkpt>
      <trkpt lat="43.15328" lon="5.85525">
        <ele>311.6</ele>
        <time>2022-04-08T07:48:24Z</time>
      </trkpt>
      <trkpt lat="43.15328" lon="5.85523">
        <ele>311.8</ele>
        <time>2022-04-08T07:48:36Z</time>
      </trkpt>
      <trkpt lat="43.15328" lon="5.85522">
        <ele>311.6</ele>
        <time>2022-04-08T07:49:04Z</time>
      </trkpt>
      <trkpt lat="43.15327" lon="5.85525">
        <ele>311.2</ele>
        <time>2022-04-08T07:49:09Z</time>
      </trkpt>
      <trkpt lat="43.15322" lon="5.85551">
        <ele>310.8</ele>
        <time>2022-04-08T07:49:21Z</time>
      </trkpt>
      <trkpt lat="43.1532" lon="5.85555">
        <ele>310.2</ele>
        <time>2022-04-08T07:49:24Z</time>
      </trkpt>
      <trkpt lat="43.15318" lon="5.85557">
        <ele>309.6</ele>
        <time>2022-04-08T07:49:27Z</time>
      </trkpt>
      <trkpt lat="43.15317" lon="5.85558">
        <ele>309.2</ele>
        <time>2022-04-08T07:49:28Z</time>
      </trkpt>
      <trkpt lat="43.15316" lon="5.85559">
        <ele>308.6</ele>
        <time>2022-04-08T07:49:29Z</time>
      </trkpt>
      <trkpt lat="43.15314" lon="5.85564">
        <ele>307.6</ele>
        <time>2022-04-08T07:49:32Z</time>
      </trkpt>
      <trkpt lat="43.1531" lon="5.8557">
        <ele>306.4</ele>
        <time>2022-04-08T07:49:37Z</time>
      </trkpt>
      <trkpt lat="43.15309" lon="5.85572">
        <ele>305.4</ele>
        <time>2022-04-08T07:49:41Z</time>
      </trkpt>
      <trkpt lat="43.15308" lon="5.85573">
        <ele>304.6</ele>
        <time>2022-04-08T07:49:45Z</time>
      </trkpt>
      <trkpt lat="43.15308" lon="5.85574">
        <ele>304.2</ele>
        <time>2022-04-08T07:49:47Z</time>
      </trkpt>
      <trkpt lat="43.15307" lon="5.85576">
        <ele>302.6</ele>
        <time>2022-04-08T07:50:39Z</time>
      </trkpt>
      <trkpt lat="43.15306" lon="5.85576">
        <ele>302.4</ele>
        <time>2022-04-08T07:50:50Z</time>
      </trkpt>
      <trkpt lat="43.15307" lon="5.85577">
        <ele>302.8</ele>
        <time>2022-04-08T07:51:40Z</time>
      </trkpt>
      <trkpt lat="43.15307" lon="5.85578">
        <ele>302.8</ele>
        <time>2022-04-08T07:51:45Z</time>
      </trkpt>
      <trkpt lat="43.15307" lon="5.85582">
        <ele>302.8</ele>
        <time>2022-04-08T07:51:51Z</time>
      </trkpt>
      <trkpt lat="43.15305" lon="5.85587">
        <ele>302.6</ele>
        <time>2022-04-08T07:51:54Z</time>
      </trkpt>
      <trkpt lat="43.15301" lon="5.85592">
        <ele>302.4</ele>
        <time>2022-04-08T07:51:58Z</time>
      </trkpt>
      <trkpt lat="43.153" lon="5.85595">
        <ele>301.6</ele>
        <time>2022-04-08T07:52:03Z</time>
      </trkpt>
      <trkpt lat="43.15299" lon="5.85595">
        <ele>300.6</ele>
        <time>2022-04-08T07:52:07Z</time>
      </trkpt>
      <trkpt lat="43.15299" lon="5.85594">
        <ele>299</ele>
        <time>2022-04-08T07:53:12Z</time>
      </trkpt>
      <trkpt lat="43.15298" lon="5.85595">
        <ele>299</ele>
        <time>2022-04-08T07:53:21Z</time>
      </trkpt>
      <trkpt lat="43.15295" lon="5.85594">
        <ele>299</ele>
        <time>2022-04-08T07:53:24Z</time>
      </trkpt>
      <trkpt lat="43.1529" lon="5.85592">
        <ele>299</ele>
        <time>2022-04-08T07:53:28Z</time>
      </trkpt>
      <trkpt lat="43.15288" lon="5.85587">
        <ele>299</ele>
        <time>2022-04-08T07:53:30Z</time>
      </trkpt>
      <trkpt lat="43.15284" lon="5.85581">
        <ele>298</ele>
        <time>2022-04-08T07:53:33Z</time>
      </trkpt>
      <trkpt lat="43.1528" lon="5.85575">
        <ele>296.6</ele>
        <time>2022-04-08T07:53:35Z</time>
      </trkpt>
      <trkpt lat="43.15279" lon="5.85572">
        <ele>295.8</ele>
        <time>2022-04-08T07:53:36Z</time>
      </trkpt>
      <trkpt lat="43.15278" lon="5.8557">
        <ele>295.2</ele>
        <time>2022-04-08T07:53:37Z</time>
      </trkpt>
      <trkpt lat="43.15277" lon="5.85563">
        <ele>294</ele>
        <time>2022-04-08T07:53:39Z</time>
      </trkpt>
      <trkpt lat="43.15276" lon="5.85558">
        <ele>292.8</ele>
        <time>2022-04-08T07:53:41Z</time>
      </trkpt>
      <trkpt lat="43.15276" lon="5.85551">
        <ele>291.4</ele>
        <time>2022-04-08T07:53:43Z</time>
      </trkpt>
      <trkpt lat="43.15275" lon="5.85543">
        <ele>290</ele>
        <time>2022-04-08T07:53:45Z</time>
      </trkpt>
      <trkpt lat="43.15274" lon="5.8554">
        <ele>288.4</ele>
        <time>2022-04-08T07:53:46Z</time>
      </trkpt>
      <trkpt lat="43.15273" lon="5.85532">
        <ele>287</ele>
        <time>2022-04-08T07:53:48Z</time>
      </trkpt>
      <trkpt lat="43.15271" lon="5.85525">
        <ele>285.4</ele>
        <time>2022-04-08T07:53:50Z</time>
      </trkpt>
      <trkpt lat="43.15269" lon="5.85518">
        <ele>283.8</ele>
        <time>2022-04-08T07:53:52Z</time>
      </trkpt>
      <trkpt lat="43.15267" lon="5.8551">
        <ele>282.4</ele>
        <time>2022-04-08T07:53:54Z</time>
      </trkpt>
      <trkpt lat="43.15266" lon="5.85503">
        <ele>280.6</ele>
        <time>2022-04-08T07:53:56Z</time>
      </trkpt>
      <trkpt lat="43.15265" lon="5.85499">
        <ele>279.4</ele>
        <time>2022-04-08T07:53:57Z</time>
      </trkpt>
      <trkpt lat="43.15264" lon="5.85489">
        <ele>277.6</ele>
        <time>2022-04-08T07:53:59Z</time>
      </trkpt>
      <trkpt lat="43.15264" lon="5.85479">
        <ele>276</ele>
        <time>2022-04-08T07:54:01Z</time>
      </trkpt>
      <trkpt lat="43.15265" lon="5.8547">
        <ele>274.6</ele>
        <time>2022-04-08T07:54:03Z</time>
      </trkpt>
      <trkpt lat="43.15265" lon="5.85461">
        <ele>273.4</ele>
        <time>2022-04-08T07:54:05Z</time>
      </trkpt>
      <trkpt lat="43.15264" lon="5.85453">
        <ele>272.2</ele>
        <time>2022-04-08T07:54:07Z</time>
      </trkpt>
      <trkpt lat="43.15264" lon="5.85445">
        <ele>271</ele>
        <time>2022-04-08T07:54:09Z</time>
      </trkpt>
      <trkpt lat="43.15261" lon="5.85437">
        <ele>269.6</ele>
        <time>2022-04-08T07:54:11Z</time>
      </trkpt>
      <trkpt lat="43.15261" lon="5.85434">
        <ele>268.8</ele>
        <time>2022-04-08T07:54:12Z</time>
      </trkpt>
      <trkpt lat="43.15261" lon="5.85431">
        <ele>268</ele>
        <time>2022-04-08T07:54:13Z</time>
      </trkpt>
      <trkpt lat="43.15261" lon="5.85423">
        <ele>266</ele>
        <time>2022-04-08T07:54:15Z</time>
      </trkpt>
      <trkpt lat="43.1526" lon="5.8542">
        <ele>265</ele>
        <time>2022-04-08T07:54:16Z</time>
      </trkpt>
      <trkpt lat="43.15259" lon="5.85418">
        <ele>264.2</ele>
        <time>2022-04-08T07:54:17Z</time>
      </trkpt>
      <trkpt lat="43.15256" lon="5.85412">
        <ele>261</ele>
        <time>2022-04-08T07:54:19Z</time>
      </trkpt>
      <trkpt lat="43.15256" lon="5.85405">
        <ele>259.6</ele>
        <time>2022-04-08T07:54:21Z</time>
      </trkpt>
      <trkpt lat="43.15255" lon="5.85396">
        <ele>258.2</ele>
        <time>2022-04-08T07:54:23Z</time>
      </trkpt>
      <trkpt lat="43.15253" lon="5.85387">
        <ele>256.8</ele>
        <time>2022-04-08T07:54:25Z</time>
      </trkpt>
      <trkpt lat="43.15253" lon="5.85382">
        <ele>256</ele>
        <time>2022-04-08T07:54:26Z</time>
      </trkpt>
      <trkpt lat="43.15254" lon="5.85377">
        <ele>255</ele>
        <time>2022-04-08T07:54:27Z</time>
      </trkpt>
      <trkpt lat="43.15253" lon="5.85369">
        <ele>253.6</ele>
        <time>2022-04-08T07:54:29Z</time>
      </trkpt>
      <trkpt lat="43.15252" lon="5.85365">
        <ele>252.8</ele>
        <time>2022-04-08T07:54:30Z</time>
      </trkpt>
      <trkpt lat="43.15252" lon="5.85363">
        <ele>252</ele>
        <time>2022-04-08T07:54:31Z</time>
      </trkpt>
      <trkpt lat="43.15251" lon="5.85356">
        <ele>250.8</ele>
        <time>2022-04-08T07:54:33Z</time>
      </trkpt>
      <trkpt lat="43.1525" lon="5.85351">
        <ele>249.4</ele>
        <time>2022-04-08T07:54:35Z</time>
      </trkpt>
      <trkpt lat="43.15248" lon="5.85344">
        <ele>247.6</ele>
        <time>2022-04-08T07:54:37Z</time>
      </trkpt>
      <trkpt lat="43.15244" lon="5.85337">
        <ele>246.4</ele>
        <time>2022-04-08T07:54:39Z</time>
      </trkpt>
      <trkpt lat="43.15243" lon="5.85329">
        <ele>244.8</ele>
        <time>2022-04-08T07:54:41Z</time>
      </trkpt>
      <trkpt lat="43.15242" lon="5.8532">
        <ele>243.8</ele>
        <time>2022-04-08T07:54:43Z</time>
      </trkpt>
      <trkpt lat="43.15241" lon="5.85309">
        <ele>242.2</ele>
        <time>2022-04-08T07:54:45Z</time>
      </trkpt>
      <trkpt lat="43.15241" lon="5.85298">
        <ele>241</ele>
        <time>2022-04-08T07:54:47Z</time>
      </trkpt>
      <trkpt lat="43.1524" lon="5.85289">
        <ele>239.6</ele>
        <time>2022-04-08T07:54:49Z</time>
      </trkpt>
      <trkpt lat="43.15238" lon="5.85279">
        <ele>238.2</ele>
        <time>2022-04-08T07:54:51Z</time>
      </trkpt>
      <trkpt lat="43.15235" lon="5.85272">
        <ele>235.8</ele>
        <time>2022-04-08T07:54:53Z</time>
      </trkpt>
      <trkpt lat="43.15231" lon="5.85265">
        <ele>234.6</ele>
        <time>2022-04-08T07:54:55Z</time>
      </trkpt>
      <trkpt lat="43.15229" lon="5.8526">
        <ele>233.4</ele>
        <time>2022-04-08T07:54:57Z</time>
      </trkpt>
      <trkpt lat="43.15228" lon="5.85258">
        <ele>231.8</ele>
        <time>2022-04-08T07:54:59Z</time>
      </trkpt>
      <trkpt lat="43.15228" lon="5.85257">
        <ele>230.6</ele>
        <time>2022-04-08T07:55:01Z</time>
      </trkpt>
      <trkpt lat="43.15216" lon="5.85252">
        <ele>228.8</ele>
        <time>2022-04-08T07:55:31Z</time>
      </trkpt>
      <trkpt lat="43.15212" lon="5.85266">
        <ele>228.6</ele>
        <time>2022-04-08T07:55:36Z</time>
      </trkpt>
      <trkpt lat="43.15213" lon="5.85278">
        <ele>227.4</ele>
        <time>2022-04-08T07:55:39Z</time>
      </trkpt>
      <trkpt lat="43.15211" lon="5.85289">
        <ele>226.8</ele>
        <time>2022-04-08T07:55:41Z</time>
      </trkpt>
      <trkpt lat="43.15209" lon="5.85301">
        <ele>226.2</ele>
        <time>2022-04-08T07:55:43Z</time>
      </trkpt>
      <trkpt lat="43.15204" lon="5.85319">
        <ele>225.2</ele>
        <time>2022-04-08T07:55:47Z</time>
      </trkpt>
      <trkpt lat="43.15197" lon="5.85335">
        <ele>224</ele>
        <time>2022-04-08T07:55:52Z</time>
      </trkpt>
      <trkpt lat="43.15187" lon="5.85353">
        <ele>222.6</ele>
        <time>2022-04-08T07:55:58Z</time>
      </trkpt>
      <trkpt lat="43.15185" lon="5.85357">
        <ele>221.6</ele>
        <time>2022-04-08T07:56:00Z</time>
      </trkpt>
      <trkpt lat="43.15182" lon="5.85365">
        <ele>220.6</ele>
        <time>2022-04-08T07:56:05Z</time>
      </trkpt>
      <trkpt lat="43.15178" lon="5.85376">
        <ele>219.4</ele>
        <time>2022-04-08T07:56:09Z</time>
      </trkpt>
      <trkpt lat="43.15175" lon="5.85386">
        <ele>218.4</ele>
        <time>2022-04-08T07:56:12Z</time>
      </trkpt>
      <trkpt lat="43.15172" lon="5.85397">
        <ele>217.2</ele>
        <time>2022-04-08T07:56:15Z</time>
      </trkpt>
      <trkpt lat="43.15164" lon="5.85414">
        <ele>216.2</ele>
        <time>2022-04-08T07:56:19Z</time>
      </trkpt>
      <trkpt lat="43.15158" lon="5.85421">
        <ele>215</ele>
        <time>2022-04-08T07:56:21Z</time>
      </trkpt>
      <trkpt lat="43.15149" lon="5.85434">
        <ele>214</ele>
        <time>2022-04-08T07:56:24Z</time>
      </trkpt>
      <trkpt lat="43.15145" lon="5.85442">
        <ele>213</ele>
        <time>2022-04-08T07:56:26Z</time>
      </trkpt>
      <trkpt lat="43.15138" lon="5.85456">
        <ele>211.8</ele>
        <time>2022-04-08T07:56:29Z</time>
      </trkpt>
      <trkpt lat="43.15133" lon="5.85468">
        <ele>211</ele>
        <time>2022-04-08T07:56:31Z</time>
      </trkpt>
      <trkpt lat="43.1513" lon="5.85474">
        <ele>210.8</ele>
        <time>2022-04-08T07:56:32Z</time>
      </trkpt>
      <trkpt lat="43.15126" lon="5.85484">
        <ele>209.4</ele>
        <time>2022-04-08T07:56:34Z</time>
      </trkpt>
      <trkpt lat="43.1512" lon="5.85502">
        <ele>208</ele>
        <time>2022-04-08T07:56:38Z</time>
      </trkpt>
      <trkpt lat="43.15113" lon="5.85513">
        <ele>207</ele>
        <time>2022-04-08T07:56:41Z</time>
      </trkpt>
      <trkpt lat="43.15105" lon="5.85526">
        <ele>206</ele>
        <time>2022-04-08T07:56:44Z</time>
      </trkpt>
      <trkpt lat="43.15098" lon="5.85539">
        <ele>205</ele>
        <time>2022-04-08T07:56:47Z</time>
      </trkpt>
      <trkpt lat="43.15084" lon="5.85556">
        <ele>203.8</ele>
        <time>2022-04-08T07:56:51Z</time>
      </trkpt>
      <trkpt lat="43.15074" lon="5.85572">
        <ele>202.8</ele>
        <time>2022-04-08T07:56:55Z</time>
      </trkpt>
      <trkpt lat="43.1507" lon="5.85591">
        <ele>201.4</ele>
        <time>2022-04-08T07:56:58Z</time>
      </trkpt>
      <trkpt lat="43.15063" lon="5.85615">
        <ele>200.4</ele>
        <time>2022-04-08T07:57:02Z</time>
      </trkpt>
      <trkpt lat="43.15056" lon="5.85631">
        <ele>199.2</ele>
        <time>2022-04-08T07:57:05Z</time>
      </trkpt>
      <trkpt lat="43.15052" lon="5.85643">
        <ele>198</ele>
        <time>2022-04-08T07:57:07Z</time>
      </trkpt>
      <trkpt lat="43.15042" lon="5.85665">
        <ele>197</ele>
        <time>2022-04-08T07:57:11Z</time>
      </trkpt>
      <trkpt lat="43.15032" lon="5.85681">
        <ele>195.8</ele>
        <time>2022-04-08T07:57:14Z</time>
      </trkpt>
      <trkpt lat="43.15022" lon="5.857">
        <ele>194.8</ele>
        <time>2022-04-08T07:57:17Z</time>
      </trkpt>
      <trkpt lat="43.15017" lon="5.85719">
        <ele>193.8</ele>
        <time>2022-04-08T07:57:20Z</time>
      </trkpt>
      <trkpt lat="43.15016" lon="5.85727">
        <ele>193.4</ele>
        <time>2022-04-08T07:57:22Z</time>
      </trkpt>
      <trkpt lat="43.15016" lon="5.85736">
        <ele>192.8</ele>
        <time>2022-04-08T07:57:24Z</time>
      </trkpt>
      <trkpt lat="43.1501" lon="5.85805">
        <ele>192</ele>
        <time>2022-04-08T07:57:36Z</time>
      </trkpt>
      <trkpt lat="43.14998" lon="5.85878">
        <ele>192.4</ele>
        <time>2022-04-08T07:57:53Z</time>
      </trkpt>
      <trkpt lat="43.14999" lon="5.85915">
        <ele>192.2</ele>
        <time>2022-04-08T07:58:01Z</time>
      </trkpt>
      <trkpt lat="43.15024" lon="5.85983">
        <ele>192.6</ele>
        <time>2022-04-08T07:58:16Z</time>
      </trkpt>
      <trkpt lat="43.15055" lon="5.86003">
        <ele>192.2</ele>
        <time>2022-04-08T07:58:28Z</time>
      </trkpt>
      <trkpt lat="43.15073" lon="5.86011">
        <ele>191</ele>
        <time>2022-04-08T07:58:35Z</time>
      </trkpt>
      <trkpt lat="43.15077" lon="5.86014">
        <ele>190.2</ele>
        <time>2022-04-08T07:58:37Z</time>
      </trkpt>
      <trkpt lat="43.15079" lon="5.86017">
        <ele>189.6</ele>
        <time>2022-04-08T07:58:38Z</time>
      </trkpt>
      <trkpt lat="43.15079" lon="5.86022">
        <ele>188.4</ele>
        <time>2022-04-08T07:58:40Z</time>
      </trkpt>
      <trkpt lat="43.15078" lon="5.86028">
        <ele>187.2</ele>
        <time>2022-04-08T07:58:42Z</time>
      </trkpt>
      <trkpt lat="43.15077" lon="5.86034">
        <ele>186</ele>
        <time>2022-04-08T07:58:44Z</time>
      </trkpt>
      <trkpt lat="43.15075" lon="5.8604">
        <ele>184.8</ele>
        <time>2022-04-08T07:58:46Z</time>
      </trkpt>
      <trkpt lat="43.15054" lon="5.8611">
        <ele>184.4</ele>
        <time>2022-04-08T07:59:01Z</time>
      </trkpt>
      <trkpt lat="43.15059" lon="5.86139">
        <ele>184.6</ele>
        <time>2022-04-08T07:59:09Z</time>
      </trkpt>
      <trkpt lat="43.15068" lon="5.86155">
        <ele>185.2</ele>
        <time>2022-04-08T07:59:14Z</time>
      </trkpt>
      <trkpt lat="43.1508" lon="5.86171">
        <ele>185.6</ele>
        <time>2022-04-08T07:59:20Z</time>
      </trkpt>
      <trkpt lat="43.15086" lon="5.86178">
        <ele>186</ele>
        <time>2022-04-08T07:59:23Z</time>
      </trkpt>
      <trkpt lat="43.1509" lon="5.86185">
        <ele>187</ele>
        <time>2022-04-08T07:59:26Z</time>
      </trkpt>
      <trkpt lat="43.15107" lon="5.86216">
        <ele>188</ele>
        <time>2022-04-08T07:59:36Z</time>
      </trkpt>
      <trkpt lat="43.15115" lon="5.86235">
        <ele>189</ele>
        <time>2022-04-08T07:59:41Z</time>
      </trkpt>
      <trkpt lat="43.15128" lon="5.86279">
        <ele>190.2</ele>
        <time>2022-04-08T07:59:50Z</time>
      </trkpt>
      <trkpt lat="43.15178" lon="5.86306">
        <ele>190.8</ele>
        <time>2022-04-08T08:00:06Z</time>
      </trkpt>
      <trkpt lat="43.15183" lon="5.86305">
        <ele>191</ele>
        <time>2022-04-08T08:00:08Z</time>
      </trkpt>
      <trkpt lat="43.15197" lon="5.863">
        <ele>191.2</ele>
        <time>2022-04-08T08:00:13Z</time>
      </trkpt>
      <trkpt lat="43.15208" lon="5.86301">
        <ele>191.4</ele>
        <time>2022-04-08T08:00:16Z</time>
      </trkpt>
      <trkpt lat="43.15219" lon="5.863">
        <ele>191.6</ele>
        <time>2022-04-08T08:00:19Z</time>
      </trkpt>
      <trkpt lat="43.15234" lon="5.86301">
        <ele>192</ele>
        <time>2022-04-08T08:00:24Z</time>
      </trkpt>
      <trkpt lat="43.15249" lon="5.86303">
        <ele>192.8</ele>
        <time>2022-04-08T08:00:31Z</time>
      </trkpt>
      <trkpt lat="43.15253" lon="5.86304">
        <ele>193.4</ele>
        <time>2022-04-08T08:00:33Z</time>
      </trkpt>
      <trkpt lat="43.15258" lon="5.86305">
        <ele>194.4</ele>
        <time>2022-04-08T08:00:36Z</time>
      </trkpt>
      <trkpt lat="43.15263" lon="5.86306">
        <ele>195.6</ele>
        <time>2022-04-08T08:00:39Z</time>
      </trkpt>
      <trkpt lat="43.15267" lon="5.86307">
        <ele>196.8</ele>
        <time>2022-04-08T08:00:42Z</time>
      </trkpt>
      <trkpt lat="43.1528" lon="5.86313">
        <ele>198</ele>
        <time>2022-04-08T08:02:48Z</time>
      </trkpt>
      <trkpt lat="43.15292" lon="5.86318">
        <ele>199</ele>
        <time>2022-04-08T08:02:55Z</time>
      </trkpt>
      <trkpt lat="43.15297" lon="5.86319">
        <ele>200.2</ele>
        <time>2022-04-08T08:02:58Z</time>
      </trkpt>
      <trkpt lat="43.15304" lon="5.86323">
        <ele>201.2</ele>
        <time>2022-04-08T08:03:02Z</time>
      </trkpt>
      <trkpt lat="43.1531" lon="5.86327">
        <ele>202.6</ele>
        <time>2022-04-08T08:03:06Z</time>
      </trkpt>
      <trkpt lat="43.15316" lon="5.86331">
        <ele>203.6</ele>
        <time>2022-04-08T08:03:10Z</time>
      </trkpt>
      <trkpt lat="43.15324" lon="5.86336">
        <ele>204.4</ele>
        <time>2022-04-08T08:03:14Z</time>
      </trkpt>
      <trkpt lat="43.15326" lon="5.86337">
        <ele>204.8</ele>
        <time>2022-04-08T08:03:15Z</time>
      </trkpt>
      <trkpt lat="43.15333" lon="5.86341">
        <ele>206</ele>
        <time>2022-04-08T08:03:19Z</time>
      </trkpt>
      <trkpt lat="43.15339" lon="5.86344">
        <ele>207</ele>
        <time>2022-04-08T08:03:23Z</time>
      </trkpt>
      <trkpt lat="43.15346" lon="5.86347">
        <ele>208.2</ele>
        <time>2022-04-08T08:03:27Z</time>
      </trkpt>
      <trkpt lat="43.15351" lon="5.86349">
        <ele>209.2</ele>
        <time>2022-04-08T08:03:30Z</time>
      </trkpt>
      <trkpt lat="43.1536" lon="5.8635">
        <ele>210.4</ele>
        <time>2022-04-08T08:03:35Z</time>
      </trkpt>
      <trkpt lat="43.15368" lon="5.8635">
        <ele>211.4</ele>
        <time>2022-04-08T08:03:39Z</time>
      </trkpt>
      <trkpt lat="43.15375" lon="5.86352">
        <ele>212.6</ele>
        <time>2022-04-08T08:03:43Z</time>
      </trkpt>
      <trkpt lat="43.15382" lon="5.86351">
        <ele>213.8</ele>
        <time>2022-04-08T08:03:47Z</time>
      </trkpt>
      <trkpt lat="43.15392" lon="5.86352">
        <ele>215</ele>
        <time>2022-04-08T08:03:53Z</time>
      </trkpt>
      <trkpt lat="43.15398" lon="5.86351">
        <ele>216</ele>
        <time>2022-04-08T08:03:57Z</time>
      </trkpt>
      <trkpt lat="43.15402" lon="5.86349">
        <ele>217.6</ele>
        <time>2022-04-08T08:04:00Z</time>
      </trkpt>
      <trkpt lat="43.15408" lon="5.8635">
        <ele>218.8</ele>
        <time>2022-04-08T08:04:04Z</time>
      </trkpt>
      <trkpt lat="43.15412" lon="5.8635">
        <ele>220</ele>
        <time>2022-04-08T08:04:07Z</time>
      </trkpt>
      <trkpt lat="43.15416" lon="5.86349">
        <ele>221.4</ele>
        <time>2022-04-08T08:04:10Z</time>
      </trkpt>
      <trkpt lat="43.15428" lon="5.86345">
        <ele>222.4</ele>
        <time>2022-04-08T08:04:20Z</time>
      </trkpt>
      <trkpt lat="43.15431" lon="5.86346">
        <ele>223</ele>
        <time>2022-04-08T08:04:22Z</time>
      </trkpt>
      <trkpt lat="43.15434" lon="5.86348">
        <ele>223.8</ele>
        <time>2022-04-08T08:04:24Z</time>
      </trkpt>
      <trkpt lat="43.15435" lon="5.86349">
        <ele>224</ele>
        <time>2022-04-08T08:04:25Z</time>
      </trkpt>
      <trkpt lat="43.15437" lon="5.86353">
        <ele>224.8</ele>
        <time>2022-04-08T08:04:27Z</time>
      </trkpt>
      <trkpt lat="43.15435" lon="5.86359">
        <ele>225.8</ele>
        <time>2022-04-08T08:04:30Z</time>
      </trkpt>
      <trkpt lat="43.15431" lon="5.86367">
        <ele>226.8</ele>
        <time>2022-04-08T08:04:35Z</time>
      </trkpt>
      <trkpt lat="43.15423" lon="5.86381">
        <ele>228</ele>
        <time>2022-04-08T08:04:42Z</time>
      </trkpt>
      <trkpt lat="43.15416" lon="5.86395">
        <ele>228.8</ele>
        <time>2022-04-08T08:04:49Z</time>
      </trkpt>
      <trkpt lat="43.15414" lon="5.86419">
        <ele>230</ele>
        <time>2022-04-08T08:04:59Z</time>
      </trkpt>
      <trkpt lat="43.15415" lon="5.86445">
        <ele>231</ele>
        <time>2022-04-08T08:05:10Z</time>
      </trkpt>
      <trkpt lat="43.15415" lon="5.86457">
        <ele>232</ele>
        <time>2022-04-08T08:05:14Z</time>
      </trkpt>
      <trkpt lat="43.15412" lon="5.86475">
        <ele>233</ele>
        <time>2022-04-08T08:05:21Z</time>
      </trkpt>
      <trkpt lat="43.154" lon="5.86495">
        <ele>234.2</ele>
        <time>2022-04-08T08:05:29Z</time>
      </trkpt>
      <trkpt lat="43.15384" lon="5.86497">
        <ele>235.2</ele>
        <time>2022-04-08T08:05:37Z</time>
      </trkpt>
      <trkpt lat="43.15375" lon="5.86496">
        <ele>236.2</ele>
        <time>2022-04-08T08:05:42Z</time>
      </trkpt>
      <trkpt lat="43.15368" lon="5.86495">
        <ele>237.4</ele>
        <time>2022-04-08T08:05:46Z</time>
      </trkpt>
      <trkpt lat="43.15357" lon="5.86496">
        <ele>238.6</ele>
        <time>2022-04-08T08:05:51Z</time>
      </trkpt>
      <trkpt lat="43.15345" lon="5.865">
        <ele>239.8</ele>
        <time>2022-04-08T08:05:56Z</time>
      </trkpt>
      <trkpt lat="43.15337" lon="5.86505">
        <ele>241</ele>
        <time>2022-04-08T08:06:00Z</time>
      </trkpt>
      <trkpt lat="43.15326" lon="5.86517">
        <ele>242</ele>
        <time>2022-04-08T08:06:05Z</time>
      </trkpt>
      <trkpt lat="43.15309" lon="5.86544">
        <ele>243.2</ele>
        <time>2022-04-08T08:06:15Z</time>
      </trkpt>
      <trkpt lat="43.15295" lon="5.86567">
        <ele>244</ele>
        <time>2022-04-08T08:06:23Z</time>
      </trkpt>
      <trkpt lat="43.15283" lon="5.86586">
        <ele>245.4</ele>
        <time>2022-04-08T08:06:30Z</time>
      </trkpt>
      <trkpt lat="43.15276" lon="5.86603">
        <ele>246.4</ele>
        <time>2022-04-08T08:06:36Z</time>
      </trkpt>
      <trkpt lat="43.15272" lon="5.86618">
        <ele>247.4</ele>
        <time>2022-04-08T08:06:41Z</time>
      </trkpt>
      <trkpt lat="43.15268" lon="5.86636">
        <ele>248.6</ele>
        <time>2022-04-08T08:06:47Z</time>
      </trkpt>
      <trkpt lat="43.15265" lon="5.86646">
        <ele>249.8</ele>
        <time>2022-04-08T08:06:51Z</time>
      </trkpt>
      <trkpt lat="43.15264" lon="5.8665">
        <ele>250.8</ele>
        <time>2022-04-08T08:06:55Z</time>
      </trkpt>
      <trkpt lat="43.15264" lon="5.86649">
        <ele>252</ele>
        <time>2022-04-08T08:07:00Z</time>
      </trkpt>
      <trkpt lat="43.15262" lon="5.8669">
        <ele>253</ele>
        <time>2022-04-08T08:07:18Z</time>
      </trkpt>
      <trkpt lat="43.15265" lon="5.86709">
        <ele>254.2</ele>
        <time>2022-04-08T08:07:24Z</time>
      </trkpt>
      <trkpt lat="43.15267" lon="5.86729">
        <ele>255.4</ele>
        <time>2022-04-08T08:07:30Z</time>
      </trkpt>
      <trkpt lat="43.15272" lon="5.86739">
        <ele>256</ele>
        <time>2022-04-08T08:07:34Z</time>
      </trkpt>
      <trkpt lat="43.15275" lon="5.86736">
        <ele>256.6</ele>
        <time>2022-04-08T08:07:36Z</time>
      </trkpt>
      <trkpt lat="43.15276" lon="5.86734">
        <ele>256.6</ele>
        <time>2022-04-08T08:07:37Z</time>
      </trkpt>
      <trkpt lat="43.15276" lon="5.86728">
        <ele>257.2</ele>
        <time>2022-04-08T08:07:39Z</time>
      </trkpt>
      <trkpt lat="43.15275" lon="5.86725">
        <ele>257.4</ele>
        <time>2022-04-08T08:07:40Z</time>
      </trkpt>
      <trkpt lat="43.15277" lon="5.8671">
        <ele>258.6</ele>
        <time>2022-04-08T08:07:46Z</time>
      </trkpt>
      <trkpt lat="43.15282" lon="5.86693">
        <ele>259.8</ele>
        <time>2022-04-08T08:07:53Z</time>
      </trkpt>
      <trkpt lat="43.15285" lon="5.86687">
        <ele>261</ele>
        <time>2022-04-08T08:07:56Z</time>
      </trkpt>
      <trkpt lat="43.15288" lon="5.86682">
        <ele>262.2</ele>
        <time>2022-04-08T08:07:59Z</time>
      </trkpt>
      <trkpt lat="43.15297" lon="5.86666">
        <ele>263</ele>
        <time>2022-04-08T08:08:07Z</time>
      </trkpt>
      <trkpt lat="43.15303" lon="5.86658">
        <ele>264.2</ele>
        <time>2022-04-08T08:08:11Z</time>
      </trkpt>
      <trkpt lat="43.15314" lon="5.86646">
        <ele>265.2</ele>
        <time>2022-04-08T08:08:18Z</time>
      </trkpt>
      <trkpt lat="43.15326" lon="5.86636">
        <ele>266.2</ele>
        <time>2022-04-08T08:08:24Z</time>
      </trkpt>
      <trkpt lat="43.15336" lon="5.86629">
        <ele>267.4</ele>
        <time>2022-04-08T08:08:29Z</time>
      </trkpt>
      <trkpt lat="43.15345" lon="5.86625">
        <ele>268.8</ele>
        <time>2022-04-08T08:08:34Z</time>
      </trkpt>
      <trkpt lat="43.15357" lon="5.86622">
        <ele>270</ele>
        <time>2022-04-08T08:08:40Z</time>
      </trkpt>
      <trkpt lat="43.15367" lon="5.86623">
        <ele>271</ele>
        <time>2022-04-08T08:08:45Z</time>
      </trkpt>
      <trkpt lat="43.15375" lon="5.86623">
        <ele>272.2</ele>
        <time>2022-04-08T08:08:49Z</time>
      </trkpt>
      <trkpt lat="43.15385" lon="5.86625">
        <ele>273.2</ele>
        <time>2022-04-08T08:08:53Z</time>
      </trkpt>
      <trkpt lat="43.15394" lon="5.86628">
        <ele>274.2</ele>
        <time>2022-04-08T08:08:57Z</time>
      </trkpt>
      <trkpt lat="43.15405" lon="5.86632">
        <ele>275.2</ele>
        <time>2022-04-08T08:09:02Z</time>
      </trkpt>
      <trkpt lat="43.15425" lon="5.86636">
        <ele>276.4</ele>
        <time>2022-04-08T08:09:11Z</time>
      </trkpt>
      <trkpt lat="43.15434" lon="5.86637">
        <ele>277.6</ele>
        <time>2022-04-08T08:09:15Z</time>
      </trkpt>
      <trkpt lat="43.1545" lon="5.86639">
        <ele>278.8</ele>
        <time>2022-04-08T08:09:22Z</time>
      </trkpt>
      <trkpt lat="43.15458" lon="5.8664">
        <ele>280</ele>
        <time>2022-04-08T08:09:26Z</time>
      </trkpt>
      <trkpt lat="43.15466" lon="5.86642">
        <ele>281</ele>
        <time>2022-04-08T08:09:30Z</time>
      </trkpt>
      <trkpt lat="43.15477" lon="5.86643">
        <ele>281.8</ele>
        <time>2022-04-08T08:09:35Z</time>
      </trkpt>
      <trkpt lat="43.15487" lon="5.86642">
        <ele>283</ele>
        <time>2022-04-08T08:09:40Z</time>
      </trkpt>
      <trkpt lat="43.15496" lon="5.86642">
        <ele>284</ele>
        <time>2022-04-08T08:09:44Z</time>
      </trkpt>
      <trkpt lat="43.15509" lon="5.8664">
        <ele>285</ele>
        <time>2022-04-08T08:09:50Z</time>
      </trkpt>
      <trkpt lat="43.15526" lon="5.86636">
        <ele>286.2</ele>
        <time>2022-04-08T08:09:58Z</time>
      </trkpt>
      <trkpt lat="43.15539" lon="5.86633">
        <ele>287.2</ele>
        <time>2022-04-08T08:10:04Z</time>
      </trkpt>
      <trkpt lat="43.15552" lon="5.86628">
        <ele>288.4</ele>
        <time>2022-04-08T08:10:10Z</time>
      </trkpt>
      <trkpt lat="43.15567" lon="5.86619">
        <ele>289.4</ele>
        <time>2022-04-08T08:10:16Z</time>
      </trkpt>
      <trkpt lat="43.15569" lon="5.8662">
        <ele>289.8</ele>
        <time>2022-04-08T08:10:17Z</time>
      </trkpt>
      <trkpt lat="43.15573" lon="5.86625">
        <ele>290.4</ele>
        <time>2022-04-08T08:10:20Z</time>
      </trkpt>
      <trkpt lat="43.15573" lon="5.8663">
        <ele>291.4</ele>
        <time>2022-04-08T08:10:26Z</time>
      </trkpt>
      <trkpt lat="43.15573" lon="5.86629">
        <ele>292.2</ele>
        <time>2022-04-08T08:10:32Z</time>
      </trkpt>
      <trkpt lat="43.15572" lon="5.8663">
        <ele>292.4</ele>
        <time>2022-04-08T08:10:42Z</time>
      </trkpt>
      <trkpt lat="43.15568" lon="5.86634">
        <ele>292.4</ele>
        <time>2022-04-08T08:10:45Z</time>
      </trkpt>
      <trkpt lat="43.15566" lon="5.86635">
        <ele>292.6</ele>
        <time>2022-04-08T08:10:46Z</time>
      </trkpt>
      <trkpt lat="43.15545" lon="5.86646">
        <ele>293.8</ele>
        <time>2022-04-08T08:10:57Z</time>
      </trkpt>
      <trkpt lat="43.15519" lon="5.8666">
        <ele>294.8</ele>
        <time>2022-04-08T08:11:08Z</time>
      </trkpt>
      <trkpt lat="43.15488" lon="5.86682">
        <ele>295.8</ele>
        <time>2022-04-08T08:11:23Z</time>
      </trkpt>
      <trkpt lat="43.15481" lon="5.86689">
        <ele>296.8</ele>
        <time>2022-04-08T08:11:27Z</time>
      </trkpt>
      <trkpt lat="43.15475" lon="5.86698">
        <ele>298</ele>
        <time>2022-04-08T08:11:31Z</time>
      </trkpt>
      <trkpt lat="43.15474" lon="5.86703">
        <ele>298.6</ele>
        <time>2022-04-08T08:11:33Z</time>
      </trkpt>
      <trkpt lat="43.15474" lon="5.86709">
        <ele>299.2</ele>
        <time>2022-04-08T08:11:35Z</time>
      </trkpt>
      <trkpt lat="43.15476" lon="5.86721">
        <ele>300.4</ele>
        <time>2022-04-08T08:11:40Z</time>
      </trkpt>
      <trkpt lat="43.15482" lon="5.86732">
        <ele>301.8</ele>
        <time>2022-04-08T08:11:45Z</time>
      </trkpt>
      <trkpt lat="43.15486" lon="5.86737">
        <ele>302.8</ele>
        <time>2022-04-08T08:11:48Z</time>
      </trkpt>
      <trkpt lat="43.15497" lon="5.8675">
        <ele>304</ele>
        <time>2022-04-08T08:11:56Z</time>
      </trkpt>
      <trkpt lat="43.15502" lon="5.86756">
        <ele>305.2</ele>
        <time>2022-04-08T08:11:59Z</time>
      </trkpt>
      <trkpt lat="43.15508" lon="5.86763">
        <ele>306.6</ele>
        <time>2022-04-08T08:12:03Z</time>
      </trkpt>
      <trkpt lat="43.15517" lon="5.86774">
        <ele>307.6</ele>
        <time>2022-04-08T08:12:09Z</time>
      </trkpt>
      <trkpt lat="43.15526" lon="5.86784">
        <ele>308.6</ele>
        <time>2022-04-08T08:12:15Z</time>
      </trkpt>
      <trkpt lat="43.15535" lon="5.86794">
        <ele>309.8</ele>
        <time>2022-04-08T08:12:21Z</time>
      </trkpt>
      <trkpt lat="43.15541" lon="5.86801">
        <ele>310.8</ele>
        <time>2022-04-08T08:12:25Z</time>
      </trkpt>
      <trkpt lat="43.15546" lon="5.86807">
        <ele>311.8</ele>
        <time>2022-04-08T08:12:29Z</time>
      </trkpt>
      <trkpt lat="43.15553" lon="5.86816">
        <ele>313</ele>
        <time>2022-04-08T08:12:34Z</time>
      </trkpt>
      <trkpt lat="43.15567" lon="5.86831">
        <ele>314</ele>
        <time>2022-04-08T08:12:43Z</time>
      </trkpt>
      <trkpt lat="43.15585" lon="5.86856">
        <ele>315</ele>
        <time>2022-04-08T08:12:56Z</time>
      </trkpt>
      <trkpt lat="43.15596" lon="5.86866">
        <ele>316.2</ele>
        <time>2022-04-08T08:13:02Z</time>
      </trkpt>
      <trkpt lat="43.15608" lon="5.86875">
        <ele>317.4</ele>
        <time>2022-04-08T08:13:08Z</time>
      </trkpt>
      <trkpt lat="43.15614" lon="5.86879">
        <ele>318.6</ele>
        <time>2022-04-08T08:13:11Z</time>
      </trkpt>
      <trkpt lat="43.15618" lon="5.86881">
        <ele>319.6</ele>
        <time>2022-04-08T08:13:13Z</time>
      </trkpt>
      <trkpt lat="43.15622" lon="5.86884">
        <ele>320.6</ele>
        <time>2022-04-08T08:13:15Z</time>
      </trkpt>
      <trkpt lat="43.15638" lon="5.86901">
        <ele>321.6</ele>
        <time>2022-04-08T08:13:23Z</time>
      </trkpt>
      <trkpt lat="43.1565" lon="5.86927">
        <ele>322.8</ele>
        <time>2022-04-08T08:13:31Z</time>
      </trkpt>
      <trkpt lat="43.15646" lon="5.86951">
        <ele>323.8</ele>
        <time>2022-04-08T08:13:40Z</time>
      </trkpt>
      <trkpt lat="43.15642" lon="5.86961">
        <ele>325</ele>
        <time>2022-04-08T08:13:44Z</time>
      </trkpt>
      <trkpt lat="43.15634" lon="5.86984">
        <ele>326</ele>
        <time>2022-04-08T08:13:53Z</time>
      </trkpt>
      <trkpt lat="43.15627" lon="5.87005">
        <ele>327</ele>
        <time>2022-04-08T08:14:01Z</time>
      </trkpt>
      <trkpt lat="43.15623" lon="5.87022">
        <ele>328</ele>
        <time>2022-04-08T08:14:08Z</time>
      </trkpt>
      <trkpt lat="43.15622" lon="5.87036">
        <ele>329.2</ele>
        <time>2022-04-08T08:14:13Z</time>
      </trkpt>
      <trkpt lat="43.15624" lon="5.8705">
        <ele>330.4</ele>
        <time>2022-04-08T08:14:18Z</time>
      </trkpt>
      <trkpt lat="43.15634" lon="5.87064">
        <ele>331.4</ele>
        <time>2022-04-08T08:14:25Z</time>
      </trkpt>
      <trkpt lat="43.15643" lon="5.87069">
        <ele>332.4</ele>
        <time>2022-04-08T08:14:30Z</time>
      </trkpt>
      <trkpt lat="43.15651" lon="5.87071">
        <ele>333.4</ele>
        <time>2022-04-08T08:14:34Z</time>
      </trkpt>
      <trkpt lat="43.15659" lon="5.87073">
        <ele>334.4</ele>
        <time>2022-04-08T08:14:38Z</time>
      </trkpt>
      <trkpt lat="43.15669" lon="5.87077">
        <ele>335.8</ele>
        <time>2022-04-08T08:14:43Z</time>
      </trkpt>
      <trkpt lat="43.15681" lon="5.87089">
        <ele>336.8</ele>
        <time>2022-04-08T08:14:49Z</time>
      </trkpt>
      <trkpt lat="43.15689" lon="5.8711">
        <ele>338</ele>
        <time>2022-04-08T08:14:56Z</time>
      </trkpt>
      <trkpt lat="43.15693" lon="5.87126">
        <ele>339</ele>
        <time>2022-04-08T08:15:02Z</time>
      </trkpt>
      <trkpt lat="43.15697" lon="5.87136">
        <ele>340.2</ele>
        <time>2022-04-08T08:15:06Z</time>
      </trkpt>
      <trkpt lat="43.15703" lon="5.87155">
        <ele>341.4</ele>
        <time>2022-04-08T08:15:12Z</time>
      </trkpt>
      <trkpt lat="43.15697" lon="5.87173">
        <ele>342.4</ele>
        <time>2022-04-08T08:15:18Z</time>
      </trkpt>
      <trkpt lat="43.15688" lon="5.8719">
        <ele>343.4</ele>
        <time>2022-04-08T08:15:24Z</time>
      </trkpt>
      <trkpt lat="43.15682" lon="5.87202">
        <ele>344.6</ele>
        <time>2022-04-08T08:15:28Z</time>
      </trkpt>
      <trkpt lat="43.15677" lon="5.87218">
        <ele>345.8</ele>
        <time>2022-04-08T08:15:33Z</time>
      </trkpt>
      <trkpt lat="43.15674" lon="5.87228">
        <ele>346.8</ele>
        <time>2022-04-08T08:15:36Z</time>
      </trkpt>
      <trkpt lat="43.15671" lon="5.87241">
        <ele>348</ele>
        <time>2022-04-08T08:15:40Z</time>
      </trkpt>
      <trkpt lat="43.1567" lon="5.87255">
        <ele>349</ele>
        <time>2022-04-08T08:15:44Z</time>
      </trkpt>
      <trkpt lat="43.15671" lon="5.87274">
        <ele>350.2</ele>
        <time>2022-04-08T08:15:50Z</time>
      </trkpt>
      <trkpt lat="43.15675" lon="5.87288">
        <ele>351.2</ele>
        <time>2022-04-08T08:15:55Z</time>
      </trkpt>
      <trkpt lat="43.1568" lon="5.87298">
        <ele>352.2</ele>
        <time>2022-04-08T08:15:59Z</time>
      </trkpt>
      <trkpt lat="43.15684" lon="5.87307">
        <ele>353.4</ele>
        <time>2022-04-08T08:16:02Z</time>
      </trkpt>
      <trkpt lat="43.15692" lon="5.87319">
        <ele>354.8</ele>
        <time>2022-04-08T08:16:07Z</time>
      </trkpt>
      <trkpt lat="43.15699" lon="5.87326">
        <ele>355.8</ele>
        <time>2022-04-08T08:16:10Z</time>
      </trkpt>
      <trkpt lat="43.15709" lon="5.87335">
        <ele>357</ele>
        <time>2022-04-08T08:16:14Z</time>
      </trkpt>
      <trkpt lat="43.15728" lon="5.87349">
        <ele>358</ele>
        <time>2022-04-08T08:16:21Z</time>
      </trkpt>
      <trkpt lat="43.15745" lon="5.87359">
        <ele>359.2</ele>
        <time>2022-04-08T08:16:28Z</time>
      </trkpt>
      <trkpt lat="43.15757" lon="5.87366">
        <ele>360.2</ele>
        <time>2022-04-08T08:16:33Z</time>
      </trkpt>
      <trkpt lat="43.15764" lon="5.87371">
        <ele>361.6</ele>
        <time>2022-04-08T08:16:36Z</time>
      </trkpt>
      <trkpt lat="43.15773" lon="5.87384">
        <ele>362.6</ele>
        <time>2022-04-08T08:16:41Z</time>
      </trkpt>
      <trkpt lat="43.1578" lon="5.87398">
        <ele>364</ele>
        <time>2022-04-08T08:16:46Z</time>
      </trkpt>
      <trkpt lat="43.15788" lon="5.8741">
        <ele>365</ele>
        <time>2022-04-08T08:16:51Z</time>
      </trkpt>
      <trkpt lat="43.158" lon="5.87419">
        <ele>366.2</ele>
        <time>2022-04-08T08:16:57Z</time>
      </trkpt>
      <trkpt lat="43.1581" lon="5.87425">
        <ele>367.4</ele>
        <time>2022-04-08T08:17:01Z</time>
      </trkpt>
      <trkpt lat="43.15822" lon="5.87437">
        <ele>368.6</ele>
        <time>2022-04-08T08:17:07Z</time>
      </trkpt>
      <trkpt lat="43.1583" lon="5.87445">
        <ele>369.6</ele>
        <time>2022-04-08T08:17:11Z</time>
      </trkpt>
      <trkpt lat="43.15839" lon="5.87453">
        <ele>370.8</ele>
        <time>2022-04-08T08:17:16Z</time>
      </trkpt>
      <trkpt lat="43.15845" lon="5.87461">
        <ele>372</ele>
        <time>2022-04-08T08:17:20Z</time>
      </trkpt>
      <trkpt lat="43.15848" lon="5.8747">
        <ele>373</ele>
        <time>2022-04-08T08:17:23Z</time>
      </trkpt>
      <trkpt lat="43.15847" lon="5.87485">
        <ele>374.2</ele>
        <time>2022-04-08T08:17:28Z</time>
      </trkpt>
      <trkpt lat="43.15842" lon="5.87495">
        <ele>375.4</ele>
        <time>2022-04-08T08:17:32Z</time>
      </trkpt>
      <trkpt lat="43.15836" lon="5.87506">
        <ele>375.8</ele>
        <time>2022-04-08T08:17:36Z</time>
      </trkpt>
      <trkpt lat="43.15836" lon="5.87519">
        <ele>376.6</ele>
        <time>2022-04-08T08:17:40Z</time>
      </trkpt>
      <trkpt lat="43.15839" lon="5.87532">
        <ele>378</ele>
        <time>2022-04-08T08:17:44Z</time>
      </trkpt>
      <trkpt lat="43.15845" lon="5.87548">
        <ele>379</ele>
        <time>2022-04-08T08:17:49Z</time>
      </trkpt>
      <trkpt lat="43.15852" lon="5.8757">
        <ele>380.2</ele>
        <time>2022-04-08T08:17:56Z</time>
      </trkpt>
      <trkpt lat="43.15858" lon="5.8759">
        <ele>381.4</ele>
        <time>2022-04-08T08:18:03Z</time>
      </trkpt>
      <trkpt lat="43.15864" lon="5.87602">
        <ele>382.6</ele>
        <time>2022-04-08T08:18:08Z</time>
      </trkpt>
      <trkpt lat="43.15869" lon="5.87619">
        <ele>383.8</ele>
        <time>2022-04-08T08:18:14Z</time>
      </trkpt>
      <trkpt lat="43.1587" lon="5.87632">
        <ele>385</ele>
        <time>2022-04-08T08:18:18Z</time>
      </trkpt>
      <trkpt lat="43.15868" lon="5.87646">
        <ele>386.2</ele>
        <time>2022-04-08T08:18:22Z</time>
      </trkpt>
      <trkpt lat="43.15866" lon="5.87664">
        <ele>387.2</ele>
        <time>2022-04-08T08:18:27Z</time>
      </trkpt>
      <trkpt lat="43.15864" lon="5.87682">
        <ele>388.4</ele>
        <time>2022-04-08T08:18:32Z</time>
      </trkpt>
      <trkpt lat="43.1585" lon="5.87692">
        <ele>389.6</ele>
        <time>2022-04-08T08:18:38Z</time>
      </trkpt>
      <trkpt lat="43.15839" lon="5.87694">
        <ele>390.8</ele>
        <time>2022-04-08T08:18:43Z</time>
      </trkpt>
      <trkpt lat="43.15828" lon="5.87697">
        <ele>391.8</ele>
        <time>2022-04-08T08:18:47Z</time>
      </trkpt>
      <trkpt lat="43.15818" lon="5.87699">
        <ele>393</ele>
        <time>2022-04-08T08:18:51Z</time>
      </trkpt>
      <trkpt lat="43.15808" lon="5.87703">
        <ele>394</ele>
        <time>2022-04-08T08:18:55Z</time>
      </trkpt>
      <trkpt lat="43.15795" lon="5.87708">
        <ele>395</ele>
        <time>2022-04-08T08:19:00Z</time>
      </trkpt>
      <trkpt lat="43.15784" lon="5.87714">
        <ele>396</ele>
        <time>2022-04-08T08:19:05Z</time>
      </trkpt>
      <trkpt lat="43.15769" lon="5.87723">
        <ele>397</ele>
        <time>2022-04-08T08:19:11Z</time>
      </trkpt>
      <trkpt lat="43.15753" lon="5.8773">
        <ele>398.2</ele>
        <time>2022-04-08T08:19:17Z</time>
      </trkpt>
      <trkpt lat="43.15738" lon="5.87735">
        <ele>399.2</ele>
        <time>2022-04-08T08:19:23Z</time>
      </trkpt>
      <trkpt lat="43.15726" lon="5.87738">
        <ele>400.2</ele>
        <time>2022-04-08T08:19:29Z</time>
      </trkpt>
      <trkpt lat="43.15715" lon="5.87741">
        <ele>401.6</ele>
        <time>2022-04-08T08:19:34Z</time>
      </trkpt>
      <trkpt lat="43.15707" lon="5.87741">
        <ele>402.6</ele>
        <time>2022-04-08T08:19:38Z</time>
      </trkpt>
      <trkpt lat="43.15699" lon="5.87746">
        <ele>403.6</ele>
        <time>2022-04-08T08:19:42Z</time>
      </trkpt>
      <trkpt lat="43.1568" lon="5.87759">
        <ele>404.6</ele>
        <time>2022-04-08T08:19:51Z</time>
      </trkpt>
      <trkpt lat="43.15674" lon="5.87768">
        <ele>405.8</ele>
        <time>2022-04-08T08:19:55Z</time>
      </trkpt>
      <trkpt lat="43.1567" lon="5.87775">
        <ele>407</ele>
        <time>2022-04-08T08:19:58Z</time>
      </trkpt>
      <trkpt lat="43.15665" lon="5.87783">
        <ele>408.2</ele>
        <time>2022-04-08T08:20:01Z</time>
      </trkpt>
      <trkpt lat="43.15662" lon="5.87788">
        <ele>409</ele>
        <time>2022-04-08T08:20:03Z</time>
      </trkpt>
      <trkpt lat="43.15649" lon="5.87807">
        <ele>410.2</ele>
        <time>2022-04-08T08:20:12Z</time>
      </trkpt>
      <trkpt lat="43.15641" lon="5.87818">
        <ele>411.6</ele>
        <time>2022-04-08T08:20:17Z</time>
      </trkpt>
      <trkpt lat="43.15635" lon="5.87827">
        <ele>412.6</ele>
        <time>2022-04-08T08:20:21Z</time>
      </trkpt>
      <trkpt lat="43.15629" lon="5.87838">
        <ele>413.6</ele>
        <time>2022-04-08T08:20:25Z</time>
      </trkpt>
      <trkpt lat="43.15622" lon="5.87847">
        <ele>414.8</ele>
        <time>2022-04-08T08:20:29Z</time>
      </trkpt>
      <trkpt lat="43.15617" lon="5.87859">
        <ele>415.8</ele>
        <time>2022-04-08T08:20:33Z</time>
      </trkpt>
      <trkpt lat="43.15613" lon="5.87872">
        <ele>416.8</ele>
        <time>2022-04-08T08:20:37Z</time>
      </trkpt>
      <trkpt lat="43.15613" lon="5.87889">
        <ele>418</ele>
        <time>2022-04-08T08:20:42Z</time>
      </trkpt>
      <trkpt lat="43.15616" lon="5.87907">
        <ele>419</ele>
        <time>2022-04-08T08:20:47Z</time>
      </trkpt>
      <trkpt lat="43.15624" lon="5.87934">
        <ele>420.2</ele>
        <time>2022-04-08T08:20:55Z</time>
      </trkpt>
      <trkpt lat="43.15627" lon="5.87955">
        <ele>421.2</ele>
        <time>2022-04-08T08:21:01Z</time>
      </trkpt>
      <trkpt lat="43.1563" lon="5.8798">
        <ele>422.2</ele>
        <time>2022-04-08T08:21:08Z</time>
      </trkpt>
      <trkpt lat="43.15635" lon="5.87991">
        <ele>423.2</ele>
        <time>2022-04-08T08:21:12Z</time>
      </trkpt>
      <trkpt lat="43.15639" lon="5.87995">
        <ele>424.2</ele>
        <time>2022-04-08T08:21:21Z</time>
      </trkpt>
      <trkpt lat="43.15641" lon="5.87993">
        <ele>424.2</ele>
        <time>2022-04-08T08:21:47Z</time>
      </trkpt>
      <trkpt lat="43.1564" lon="5.8798">
        <ele>424.2</ele>
        <time>2022-04-08T08:21:52Z</time>
      </trkpt>
      <trkpt lat="43.15641" lon="5.87938">
        <ele>425.4</ele>
        <time>2022-04-08T08:22:05Z</time>
      </trkpt>
      <trkpt lat="43.15644" lon="5.87926">
        <ele>426.4</ele>
        <time>2022-04-08T08:22:09Z</time>
      </trkpt>
      <trkpt lat="43.15647" lon="5.8792">
        <ele>427.8</ele>
        <time>2022-04-08T08:22:11Z</time>
      </trkpt>
      <trkpt lat="43.15653" lon="5.87907">
        <ele>428.8</ele>
        <time>2022-04-08T08:22:16Z</time>
      </trkpt>
      <trkpt lat="43.15662" lon="5.87894">
        <ele>430</ele>
        <time>2022-04-08T08:22:22Z</time>
      </trkpt>
      <trkpt lat="43.15671" lon="5.87886">
        <ele>431.2</ele>
        <time>2022-04-08T08:22:28Z</time>
      </trkpt>
      <trkpt lat="43.15678" lon="5.87881">
        <ele>432.2</ele>
        <time>2022-04-08T08:22:32Z</time>
      </trkpt>
      <trkpt lat="43.1569" lon="5.87872">
        <ele>433.6</ele>
        <time>2022-04-08T08:22:38Z</time>
      </trkpt>
      <trkpt lat="43.15697" lon="5.87866">
        <ele>434.6</ele>
        <time>2022-04-08T08:22:42Z</time>
      </trkpt>
      <trkpt lat="43.15706" lon="5.87859">
        <ele>435.8</ele>
        <time>2022-04-08T08:22:47Z</time>
      </trkpt>
      <trkpt lat="43.15717" lon="5.87854">
        <ele>437</ele>
        <time>2022-04-08T08:22:52Z</time>
      </trkpt>
      <trkpt lat="43.15726" lon="5.87848">
        <ele>438</ele>
        <time>2022-04-08T08:22:57Z</time>
      </trkpt>
      <trkpt lat="43.15736" lon="5.87845">
        <ele>439</ele>
        <time>2022-04-08T08:23:02Z</time>
      </trkpt>
      <trkpt lat="43.15749" lon="5.87845">
        <ele>440.2</ele>
        <time>2022-04-08T08:23:08Z</time>
      </trkpt>
      <trkpt lat="43.15758" lon="5.87846">
        <ele>441.2</ele>
        <time>2022-04-08T08:23:12Z</time>
      </trkpt>
      <trkpt lat="43.1577" lon="5.87848">
        <ele>442</ele>
        <time>2022-04-08T08:23:17Z</time>
      </trkpt>
      <trkpt lat="43.15779" lon="5.87848">
        <ele>443</ele>
        <time>2022-04-08T08:23:21Z</time>
      </trkpt>
      <trkpt lat="43.15795" lon="5.87849">
        <ele>444.2</ele>
        <time>2022-04-08T08:23:28Z</time>
      </trkpt>
      <trkpt lat="43.15804" lon="5.87849">
        <ele>445.2</ele>
        <time>2022-04-08T08:23:32Z</time>
      </trkpt>
      <trkpt lat="43.15817" lon="5.87854">
        <ele>446.4</ele>
        <time>2022-04-08T08:23:38Z</time>
      </trkpt>
      <trkpt lat="43.15823" lon="5.87857">
        <ele>447.4</ele>
        <time>2022-04-08T08:23:41Z</time>
      </trkpt>
      <trkpt lat="43.15834" lon="5.87863">
        <ele>448.6</ele>
        <time>2022-04-08T08:23:47Z</time>
      </trkpt>
      <trkpt lat="43.15845" lon="5.8787">
        <ele>449.8</ele>
        <time>2022-04-08T08:23:52Z</time>
      </trkpt>
      <trkpt lat="43.15856" lon="5.87874">
        <ele>451</ele>
        <time>2022-04-08T08:23:57Z</time>
      </trkpt>
      <trkpt lat="43.15867" lon="5.87876">
        <ele>452.2</ele>
        <time>2022-04-08T08:24:02Z</time>
      </trkpt>
      <trkpt lat="43.15876" lon="5.87878">
        <ele>453.4</ele>
        <time>2022-04-08T08:24:06Z</time>
      </trkpt>
      <trkpt lat="43.15891" lon="5.87881">
        <ele>454.6</ele>
        <time>2022-04-08T08:24:13Z</time>
      </trkpt>
      <trkpt lat="43.159" lon="5.87881">
        <ele>455.8</ele>
        <time>2022-04-08T08:24:17Z</time>
      </trkpt>
      <trkpt lat="43.15909" lon="5.87878">
        <ele>456.8</ele>
        <time>2022-04-08T08:24:21Z</time>
      </trkpt>
      <trkpt lat="43.1592" lon="5.87879">
        <ele>458.2</ele>
        <time>2022-04-08T08:24:27Z</time>
      </trkpt>
      <trkpt lat="43.15935" lon="5.87871">
        <ele>459.2</ele>
        <time>2022-04-08T08:24:35Z</time>
      </trkpt>
      <trkpt lat="43.15943" lon="5.87864">
        <ele>460.4</ele>
        <time>2022-04-08T08:24:40Z</time>
      </trkpt>
      <trkpt lat="43.15951" lon="5.87859">
        <ele>461.4</ele>
        <time>2022-04-08T08:24:44Z</time>
      </trkpt>
      <trkpt lat="43.15961" lon="5.87849">
        <ele>462.6</ele>
        <time>2022-04-08T08:24:50Z</time>
      </trkpt>
      <trkpt lat="43.15967" lon="5.87838">
        <ele>463.8</ele>
        <time>2022-04-08T08:24:55Z</time>
      </trkpt>
      <trkpt lat="43.1597" lon="5.87819">
        <ele>465</ele>
        <time>2022-04-08T08:25:01Z</time>
      </trkpt>
      <trkpt lat="43.15974" lon="5.87802">
        <ele>465.8</ele>
        <time>2022-04-08T08:25:07Z</time>
      </trkpt>
      <trkpt lat="43.15977" lon="5.87788">
        <ele>467.2</ele>
        <time>2022-04-08T08:25:12Z</time>
      </trkpt>
      <trkpt lat="43.15981" lon="5.87774">
        <ele>468.2</ele>
        <time>2022-04-08T08:25:17Z</time>
      </trkpt>
      <trkpt lat="43.15986" lon="5.87759">
        <ele>469.4</ele>
        <time>2022-04-08T08:25:23Z</time>
      </trkpt>
      <trkpt lat="43.15991" lon="5.87743">
        <ele>470.8</ele>
        <time>2022-04-08T08:25:29Z</time>
      </trkpt>
      <trkpt lat="43.15994" lon="5.87727">
        <ele>471.6</ele>
        <time>2022-04-08T08:25:35Z</time>
      </trkpt>
      <trkpt lat="43.15995" lon="5.87711">
        <ele>472.8</ele>
        <time>2022-04-08T08:25:41Z</time>
      </trkpt>
      <trkpt lat="43.15998" lon="5.87697">
        <ele>473.8</ele>
        <time>2022-04-08T08:25:46Z</time>
      </trkpt>
      <trkpt lat="43.16002" lon="5.87681">
        <ele>475</ele>
        <time>2022-04-08T08:25:52Z</time>
      </trkpt>
      <trkpt lat="43.16008" lon="5.87669">
        <ele>476</ele>
        <time>2022-04-08T08:25:57Z</time>
      </trkpt>
      <trkpt lat="43.16011" lon="5.87658">
        <ele>477.2</ele>
        <time>2022-04-08T08:26:01Z</time>
      </trkpt>
      <trkpt lat="43.16015" lon="5.8764">
        <ele>478.2</ele>
        <time>2022-04-08T08:26:08Z</time>
      </trkpt>
      <trkpt lat="43.16022" lon="5.87629">
        <ele>479.4</ele>
        <time>2022-04-08T08:26:13Z</time>
      </trkpt>
      <trkpt lat="43.16031" lon="5.87621">
        <ele>480.8</ele>
        <time>2022-04-08T08:26:18Z</time>
      </trkpt>
      <trkpt lat="43.16037" lon="5.87615">
        <ele>482</ele>
        <time>2022-04-08T08:26:21Z</time>
      </trkpt>
      <trkpt lat="43.16046" lon="5.87599">
        <ele>483</ele>
        <time>2022-04-08T08:26:28Z</time>
      </trkpt>
      <trkpt lat="43.16055" lon="5.87582">
        <ele>484.2</ele>
        <time>2022-04-08T08:26:34Z</time>
      </trkpt>
      <trkpt lat="43.16068" lon="5.87573">
        <ele>485.4</ele>
        <time>2022-04-08T08:26:40Z</time>
      </trkpt>
      <trkpt lat="43.16089" lon="5.87584">
        <ele>486.4</ele>
        <time>2022-04-08T08:26:47Z</time>
      </trkpt>
      <trkpt lat="43.16116" lon="5.87653">
        <ele>486.8</ele>
        <time>2022-04-08T08:27:03Z</time>
      </trkpt>
      <trkpt lat="43.16125" lon="5.877">
        <ele>486.6</ele>
        <time>2022-04-08T08:27:12Z</time>
      </trkpt>
      <trkpt lat="43.16135" lon="5.8774">
        <ele>486.8</ele>
        <time>2022-04-08T08:27:19Z</time>
      </trkpt>
      <trkpt lat="43.1614" lon="5.87776">
        <ele>486.8</ele>
        <time>2022-04-08T08:27:25Z</time>
      </trkpt>
      <trkpt lat="43.16141" lon="5.87812">
        <ele>486.8</ele>
        <time>2022-04-08T08:27:31Z</time>
      </trkpt>
      <trkpt lat="43.16139" lon="5.87841">
        <ele>486.4</ele>
        <time>2022-04-08T08:27:36Z</time>
      </trkpt>
      <trkpt lat="43.1614" lon="5.87846">
        <ele>486.4</ele>
        <time>2022-04-08T08:27:37Z</time>
      </trkpt>
      <trkpt lat="43.16162" lon="5.87858">
        <ele>486.2</ele>
        <time>2022-04-08T08:27:43Z</time>
      </trkpt>
      <trkpt lat="43.16169" lon="5.87863">
        <ele>486.2</ele>
        <time>2022-04-08T08:27:45Z</time>
      </trkpt>
      <trkpt lat="43.16216" lon="5.87903">
        <ele>487.4</ele>
        <time>2022-04-08T08:27:59Z</time>
      </trkpt>
      <trkpt lat="43.16233" lon="5.87937">
        <ele>488</ele>
        <time>2022-04-08T08:28:08Z</time>
      </trkpt>
      <trkpt lat="43.16258" lon="5.88003">
        <ele>487.8</ele>
        <time>2022-04-08T08:28:21Z</time>
      </trkpt>
      <trkpt lat="43.16285" lon="5.88067">
        <ele>487.8</ele>
        <time>2022-04-08T08:28:31Z</time>
      </trkpt>
      <trkpt lat="43.16307" lon="5.88138">
        <ele>487.4</ele>
        <time>2022-04-08T08:28:42Z</time>
      </trkpt>
      <trkpt lat="43.16316" lon="5.88167">
        <ele>487.4</ele>
        <time>2022-04-08T08:28:47Z</time>
      </trkpt>
      <trkpt lat="43.1635" lon="5.8822">
        <ele>488.2</ele>
        <time>2022-04-08T08:29:01Z</time>
      </trkpt>
      <trkpt lat="43.16367" lon="5.88243">
        <ele>489.2</ele>
        <time>2022-04-08T08:29:08Z</time>
      </trkpt>
      <trkpt lat="43.16382" lon="5.88262">
        <ele>490.4</ele>
        <time>2022-04-08T08:29:15Z</time>
      </trkpt>
      <trkpt lat="43.1642" lon="5.88318">
        <ele>490.8</ele>
        <time>2022-04-08T08:29:29Z</time>
      </trkpt>
      <trkpt lat="43.16443" lon="5.88351">
        <ele>490.2</ele>
        <time>2022-04-08T08:29:37Z</time>
      </trkpt>
      <trkpt lat="43.16456" lon="5.88378">
        <ele>489.6</ele>
        <time>2022-04-08T08:29:42Z</time>
      </trkpt>
      <trkpt lat="43.1646" lon="5.88397">
        <ele>489.2</ele>
        <time>2022-04-08T08:29:45Z</time>
      </trkpt>
      <trkpt lat="43.16463" lon="5.88417">
        <ele>487.8</ele>
        <time>2022-04-08T08:29:48Z</time>
      </trkpt>
      <trkpt lat="43.16464" lon="5.88423">
        <ele>487.6</ele>
        <time>2022-04-08T08:29:49Z</time>
      </trkpt>
      <trkpt lat="43.16478" lon="5.88457">
        <ele>487.2</ele>
        <time>2022-04-08T08:29:56Z</time>
      </trkpt>
      <trkpt lat="43.16502" lon="5.88512">
        <ele>487.8</ele>
        <time>2022-04-08T08:30:12Z</time>
      </trkpt>
      <trkpt lat="43.16513" lon="5.88529">
        <ele>489</ele>
        <time>2022-04-08T08:30:19Z</time>
      </trkpt>
      <trkpt lat="43.1652" lon="5.88542">
        <ele>490.2</ele>
        <time>2022-04-08T08:30:24Z</time>
      </trkpt>
      <trkpt lat="43.16529" lon="5.88556">
        <ele>491.2</ele>
        <time>2022-04-08T08:30:30Z</time>
      </trkpt>
      <trkpt lat="43.16535" lon="5.88573">
        <ele>492.2</ele>
        <time>2022-04-08T08:30:37Z</time>
      </trkpt>
      <trkpt lat="43.16536" lon="5.88576">
        <ele>492.2</ele>
        <time>2022-04-08T08:30:38Z</time>
      </trkpt>
      <trkpt lat="43.16539" lon="5.88601">
        <ele>493.4</ele>
        <time>2022-04-08T08:30:46Z</time>
      </trkpt>
      <trkpt lat="43.16539" lon="5.88623">
        <ele>494.2</ele>
        <time>2022-04-08T08:30:52Z</time>
      </trkpt>
      <trkpt lat="43.16537" lon="5.88654">
        <ele>495.2</ele>
        <time>2022-04-08T08:31:01Z</time>
      </trkpt>
      <trkpt lat="43.16534" lon="5.88673">
        <ele>496.4</ele>
        <time>2022-04-08T08:31:07Z</time>
      </trkpt>
      <trkpt lat="43.16523" lon="5.88705">
        <ele>497.6</ele>
        <time>2022-04-08T08:31:18Z</time>
      </trkpt>
      <trkpt lat="43.16518" lon="5.88736">
        <ele>498.8</ele>
        <time>2022-04-08T08:31:26Z</time>
      </trkpt>
      <trkpt lat="43.16506" lon="5.88781">
        <ele>499.8</ele>
        <time>2022-04-08T08:31:37Z</time>
      </trkpt>
      <trkpt lat="43.16475" lon="5.88817">
        <ele>500.2</ele>
        <time>2022-04-08T08:31:51Z</time>
      </trkpt>
      <trkpt lat="43.16439" lon="5.88805">
        <ele>500.8</ele>
        <time>2022-04-08T08:32:01Z</time>
      </trkpt>
      <trkpt lat="43.16395" lon="5.88818">
        <ele>501.8</ele>
        <time>2022-04-08T08:32:18Z</time>
      </trkpt>
      <trkpt lat="43.16385" lon="5.88819">
        <ele>503.2</ele>
        <time>2022-04-08T08:32:23Z</time>
      </trkpt>
      <trkpt lat="43.16376" lon="5.88819">
        <ele>504.2</ele>
        <time>2022-04-08T08:32:27Z</time>
      </trkpt>
      <trkpt lat="43.16366" lon="5.88816">
        <ele>505.4</ele>
        <time>2022-04-08T08:32:32Z</time>
      </trkpt>
      <trkpt lat="43.1636" lon="5.88811">
        <ele>506.4</ele>
        <time>2022-04-08T08:32:36Z</time>
      </trkpt>
      <trkpt lat="43.16344" lon="5.88806">
        <ele>507.4</ele>
        <time>2022-04-08T08:32:44Z</time>
      </trkpt>
      <trkpt lat="43.1633" lon="5.88804">
        <ele>508.8</ele>
        <time>2022-04-08T08:32:50Z</time>
      </trkpt>
      <trkpt lat="43.16323" lon="5.88804">
        <ele>510</ele>
        <time>2022-04-08T08:32:53Z</time>
      </trkpt>
      <trkpt lat="43.16306" lon="5.88807">
        <ele>511.2</ele>
        <time>2022-04-08T08:33:00Z</time>
      </trkpt>
      <trkpt lat="43.16297" lon="5.8881">
        <ele>512.4</ele>
        <time>2022-04-08T08:33:04Z</time>
      </trkpt>
      <trkpt lat="43.16285" lon="5.88814">
        <ele>513.4</ele>
        <time>2022-04-08T08:33:09Z</time>
      </trkpt>
      <trkpt lat="43.1627" lon="5.88823">
        <ele>514.6</ele>
        <time>2022-04-08T08:33:15Z</time>
      </trkpt>
      <trkpt lat="43.16265" lon="5.88834">
        <ele>515.6</ele>
        <time>2022-04-08T08:33:19Z</time>
      </trkpt>
      <trkpt lat="43.16264" lon="5.88847">
        <ele>516.6</ele>
        <time>2022-04-08T08:33:23Z</time>
      </trkpt>
      <trkpt lat="43.16271" lon="5.88873">
        <ele>517.8</ele>
        <time>2022-04-08T08:33:32Z</time>
      </trkpt>
      <trkpt lat="43.16278" lon="5.88892">
        <ele>518.8</ele>
        <time>2022-04-08T08:33:39Z</time>
      </trkpt>
      <trkpt lat="43.16283" lon="5.88908">
        <ele>519.8</ele>
        <time>2022-04-08T08:33:44Z</time>
      </trkpt>
      <trkpt lat="43.16286" lon="5.8892">
        <ele>521</ele>
        <time>2022-04-08T08:33:48Z</time>
      </trkpt>
      <trkpt lat="43.16291" lon="5.88939">
        <ele>522.4</ele>
        <time>2022-04-08T08:33:54Z</time>
      </trkpt>
      <trkpt lat="43.16295" lon="5.88958">
        <ele>523.4</ele>
        <time>2022-04-08T08:34:00Z</time>
      </trkpt>
      <trkpt lat="43.16297" lon="5.88974">
        <ele>524.2</ele>
        <time>2022-04-08T08:34:05Z</time>
      </trkpt>
      <trkpt lat="43.16301" lon="5.8899">
        <ele>525.4</ele>
        <time>2022-04-08T08:34:10Z</time>
      </trkpt>
      <trkpt lat="43.16305" lon="5.89013">
        <ele>526.6</ele>
        <time>2022-04-08T08:34:17Z</time>
      </trkpt>
      <trkpt lat="43.16309" lon="5.89024">
        <ele>527.6</ele>
        <time>2022-04-08T08:34:21Z</time>
      </trkpt>
      <trkpt lat="43.16312" lon="5.89034">
        <ele>528.6</ele>
        <time>2022-04-08T08:34:25Z</time>
      </trkpt>
      <trkpt lat="43.16315" lon="5.89041">
        <ele>529.8</ele>
        <time>2022-04-08T08:34:28Z</time>
      </trkpt>
      <trkpt lat="43.16321" lon="5.8905">
        <ele>531</ele>
        <time>2022-04-08T08:34:32Z</time>
      </trkpt>
      <trkpt lat="43.1633" lon="5.89063">
        <ele>532.4</ele>
        <time>2022-04-08T08:34:38Z</time>
      </trkpt>
      <trkpt lat="43.16333" lon="5.89069">
        <ele>533.4</ele>
        <time>2022-04-08T08:34:41Z</time>
      </trkpt>
      <trkpt lat="43.16346" lon="5.89088">
        <ele>534.6</ele>
        <time>2022-04-08T08:34:49Z</time>
      </trkpt>
      <trkpt lat="43.16354" lon="5.89101">
        <ele>536</ele>
        <time>2022-04-08T08:34:54Z</time>
      </trkpt>
      <trkpt lat="43.16364" lon="5.89117">
        <ele>537.2</ele>
        <time>2022-04-08T08:35:00Z</time>
      </trkpt>
      <trkpt lat="43.16376" lon="5.89138">
        <ele>538.4</ele>
        <time>2022-04-08T08:35:08Z</time>
      </trkpt>
      <trkpt lat="43.16383" lon="5.89151">
        <ele>539.4</ele>
        <time>2022-04-08T08:35:13Z</time>
      </trkpt>
      <trkpt lat="43.16387" lon="5.89161">
        <ele>540.6</ele>
        <time>2022-04-08T08:35:17Z</time>
      </trkpt>
      <trkpt lat="43.16392" lon="5.89181">
        <ele>541.8</ele>
        <time>2022-04-08T08:35:24Z</time>
      </trkpt>
      <trkpt lat="43.16392" lon="5.89195">
        <ele>542.8</ele>
        <time>2022-04-08T08:35:29Z</time>
      </trkpt>
      <trkpt lat="43.16388" lon="5.89215">
        <ele>544</ele>
        <time>2022-04-08T08:35:36Z</time>
      </trkpt>
      <trkpt lat="43.16376" lon="5.89237">
        <ele>545</ele>
        <time>2022-04-08T08:35:44Z</time>
      </trkpt>
      <trkpt lat="43.16359" lon="5.89257">
        <ele>546.2</ele>
        <time>2022-04-08T08:35:53Z</time>
      </trkpt>
      <trkpt lat="43.16348" lon="5.89267">
        <ele>547.6</ele>
        <time>2022-04-08T08:35:58Z</time>
      </trkpt>
      <trkpt lat="43.1634" lon="5.89278">
        <ele>549</ele>
        <time>2022-04-08T08:36:03Z</time>
      </trkpt>
      <trkpt lat="43.16334" lon="5.89287">
        <ele>550</ele>
        <time>2022-04-08T08:36:07Z</time>
      </trkpt>
      <trkpt lat="43.1633" lon="5.89294">
        <ele>551.4</ele>
        <time>2022-04-08T08:36:10Z</time>
      </trkpt>
      <trkpt lat="43.16326" lon="5.89302">
        <ele>552.8</ele>
        <time>2022-04-08T08:36:13Z</time>
      </trkpt>
      <trkpt lat="43.16321" lon="5.89315">
        <ele>554</ele>
        <time>2022-04-08T08:36:18Z</time>
      </trkpt>
      <trkpt lat="43.16321" lon="5.89327">
        <ele>555</ele>
        <time>2022-04-08T08:36:22Z</time>
      </trkpt>
      <trkpt lat="43.16323" lon="5.89335">
        <ele>555.4</ele>
        <time>2022-04-08T08:36:25Z</time>
      </trkpt>
      <trkpt lat="43.16324" lon="5.89337">
        <ele>556</ele>
        <time>2022-04-08T08:36:26Z</time>
      </trkpt>
      <trkpt lat="43.16334" lon="5.89339">
        <ele>557.2</ele>
        <time>2022-04-08T08:36:31Z</time>
      </trkpt>
      <trkpt lat="43.16337" lon="5.89335">
        <ele>557.6</ele>
        <time>2022-04-08T08:36:33Z</time>
      </trkpt>
      <trkpt lat="43.16344" lon="5.89329">
        <ele>558.8</ele>
        <time>2022-04-08T08:36:37Z</time>
      </trkpt>
      <trkpt lat="43.1635" lon="5.89326">
        <ele>560.2</ele>
        <time>2022-04-08T08:36:40Z</time>
      </trkpt>
      <trkpt lat="43.16358" lon="5.89323">
        <ele>561.2</ele>
        <time>2022-04-08T08:36:44Z</time>
      </trkpt>
      <trkpt lat="43.16371" lon="5.89322">
        <ele>562.4</ele>
        <time>2022-04-08T08:36:51Z</time>
      </trkpt>
      <trkpt lat="43.16383" lon="5.89327">
        <ele>563.4</ele>
        <time>2022-04-08T08:36:59Z</time>
      </trkpt>
      <trkpt lat="43.16391" lon="5.89338">
        <ele>564.6</ele>
        <time>2022-04-08T08:37:06Z</time>
      </trkpt>
      <trkpt lat="43.16391" lon="5.89342">
        <ele>565</ele>
        <time>2022-04-08T08:37:08Z</time>
      </trkpt>
      <trkpt lat="43.16389" lon="5.89356">
        <ele>565.8</ele>
        <time>2022-04-08T08:37:14Z</time>
      </trkpt>
      <trkpt lat="43.16384" lon="5.89368">
        <ele>567.4</ele>
        <time>2022-04-08T08:37:19Z</time>
      </trkpt>
      <trkpt lat="43.16384" lon="5.89378">
        <ele>568.4</ele>
        <time>2022-04-08T08:37:33Z</time>
      </trkpt>
      <trkpt lat="43.16383" lon="5.89376">
        <ele>568.2</ele>
        <time>2022-04-08T08:38:37Z</time>
      </trkpt>
      <trkpt lat="43.1639" lon="5.89347">
        <ele>568.4</ele>
        <time>2022-04-08T08:38:50Z</time>
      </trkpt>
      <trkpt lat="43.16378" lon="5.8932">
        <ele>568.4</ele>
        <time>2022-04-08T08:38:57Z</time>
      </trkpt>
      <trkpt lat="43.16377" lon="5.89313">
        <ele>567.4</ele>
        <time>2022-04-08T08:38:59Z</time>
      </trkpt>
      <trkpt lat="43.16377" lon="5.89308">
        <ele>566.6</ele>
        <time>2022-04-08T08:39:00Z</time>
      </trkpt>
      <trkpt lat="43.16377" lon="5.89304">
        <ele>566</ele>
        <time>2022-04-08T08:39:01Z</time>
      </trkpt>
      <trkpt lat="43.16376" lon="5.8929">
        <ele>564.8</ele>
        <time>2022-04-08T08:39:05Z</time>
      </trkpt>
      <trkpt lat="43.16376" lon="5.89283">
        <ele>563.6</ele>
        <time>2022-04-08T08:39:07Z</time>
      </trkpt>
      <trkpt lat="43.16374" lon="5.89275">
        <ele>562.2</ele>
        <time>2022-04-08T08:39:09Z</time>
      </trkpt>
      <trkpt lat="43.16374" lon="5.89271">
        <ele>561</ele>
        <time>2022-04-08T08:39:10Z</time>
      </trkpt>
      <trkpt lat="43.16372" lon="5.89264">
        <ele>559.2</ele>
        <time>2022-04-08T08:39:12Z</time>
      </trkpt>
      <trkpt lat="43.1637" lon="5.89259">
        <ele>558</ele>
        <time>2022-04-08T08:39:14Z</time>
      </trkpt>
      <trkpt lat="43.16367" lon="5.89252">
        <ele>556.6</ele>
        <time>2022-04-08T08:39:16Z</time>
      </trkpt>
      <trkpt lat="43.16367" lon="5.89245">
        <ele>554.6</ele>
        <time>2022-04-08T08:39:18Z</time>
      </trkpt>
      <trkpt lat="43.16371" lon="5.8924">
        <ele>553.4</ele>
        <time>2022-04-08T08:39:20Z</time>
      </trkpt>
      <trkpt lat="43.16375" lon="5.89235">
        <ele>552.2</ele>
        <time>2022-04-08T08:39:22Z</time>
      </trkpt>
      <trkpt lat="43.16381" lon="5.89227">
        <ele>550.8</ele>
        <time>2022-04-08T08:39:24Z</time>
      </trkpt>
      <trkpt lat="43.16386" lon="5.89217">
        <ele>549.4</ele>
        <time>2022-04-08T08:39:26Z</time>
      </trkpt>
      <trkpt lat="43.1639" lon="5.89205">
        <ele>548.2</ele>
        <time>2022-04-08T08:39:28Z</time>
      </trkpt>
      <trkpt lat="43.16392" lon="5.89198">
        <ele>547.4</ele>
        <time>2022-04-08T08:39:29Z</time>
      </trkpt>
      <trkpt lat="43.16393" lon="5.89183">
        <ele>546.8</ele>
        <time>2022-04-08T08:39:31Z</time>
      </trkpt>
      <trkpt lat="43.16379" lon="5.89142">
        <ele>545.6</ele>
        <time>2022-04-08T08:39:36Z</time>
      </trkpt>
      <trkpt lat="43.16365" lon="5.89117">
        <ele>544.4</ele>
        <time>2022-04-08T08:39:39Z</time>
      </trkpt>
      <trkpt lat="43.16343" lon="5.89083">
        <ele>543</ele>
        <time>2022-04-08T08:39:43Z</time>
      </trkpt>
      <trkpt lat="43.16331" lon="5.89065">
        <ele>542</ele>
        <time>2022-04-08T08:39:45Z</time>
      </trkpt>
      <trkpt lat="43.1632" lon="5.89048">
        <ele>541</ele>
        <time>2022-04-08T08:39:47Z</time>
      </trkpt>
      <trkpt lat="43.16315" lon="5.8904">
        <ele>540.4</ele>
        <time>2022-04-08T08:39:48Z</time>
      </trkpt>
      <trkpt lat="43.16311" lon="5.89031">
        <ele>539.8</ele>
        <time>2022-04-08T08:39:49Z</time>
      </trkpt>
      <trkpt lat="43.16304" lon="5.8901">
        <ele>538.4</ele>
        <time>2022-04-08T08:39:51Z</time>
      </trkpt>
      <trkpt lat="43.16302" lon="5.88998">
        <ele>538</ele>
        <time>2022-04-08T08:39:52Z</time>
      </trkpt>
      <trkpt lat="43.163" lon="5.88986">
        <ele>537.4</ele>
        <time>2022-04-08T08:39:53Z</time>
      </trkpt>
      <trkpt lat="43.16296" lon="5.88962">
        <ele>535.8</ele>
        <time>2022-04-08T08:39:55Z</time>
      </trkpt>
      <trkpt lat="43.16293" lon="5.88949">
        <ele>534.8</ele>
        <time>2022-04-08T08:39:56Z</time>
      </trkpt>
      <trkpt lat="43.16286" lon="5.88925">
        <ele>533</ele>
        <time>2022-04-08T08:39:58Z</time>
      </trkpt>
      <trkpt lat="43.1628" lon="5.889">
        <ele>532</ele>
        <time>2022-04-08T08:40:00Z</time>
      </trkpt>
      <trkpt lat="43.16272" lon="5.88879">
        <ele>530.6</ele>
        <time>2022-04-08T08:40:02Z</time>
      </trkpt>
      <trkpt lat="43.16269" lon="5.8887">
        <ele>528.6</ele>
        <time>2022-04-08T08:40:03Z</time>
      </trkpt>
      <trkpt lat="43.16265" lon="5.88861">
        <ele>527.6</ele>
        <time>2022-04-08T08:40:04Z</time>
      </trkpt>
      <trkpt lat="43.16263" lon="5.88854">
        <ele>526.6</ele>
        <time>2022-04-08T08:40:05Z</time>
      </trkpt>
      <trkpt lat="43.16262" lon="5.88846">
        <ele>525.8</ele>
        <time>2022-04-08T08:40:06Z</time>
      </trkpt>
      <trkpt lat="43.16263" lon="5.88833">
        <ele>524.2</ele>
        <time>2022-04-08T08:40:08Z</time>
      </trkpt>
      <trkpt lat="43.16269" lon="5.88822">
        <ele>523</ele>
        <time>2022-04-08T08:40:10Z</time>
      </trkpt>
      <trkpt lat="43.16278" lon="5.88816">
        <ele>521</ele>
        <time>2022-04-08T08:40:12Z</time>
      </trkpt>
      <trkpt lat="43.16283" lon="5.88813">
        <ele>520</ele>
        <time>2022-04-08T08:40:13Z</time>
      </trkpt>
      <trkpt lat="43.16288" lon="5.88811">
        <ele>519.4</ele>
        <time>2022-04-08T08:40:14Z</time>
      </trkpt>
      <trkpt lat="43.16294" lon="5.88809">
        <ele>518.8</ele>
        <time>2022-04-08T08:40:15Z</time>
      </trkpt>
      <trkpt lat="43.16306" lon="5.88807">
        <ele>518.2</ele>
        <time>2022-04-08T08:40:17Z</time>
      </trkpt>
      <trkpt lat="43.16327" lon="5.88806">
        <ele>517</ele>
        <time>2022-04-08T08:40:20Z</time>
      </trkpt>
      <trkpt lat="43.16335" lon="5.88807">
        <ele>516.6</ele>
        <time>2022-04-08T08:40:21Z</time>
      </trkpt>
      <trkpt lat="43.1635" lon="5.88811">
        <ele>516</ele>
        <time>2022-04-08T08:40:23Z</time>
      </trkpt>
      <trkpt lat="43.16371" lon="5.88821">
        <ele>515</ele>
        <time>2022-04-08T08:40:26Z</time>
      </trkpt>
      <trkpt lat="43.16381" lon="5.88822">
        <ele>513.6</ele>
        <time>2022-04-08T08:40:28Z</time>
      </trkpt>
      <trkpt lat="43.16391" lon="5.88821">
        <ele>512</ele>
        <time>2022-04-08T08:40:30Z</time>
      </trkpt>
      <trkpt lat="43.16401" lon="5.88817">
        <ele>510.6</ele>
        <time>2022-04-08T08:40:32Z</time>
      </trkpt>
      <trkpt lat="43.16413" lon="5.88811">
        <ele>509.6</ele>
        <time>2022-04-08T08:40:34Z</time>
      </trkpt>
      <trkpt lat="43.16419" lon="5.88809">
        <ele>508.8</ele>
        <time>2022-04-08T08:40:35Z</time>
      </trkpt>
      <trkpt lat="43.16426" lon="5.88807">
        <ele>508.2</ele>
        <time>2022-04-08T08:40:36Z</time>
      </trkpt>
      <trkpt lat="43.16439" lon="5.88807">
        <ele>506.8</ele>
        <time>2022-04-08T08:40:38Z</time>
      </trkpt>
      <trkpt lat="43.16445" lon="5.88808">
        <ele>506.2</ele>
        <time>2022-04-08T08:40:39Z</time>
      </trkpt>
      <trkpt lat="43.16451" lon="5.8881">
        <ele>505.6</ele>
        <time>2022-04-08T08:40:40Z</time>
      </trkpt>
      <trkpt lat="43.16461" lon="5.88815">
        <ele>504.4</ele>
        <time>2022-04-08T08:40:42Z</time>
      </trkpt>
      <trkpt lat="43.16471" lon="5.88817">
        <ele>503.8</ele>
        <time>2022-04-08T08:40:44Z</time>
      </trkpt>
      <trkpt lat="43.16476" lon="5.88818">
        <ele>503</ele>
        <time>2022-04-08T08:40:45Z</time>
      </trkpt>
      <trkpt lat="43.16481" lon="5.88818">
        <ele>502.6</ele>
        <time>2022-04-08T08:40:46Z</time>
      </trkpt>
      <trkpt lat="43.16495" lon="5.88809">
        <ele>502</ele>
        <time>2022-04-08T08:40:50Z</time>
      </trkpt>
      <trkpt lat="43.16501" lon="5.88787">
        <ele>501.6</ele>
        <time>2022-04-08T08:40:54Z</time>
      </trkpt>
      <trkpt lat="43.16515" lon="5.88741">
        <ele>501.4</ele>
        <time>2022-04-08T08:41:03Z</time>
      </trkpt>
      <trkpt lat="43.16518" lon="5.88723">
        <ele>501.2</ele>
        <time>2022-04-08T08:41:08Z</time>
      </trkpt>
      <trkpt lat="43.1652" lon="5.88714">
        <ele>500.8</ele>
        <time>2022-04-08T08:41:10Z</time>
      </trkpt>
      <trkpt lat="43.16529" lon="5.88689">
        <ele>500.4</ele>
        <time>2022-04-08T08:41:15Z</time>
      </trkpt>
      <trkpt lat="43.16541" lon="5.8866">
        <ele>499.8</ele>
        <time>2022-04-08T08:41:20Z</time>
      </trkpt>
      <trkpt lat="43.1655" lon="5.88647">
        <ele>498.8</ele>
        <time>2022-04-08T08:41:24Z</time>
      </trkpt>
      <trkpt lat="43.16559" lon="5.88638">
        <ele>497.6</ele>
        <time>2022-04-08T08:41:28Z</time>
      </trkpt>
      <trkpt lat="43.16571" lon="5.88633">
        <ele>497</ele>
        <time>2022-04-08T08:41:34Z</time>
      </trkpt>
      <trkpt lat="43.16578" lon="5.88625">
        <ele>496.8</ele>
        <time>2022-04-08T08:41:38Z</time>
      </trkpt>
      <trkpt lat="43.16597" lon="5.88602">
        <ele>497.6</ele>
        <time>2022-04-08T08:41:46Z</time>
      </trkpt>
      <trkpt lat="43.16605" lon="5.88548">
        <ele>496.6</ele>
        <time>2022-04-08T08:41:59Z</time>
      </trkpt>
      <trkpt lat="43.16609" lon="5.88542">
        <ele>496.4</ele>
        <time>2022-04-08T08:42:01Z</time>
      </trkpt>
      <trkpt lat="43.16618" lon="5.88535">
        <ele>496.4</ele>
        <time>2022-04-08T08:42:06Z</time>
      </trkpt>
      <trkpt lat="43.16627" lon="5.88526">
        <ele>496.4</ele>
        <time>2022-04-08T08:42:11Z</time>
      </trkpt>
      <trkpt lat="43.16633" lon="5.88517">
        <ele>496.8</ele>
        <time>2022-04-08T08:42:16Z</time>
      </trkpt>
      <trkpt lat="43.16638" lon="5.88496">
        <ele>497.2</ele>
        <time>2022-04-08T08:42:23Z</time>
      </trkpt>
      <trkpt lat="43.1664" lon="5.88493">
        <ele>497.4</ele>
        <time>2022-04-08T08:42:25Z</time>
      </trkpt>
      <trkpt lat="43.16641" lon="5.88491">
        <ele>497.6</ele>
        <time>2022-04-08T08:42:26Z</time>
      </trkpt>
      <trkpt lat="43.16644" lon="5.88491">
        <ele>497.6</ele>
        <time>2022-04-08T08:42:28Z</time>
      </trkpt>
      <trkpt lat="43.16651" lon="5.8849">
        <ele>497.8</ele>
        <time>2022-04-08T08:42:33Z</time>
      </trkpt>
      <trkpt lat="43.16655" lon="5.88489">
        <ele>497.8</ele>
        <time>2022-04-08T08:42:35Z</time>
      </trkpt>
      <trkpt lat="43.16657" lon="5.88493">
        <ele>496.2</ele>
        <time>2022-04-08T08:42:45Z</time>
      </trkpt>
      <trkpt lat="43.16657" lon="5.88494">
        <ele>495</ele>
        <time>2022-04-08T08:43:05Z</time>
      </trkpt>
      <trkpt lat="43.16654" lon="5.88514">
        <ele>494.8</ele>
        <time>2022-04-08T08:43:11Z</time>
      </trkpt>
      <trkpt lat="43.16649" lon="5.88538">
        <ele>493.6</ele>
        <time>2022-04-08T08:43:17Z</time>
      </trkpt>
      <trkpt lat="43.16649" lon="5.88541">
        <ele>492.2</ele>
        <time>2022-04-08T08:43:19Z</time>
      </trkpt>
      <trkpt lat="43.1665" lon="5.88539">
        <ele>484.6</ele>
        <time>2022-04-08T08:47:33Z</time>
      </trkpt>
      <trkpt lat="43.16651" lon="5.88538">
        <ele>484.8</ele>
        <time>2022-04-08T08:47:36Z</time>
      </trkpt>
      <trkpt lat="43.16653" lon="5.88535">
        <ele>484.8</ele>
        <time>2022-04-08T08:47:39Z</time>
      </trkpt>
      <trkpt lat="43.16662" lon="5.88526">
        <ele>484.6</ele>
        <time>2022-04-08T08:47:43Z</time>
      </trkpt>
      <trkpt lat="43.16683" lon="5.88507">
        <ele>483.2</ele>
        <time>2022-04-08T08:47:49Z</time>
      </trkpt>
      <trkpt lat="43.1669" lon="5.88501">
        <ele>482.2</ele>
        <time>2022-04-08T08:47:52Z</time>
      </trkpt>
      <trkpt lat="43.16692" lon="5.885">
        <ele>480.8</ele>
        <time>2022-04-08T08:47:56Z</time>
      </trkpt>
      <trkpt lat="43.16694" lon="5.885">
        <ele>479.2</ele>
        <time>2022-04-08T08:47:58Z</time>
      </trkpt>
      <trkpt lat="43.16695" lon="5.88499">
        <ele>477</ele>
        <time>2022-04-08T08:48:05Z</time>
      </trkpt>
      <trkpt lat="43.16698" lon="5.88497">
        <ele>476</ele>
        <time>2022-04-08T08:48:11Z</time>
      </trkpt>
      <trkpt lat="43.16722" lon="5.88479">
        <ele>474.8</ele>
        <time>2022-04-08T08:48:20Z</time>
      </trkpt>
      <trkpt lat="43.16725" lon="5.88475">
        <ele>474.6</ele>
        <time>2022-04-08T08:48:21Z</time>
      </trkpt>
      <trkpt lat="43.16734" lon="5.88465">
        <ele>473.4</ele>
        <time>2022-04-08T08:48:24Z</time>
      </trkpt>
      <trkpt lat="43.16738" lon="5.88461">
        <ele>472.4</ele>
        <time>2022-04-08T08:48:26Z</time>
      </trkpt>
      <trkpt lat="43.16743" lon="5.88457">
        <ele>471.4</ele>
        <time>2022-04-08T08:48:28Z</time>
      </trkpt>
      <trkpt lat="43.16748" lon="5.88453">
        <ele>470</ele>
        <time>2022-04-08T08:48:30Z</time>
      </trkpt>
      <trkpt lat="43.16754" lon="5.88448">
        <ele>468.8</ele>
        <time>2022-04-08T08:48:32Z</time>
      </trkpt>
      <trkpt lat="43.16759" lon="5.88443">
        <ele>467.8</ele>
        <time>2022-04-08T08:48:34Z</time>
      </trkpt>
      <trkpt lat="43.1677" lon="5.88437">
        <ele>466.2</ele>
        <time>2022-04-08T08:48:37Z</time>
      </trkpt>
      <trkpt lat="43.16775" lon="5.88435">
        <ele>465</ele>
        <time>2022-04-08T08:48:39Z</time>
      </trkpt>
      <trkpt lat="43.16783" lon="5.88432">
        <ele>463.6</ele>
        <time>2022-04-08T08:48:42Z</time>
      </trkpt>
      <trkpt lat="43.16789" lon="5.8843">
        <ele>462</ele>
        <time>2022-04-08T08:48:44Z</time>
      </trkpt>
      <trkpt lat="43.16795" lon="5.8843">
        <ele>460.8</ele>
        <time>2022-04-08T08:48:46Z</time>
      </trkpt>
      <trkpt lat="43.16801" lon="5.88429">
        <ele>459.4</ele>
        <time>2022-04-08T08:48:48Z</time>
      </trkpt>
      <trkpt lat="43.16807" lon="5.88428">
        <ele>458</ele>
        <time>2022-04-08T08:48:50Z</time>
      </trkpt>
      <trkpt lat="43.16818" lon="5.88427">
        <ele>456.8</ele>
        <time>2022-04-08T08:48:53Z</time>
      </trkpt>
      <trkpt lat="43.16825" lon="5.88426">
        <ele>454.8</ele>
        <time>2022-04-08T08:48:55Z</time>
      </trkpt>
      <trkpt lat="43.16832" lon="5.88425">
        <ele>453.6</ele>
        <time>2022-04-08T08:48:57Z</time>
      </trkpt>
      <trkpt lat="43.16841" lon="5.88428">
        <ele>452.2</ele>
        <time>2022-04-08T08:49:00Z</time>
      </trkpt>
      <trkpt lat="43.16845" lon="5.88432">
        <ele>450.6</ele>
        <time>2022-04-08T08:49:02Z</time>
      </trkpt>
      <trkpt lat="43.16848" lon="5.88438">
        <ele>449.2</ele>
        <time>2022-04-08T08:49:04Z</time>
      </trkpt>
      <trkpt lat="43.1685" lon="5.88445">
        <ele>447.8</ele>
        <time>2022-04-08T08:49:06Z</time>
      </trkpt>
      <trkpt lat="43.16853" lon="5.88453">
        <ele>446.4</ele>
        <time>2022-04-08T08:49:08Z</time>
      </trkpt>
      <trkpt lat="43.16857" lon="5.88457">
        <ele>445.8</ele>
        <time>2022-04-08T08:49:09Z</time>
      </trkpt>
      <trkpt lat="43.16862" lon="5.8846">
        <ele>445.2</ele>
        <time>2022-04-08T08:49:11Z</time>
      </trkpt>
      <trkpt lat="43.16866" lon="5.88461">
        <ele>444.4</ele>
        <time>2022-04-08T08:49:13Z</time>
      </trkpt>
      <trkpt lat="43.16868" lon="5.88461">
        <ele>443.8</ele>
        <time>2022-04-08T08:49:14Z</time>
      </trkpt>
      <trkpt lat="43.16868" lon="5.88462">
        <ele>442.6</ele>
        <time>2022-04-08T08:49:16Z</time>
      </trkpt>
      <trkpt lat="43.1687" lon="5.88462">
        <ele>441.8</ele>
        <time>2022-04-08T08:49:19Z</time>
      </trkpt>
      <trkpt lat="43.16871" lon="5.88465">
        <ele>441.4</ele>
        <time>2022-04-08T08:49:24Z</time>
      </trkpt>
      <trkpt lat="43.16873" lon="5.88483">
        <ele>440.6</ele>
        <time>2022-04-08T08:49:34Z</time>
      </trkpt>
      <trkpt lat="43.16875" lon="5.88506">
        <ele>439.2</ele>
        <time>2022-04-08T08:49:41Z</time>
      </trkpt>
      <trkpt lat="43.16879" lon="5.88516">
        <ele>437.8</ele>
        <time>2022-04-08T08:49:44Z</time>
      </trkpt>
      <trkpt lat="43.16877" lon="5.88519">
        <ele>436.6</ele>
        <time>2022-04-08T08:49:47Z</time>
      </trkpt>
      <trkpt lat="43.16876" lon="5.88519">
        <ele>436.2</ele>
        <time>2022-04-08T08:49:48Z</time>
      </trkpt>
      <trkpt lat="43.16874" lon="5.8852">
        <ele>435.4</ele>
        <time>2022-04-08T08:49:49Z</time>
      </trkpt>
      <trkpt lat="43.1687" lon="5.88519">
        <ele>434.2</ele>
        <time>2022-04-08T08:49:51Z</time>
      </trkpt>
      <trkpt lat="43.16868" lon="5.88517">
        <ele>433.8</ele>
        <time>2022-04-08T08:49:52Z</time>
      </trkpt>
      <trkpt lat="43.1686" lon="5.88512">
        <ele>433.2</ele>
        <time>2022-04-08T08:49:55Z</time>
      </trkpt>
      <trkpt lat="43.1685" lon="5.88505">
        <ele>432.6</ele>
        <time>2022-04-08T08:50:00Z</time>
      </trkpt>
      <trkpt lat="43.16848" lon="5.88504">
        <ele>432</ele>
        <time>2022-04-08T08:50:02Z</time>
      </trkpt>
      <trkpt lat="43.16845" lon="5.88503">
        <ele>430.4</ele>
        <time>2022-04-08T08:50:04Z</time>
      </trkpt>
      <trkpt lat="43.16842" lon="5.88502">
        <ele>429</ele>
        <time>2022-04-08T08:50:06Z</time>
      </trkpt>
      <trkpt lat="43.16839" lon="5.885">
        <ele>428</ele>
        <time>2022-04-08T08:50:08Z</time>
      </trkpt>
      <trkpt lat="43.16837" lon="5.885">
        <ele>427.4</ele>
        <time>2022-04-08T08:50:09Z</time>
      </trkpt>
      <trkpt lat="43.16836" lon="5.88501">
        <ele>426.8</ele>
        <time>2022-04-08T08:50:10Z</time>
      </trkpt>
      <trkpt lat="43.16834" lon="5.88504">
        <ele>425.8</ele>
        <time>2022-04-08T08:50:12Z</time>
      </trkpt>
      <trkpt lat="43.16832" lon="5.88509">
        <ele>424.2</ele>
        <time>2022-04-08T08:50:14Z</time>
      </trkpt>
      <trkpt lat="43.1683" lon="5.88513">
        <ele>422.6</ele>
        <time>2022-04-08T08:50:16Z</time>
      </trkpt>
      <trkpt lat="43.16829" lon="5.88516">
        <ele>420</ele>
        <time>2022-04-08T08:50:18Z</time>
      </trkpt>
      <trkpt lat="43.16829" lon="5.88518">
        <ele>418.6</ele>
        <time>2022-04-08T08:50:20Z</time>
      </trkpt>
      <trkpt lat="43.16829" lon="5.88523">
        <ele>417.4</ele>
        <time>2022-04-08T08:50:22Z</time>
      </trkpt>
      <trkpt lat="43.16828" lon="5.88528">
        <ele>415.4</ele>
        <time>2022-04-08T08:50:24Z</time>
      </trkpt>
      <trkpt lat="43.16827" lon="5.88532">
        <ele>414.2</ele>
        <time>2022-04-08T08:50:26Z</time>
      </trkpt>
      <trkpt lat="43.16827" lon="5.8854">
        <ele>412.8</ele>
        <time>2022-04-08T08:50:29Z</time>
      </trkpt>
      <trkpt lat="43.16824" lon="5.88546">
        <ele>411.2</ele>
        <time>2022-04-08T08:50:31Z</time>
      </trkpt>
      <trkpt lat="43.16823" lon="5.88552">
        <ele>409.8</ele>
        <time>2022-04-08T08:50:33Z</time>
      </trkpt>
      <trkpt lat="43.16821" lon="5.88559">
        <ele>408.6</ele>
        <time>2022-04-08T08:50:35Z</time>
      </trkpt>
      <trkpt lat="43.16819" lon="5.88568">
        <ele>407.2</ele>
        <time>2022-04-08T08:50:37Z</time>
      </trkpt>
      <trkpt lat="43.16813" lon="5.88578">
        <ele>405.4</ele>
        <time>2022-04-08T08:50:39Z</time>
      </trkpt>
      <trkpt lat="43.16811" lon="5.88584">
        <ele>404.2</ele>
        <time>2022-04-08T08:50:40Z</time>
      </trkpt>
      <trkpt lat="43.16809" lon="5.88588">
        <ele>403.2</ele>
        <time>2022-04-08T08:50:41Z</time>
      </trkpt>
      <trkpt lat="43.16808" lon="5.88598">
        <ele>401.2</ele>
        <time>2022-04-08T08:50:43Z</time>
      </trkpt>
      <trkpt lat="43.16807" lon="5.88607">
        <ele>399.4</ele>
        <time>2022-04-08T08:50:45Z</time>
      </trkpt>
      <trkpt lat="43.16808" lon="5.88614">
        <ele>397.6</ele>
        <time>2022-04-08T08:50:47Z</time>
      </trkpt>
      <trkpt lat="43.1681" lon="5.88624">
        <ele>396.2</ele>
        <time>2022-04-08T08:50:50Z</time>
      </trkpt>
      <trkpt lat="43.16811" lon="5.88628">
        <ele>393.6</ele>
        <time>2022-04-08T08:50:52Z</time>
      </trkpt>
      <trkpt lat="43.16814" lon="5.88631">
        <ele>392</ele>
        <time>2022-04-08T08:50:54Z</time>
      </trkpt>
      <trkpt lat="43.16819" lon="5.88638">
        <ele>390.2</ele>
        <time>2022-04-08T08:50:56Z</time>
      </trkpt>
      <trkpt lat="43.16824" lon="5.88642">
        <ele>388.8</ele>
        <time>2022-04-08T08:50:58Z</time>
      </trkpt>
      <trkpt lat="43.16828" lon="5.88642">
        <ele>387.6</ele>
        <time>2022-04-08T08:51:00Z</time>
      </trkpt>
      <trkpt lat="43.16832" lon="5.88644">
        <ele>386.2</ele>
        <time>2022-04-08T08:51:02Z</time>
      </trkpt>
      <trkpt lat="43.16833" lon="5.88648">
        <ele>384.6</ele>
        <time>2022-04-08T08:51:04Z</time>
      </trkpt>
      <trkpt lat="43.16833" lon="5.8865">
        <ele>383.6</ele>
        <time>2022-04-08T08:51:05Z</time>
      </trkpt>
      <trkpt lat="43.1683" lon="5.88656">
        <ele>382</ele>
        <time>2022-04-08T08:51:07Z</time>
      </trkpt>
      <trkpt lat="43.16826" lon="5.88662">
        <ele>380.6</ele>
        <time>2022-04-08T08:51:09Z</time>
      </trkpt>
      <trkpt lat="43.16824" lon="5.88664">
        <ele>380</ele>
        <time>2022-04-08T08:51:10Z</time>
      </trkpt>
      <trkpt lat="43.16823" lon="5.88667">
        <ele>379.4</ele>
        <time>2022-04-08T08:51:11Z</time>
      </trkpt>
      <trkpt lat="43.16819" lon="5.88679">
        <ele>378.2</ele>
        <time>2022-04-08T08:51:15Z</time>
      </trkpt>
      <trkpt lat="43.16789" lon="5.88741">
        <ele>377</ele>
        <time>2022-04-08T08:51:28Z</time>
      </trkpt>
      <trkpt lat="43.16786" lon="5.88746">
        <ele>376.8</ele>
        <time>2022-04-08T08:51:29Z</time>
      </trkpt>
      <trkpt lat="43.16784" lon="5.88752">
        <ele>376.8</ele>
        <time>2022-04-08T08:51:30Z</time>
      </trkpt>
      <trkpt lat="43.1678" lon="5.8877">
        <ele>376.6</ele>
        <time>2022-04-08T08:51:33Z</time>
      </trkpt>
      <trkpt lat="43.16776" lon="5.88813">
        <ele>376.2</ele>
        <time>2022-04-08T08:51:39Z</time>
      </trkpt>
      <trkpt lat="43.16766" lon="5.88855">
        <ele>376.2</ele>
        <time>2022-04-08T08:51:47Z</time>
      </trkpt>
      <trkpt lat="43.1676" lon="5.88935">
        <ele>377.6</ele>
        <time>2022-04-08T08:52:01Z</time>
      </trkpt>
      <trkpt lat="43.16751" lon="5.89007">
        <ele>377.2</ele>
        <time>2022-04-08T08:52:08Z</time>
      </trkpt>
      <trkpt lat="43.16747" lon="5.89051">
        <ele>375.2</ele>
        <time>2022-04-08T08:52:12Z</time>
      </trkpt>
      <trkpt lat="43.16747" lon="5.89062">
        <ele>374.8</ele>
        <time>2022-04-08T08:52:13Z</time>
      </trkpt>
      <trkpt lat="43.16748" lon="5.89084">
        <ele>374</ele>
        <time>2022-04-08T08:52:15Z</time>
      </trkpt>
      <trkpt lat="43.16749" lon="5.89106">
        <ele>372.6</ele>
        <time>2022-04-08T08:52:17Z</time>
      </trkpt>
      <trkpt lat="43.16742" lon="5.89159">
        <ele>371.4</ele>
        <time>2022-04-08T08:52:22Z</time>
      </trkpt>
      <trkpt lat="43.1674" lon="5.89187">
        <ele>370</ele>
        <time>2022-04-08T08:52:25Z</time>
      </trkpt>
      <trkpt lat="43.16738" lon="5.89226">
        <ele>369.2</ele>
        <time>2022-04-08T08:52:31Z</time>
      </trkpt>
      <trkpt lat="43.1674" lon="5.89296">
        <ele>371</ele>
        <time>2022-04-08T08:52:46Z</time>
      </trkpt>
      <trkpt lat="43.16738" lon="5.89312">
        <ele>371.8</ele>
        <time>2022-04-08T08:52:50Z</time>
      </trkpt>
      <trkpt lat="43.16735" lon="5.8932">
        <ele>372.4</ele>
        <time>2022-04-08T08:52:52Z</time>
      </trkpt>
      <trkpt lat="43.16731" lon="5.89336">
        <ele>373.6</ele>
        <time>2022-04-08T08:52:56Z</time>
      </trkpt>
      <trkpt lat="43.16724" lon="5.89351">
        <ele>374.8</ele>
        <time>2022-04-08T08:53:00Z</time>
      </trkpt>
      <trkpt lat="43.16715" lon="5.89373">
        <ele>375.6</ele>
        <time>2022-04-08T08:53:06Z</time>
      </trkpt>
      <trkpt lat="43.16711" lon="5.89381">
        <ele>376</ele>
        <time>2022-04-08T08:53:08Z</time>
      </trkpt>
      <trkpt lat="43.16704" lon="5.89393">
        <ele>376.6</ele>
        <time>2022-04-08T08:53:11Z</time>
      </trkpt>
      <trkpt lat="43.16703" lon="5.89426">
        <ele>376.8</ele>
        <time>2022-04-08T08:53:17Z</time>
      </trkpt>
      <trkpt lat="43.16706" lon="5.89444">
        <ele>377</ele>
        <time>2022-04-08T08:53:20Z</time>
      </trkpt>
      <trkpt lat="43.16716" lon="5.89476">
        <ele>376.8</ele>
        <time>2022-04-08T08:53:25Z</time>
      </trkpt>
      <trkpt lat="43.16711" lon="5.89502">
        <ele>376.8</ele>
        <time>2022-04-08T08:53:29Z</time>
      </trkpt>
      <trkpt lat="43.16707" lon="5.89519">
        <ele>376.6</ele>
        <time>2022-04-08T08:53:32Z</time>
      </trkpt>
      <trkpt lat="43.16705" lon="5.89523">
        <ele>376.6</ele>
        <time>2022-04-08T08:53:33Z</time>
      </trkpt>
      <trkpt lat="43.16687" lon="5.89549">
        <ele>377.6</ele>
        <time>2022-04-08T08:53:42Z</time>
      </trkpt>
      <trkpt lat="43.16663" lon="5.89566">
        <ele>377.6</ele>
        <time>2022-04-08T08:53:48Z</time>
      </trkpt>
      <trkpt lat="43.16645" lon="5.89577">
        <ele>377.6</ele>
        <time>2022-04-08T08:53:51Z</time>
      </trkpt>
      <trkpt lat="43.16601" lon="5.89594">
        <ele>375.8</ele>
        <time>2022-04-08T08:53:57Z</time>
      </trkpt>
      <trkpt lat="43.16587" lon="5.89599">
        <ele>374.4</ele>
        <time>2022-04-08T08:53:59Z</time>
      </trkpt>
      <trkpt lat="43.16574" lon="5.89609">
        <ele>372.6</ele>
        <time>2022-04-08T08:54:01Z</time>
      </trkpt>
      <trkpt lat="43.16567" lon="5.89614">
        <ele>371.4</ele>
        <time>2022-04-08T08:54:02Z</time>
      </trkpt>
      <trkpt lat="43.16551" lon="5.89624">
        <ele>369.6</ele>
        <time>2022-04-08T08:54:04Z</time>
      </trkpt>
      <trkpt lat="43.16531" lon="5.89633">
        <ele>367.4</ele>
        <time>2022-04-08T08:54:06Z</time>
      </trkpt>
      <trkpt lat="43.1652" lon="5.89635">
        <ele>366.4</ele>
        <time>2022-04-08T08:54:07Z</time>
      </trkpt>
      <trkpt lat="43.165" lon="5.89635">
        <ele>364.6</ele>
        <time>2022-04-08T08:54:09Z</time>
      </trkpt>
      <trkpt lat="43.16481" lon="5.89632">
        <ele>363</ele>
        <time>2022-04-08T08:54:11Z</time>
      </trkpt>
      <trkpt lat="43.16471" lon="5.89633">
        <ele>362</ele>
        <time>2022-04-08T08:54:12Z</time>
      </trkpt>
      <trkpt lat="43.16462" lon="5.89634">
        <ele>361</ele>
        <time>2022-04-08T08:54:13Z</time>
      </trkpt>
      <trkpt lat="43.16454" lon="5.89635">
        <ele>360</ele>
        <time>2022-04-08T08:54:14Z</time>
      </trkpt>
      <trkpt lat="43.16436" lon="5.89638">
        <ele>357.2</ele>
        <time>2022-04-08T08:54:16Z</time>
      </trkpt>
      <trkpt lat="43.16421" lon="5.89641">
        <ele>355.6</ele>
        <time>2022-04-08T08:54:18Z</time>
      </trkpt>
      <trkpt lat="43.16415" lon="5.89643">
        <ele>354.8</ele>
        <time>2022-04-08T08:54:19Z</time>
      </trkpt>
      <trkpt lat="43.16408" lon="5.89646">
        <ele>354</ele>
        <time>2022-04-08T08:54:20Z</time>
      </trkpt>
      <trkpt lat="43.16393" lon="5.89653">
        <ele>353.2</ele>
        <time>2022-04-08T08:54:22Z</time>
      </trkpt>
      <trkpt lat="43.16332" lon="5.89667">
        <ele>352</ele>
        <time>2022-04-08T08:54:29Z</time>
      </trkpt>
      <trkpt lat="43.16314" lon="5.8967">
        <ele>350.8</ele>
        <time>2022-04-08T08:54:31Z</time>
      </trkpt>
      <trkpt lat="43.16295" lon="5.89672">
        <ele>349.2</ele>
        <time>2022-04-08T08:54:33Z</time>
      </trkpt>
      <trkpt lat="43.16285" lon="5.89673">
        <ele>348.2</ele>
        <time>2022-04-08T08:54:34Z</time>
      </trkpt>
      <trkpt lat="43.16274" lon="5.89672">
        <ele>347.4</ele>
        <time>2022-04-08T08:54:35Z</time>
      </trkpt>
      <trkpt lat="43.16264" lon="5.89672">
        <ele>346.8</ele>
        <time>2022-04-08T08:54:36Z</time>
      </trkpt>
      <trkpt lat="43.16255" lon="5.89668">
        <ele>345.8</ele>
        <time>2022-04-08T08:54:37Z</time>
      </trkpt>
      <trkpt lat="43.16239" lon="5.89655">
        <ele>344</ele>
        <time>2022-04-08T08:54:39Z</time>
      </trkpt>
      <trkpt lat="43.16223" lon="5.89645">
        <ele>342.4</ele>
        <time>2022-04-08T08:54:41Z</time>
      </trkpt>
      <trkpt lat="43.16215" lon="5.89643">
        <ele>341.2</ele>
        <time>2022-04-08T08:54:42Z</time>
      </trkpt>
      <trkpt lat="43.16201" lon="5.89643">
        <ele>339.6</ele>
        <time>2022-04-08T08:54:44Z</time>
      </trkpt>
      <trkpt lat="43.16181" lon="5.89659">
        <ele>338.6</ele>
        <time>2022-04-08T08:54:48Z</time>
      </trkpt>
      <trkpt lat="43.16148" lon="5.89654">
        <ele>337.4</ele>
        <time>2022-04-08T08:54:54Z</time>
      </trkpt>
      <trkpt lat="43.16136" lon="5.89654">
        <ele>336.4</ele>
        <time>2022-04-08T08:54:56Z</time>
      </trkpt>
      <trkpt lat="43.16125" lon="5.89663">
        <ele>335.2</ele>
        <time>2022-04-08T08:54:58Z</time>
      </trkpt>
      <trkpt lat="43.16114" lon="5.89674">
        <ele>333.6</ele>
        <time>2022-04-08T08:55:00Z</time>
      </trkpt>
      <trkpt lat="43.16102" lon="5.89681">
        <ele>331.8</ele>
        <time>2022-04-08T08:55:02Z</time>
      </trkpt>
      <trkpt lat="43.16089" lon="5.89691">
        <ele>330.2</ele>
        <time>2022-04-08T08:55:04Z</time>
      </trkpt>
      <trkpt lat="43.16075" lon="5.89701">
        <ele>328.6</ele>
        <time>2022-04-08T08:55:06Z</time>
      </trkpt>
      <trkpt lat="43.16062" lon="5.8971">
        <ele>327</ele>
        <time>2022-04-08T08:55:08Z</time>
      </trkpt>
      <trkpt lat="43.16051" lon="5.89718">
        <ele>326</ele>
        <time>2022-04-08T08:55:10Z</time>
      </trkpt>
      <trkpt lat="43.16038" lon="5.89726">
        <ele>324.4</ele>
        <time>2022-04-08T08:55:12Z</time>
      </trkpt>
      <trkpt lat="43.16024" lon="5.89735">
        <ele>322.6</ele>
        <time>2022-04-08T08:55:14Z</time>
      </trkpt>
      <trkpt lat="43.16018" lon="5.89738">
        <ele>322</ele>
        <time>2022-04-08T08:55:15Z</time>
      </trkpt>
      <trkpt lat="43.16014" lon="5.89738">
        <ele>321</ele>
        <time>2022-04-08T08:55:16Z</time>
      </trkpt>
      <trkpt lat="43.16009" lon="5.8973">
        <ele>319</ele>
        <time>2022-04-08T08:55:18Z</time>
      </trkpt>
      <trkpt lat="43.16006" lon="5.89715">
        <ele>317.6</ele>
        <time>2022-04-08T08:55:20Z</time>
      </trkpt>
      <trkpt lat="43.16005" lon="5.89707">
        <ele>317.2</ele>
        <time>2022-04-08T08:55:21Z</time>
      </trkpt>
      <trkpt lat="43.16003" lon="5.89699">
        <ele>316.6</ele>
        <time>2022-04-08T08:55:22Z</time>
      </trkpt>
      <trkpt lat="43.16" lon="5.89683">
        <ele>315</ele>
        <time>2022-04-08T08:55:24Z</time>
      </trkpt>
      <trkpt lat="43.15997" lon="5.89675">
        <ele>313.6</ele>
        <time>2022-04-08T08:55:25Z</time>
      </trkpt>
      <trkpt lat="43.15995" lon="5.89668">
        <ele>313</ele>
        <time>2022-04-08T08:55:26Z</time>
      </trkpt>
      <trkpt lat="43.15992" lon="5.89664">
        <ele>312.2</ele>
        <time>2022-04-08T08:55:27Z</time>
      </trkpt>
      <trkpt lat="43.15984" lon="5.89661">
        <ele>310.8</ele>
        <time>2022-04-08T08:55:29Z</time>
      </trkpt>
      <trkpt lat="43.15976" lon="5.89666">
        <ele>308.6</ele>
        <time>2022-04-08T08:55:31Z</time>
      </trkpt>
      <trkpt lat="43.15972" lon="5.89671">
        <ele>307.6</ele>
        <time>2022-04-08T08:55:32Z</time>
      </trkpt>
      <trkpt lat="43.15969" lon="5.89676">
        <ele>306.6</ele>
        <time>2022-04-08T08:55:33Z</time>
      </trkpt>
      <trkpt lat="43.15963" lon="5.89686">
        <ele>304.6</ele>
        <time>2022-04-08T08:55:35Z</time>
      </trkpt>
      <trkpt lat="43.15962" lon="5.8969">
        <ele>303.2</ele>
        <time>2022-04-08T08:55:36Z</time>
      </trkpt>
      <trkpt lat="43.15961" lon="5.89692">
        <ele>302</ele>
        <time>2022-04-08T08:55:37Z</time>
      </trkpt>
      <trkpt lat="43.1596" lon="5.89693">
        <ele>300.6</ele>
        <time>2022-04-08T08:55:38Z</time>
      </trkpt>
      <trkpt lat="43.15959" lon="5.89692">
        <ele>299</ele>
        <time>2022-04-08T08:55:39Z</time>
      </trkpt>
      <trkpt lat="43.15959" lon="5.89689">
        <ele>297.6</ele>
        <time>2022-04-08T08:55:40Z</time>
      </trkpt>
      <trkpt lat="43.15958" lon="5.89685">
        <ele>296.2</ele>
        <time>2022-04-08T08:55:41Z</time>
      </trkpt>
      <trkpt lat="43.15958" lon="5.89682">
        <ele>294.6</ele>
        <time>2022-04-08T08:55:42Z</time>
      </trkpt>
      <trkpt lat="43.15957" lon="5.89678">
        <ele>293.2</ele>
        <time>2022-04-08T08:55:43Z</time>
      </trkpt>
      <trkpt lat="43.15956" lon="5.89675">
        <ele>292.2</ele>
        <time>2022-04-08T08:55:44Z</time>
      </trkpt>
      <trkpt lat="43.15954" lon="5.8967">
        <ele>290.8</ele>
        <time>2022-04-08T08:55:46Z</time>
      </trkpt>
      <trkpt lat="43.15952" lon="5.89663">
        <ele>289.4</ele>
        <time>2022-04-08T08:55:49Z</time>
      </trkpt>
      <trkpt lat="43.15951" lon="5.89662">
        <ele>288.8</ele>
        <time>2022-04-08T08:55:50Z</time>
      </trkpt>
      <trkpt lat="43.15949" lon="5.8966">
        <ele>288</ele>
        <time>2022-04-08T08:55:51Z</time>
      </trkpt>
      <trkpt lat="43.15945" lon="5.89655">
        <ele>287</ele>
        <time>2022-04-08T08:55:53Z</time>
      </trkpt>
      <trkpt lat="43.15942" lon="5.8965">
        <ele>285.6</ele>
        <time>2022-04-08T08:55:55Z</time>
      </trkpt>
      <trkpt lat="43.15935" lon="5.8964">
        <ele>284.2</ele>
        <time>2022-04-08T08:55:58Z</time>
      </trkpt>
      <trkpt lat="43.15935" lon="5.89635">
        <ele>282.4</ele>
        <time>2022-04-08T08:55:59Z</time>
      </trkpt>
      <trkpt lat="43.15936" lon="5.89624">
        <ele>280.6</ele>
        <time>2022-04-08T08:56:01Z</time>
      </trkpt>
      <trkpt lat="43.15934" lon="5.89613">
        <ele>278.8</ele>
        <time>2022-04-08T08:56:03Z</time>
      </trkpt>
      <trkpt lat="43.15931" lon="5.89606">
        <ele>277.2</ele>
        <time>2022-04-08T08:56:05Z</time>
      </trkpt>
      <trkpt lat="43.15926" lon="5.89601">
        <ele>275.4</ele>
        <time>2022-04-08T08:56:07Z</time>
      </trkpt>
      <trkpt lat="43.15919" lon="5.89598">
        <ele>274</ele>
        <time>2022-04-08T08:56:09Z</time>
      </trkpt>
      <trkpt lat="43.1591" lon="5.89598">
        <ele>272.2</ele>
        <time>2022-04-08T08:56:11Z</time>
      </trkpt>
      <trkpt lat="43.15905" lon="5.89597">
        <ele>271.4</ele>
        <time>2022-04-08T08:56:12Z</time>
      </trkpt>
      <trkpt lat="43.15899" lon="5.89596">
        <ele>271</ele>
        <time>2022-04-08T08:56:13Z</time>
      </trkpt>
      <trkpt lat="43.15888" lon="5.89593">
        <ele>269.8</ele>
        <time>2022-04-08T08:56:15Z</time>
      </trkpt>
      <trkpt lat="43.15878" lon="5.8959">
        <ele>268.6</ele>
        <time>2022-04-08T08:56:17Z</time>
      </trkpt>
      <trkpt lat="43.15865" lon="5.89584">
        <ele>267</ele>
        <time>2022-04-08T08:56:20Z</time>
      </trkpt>
      <trkpt lat="43.15858" lon="5.89583">
        <ele>265.6</ele>
        <time>2022-04-08T08:56:22Z</time>
      </trkpt>
      <trkpt lat="43.15854" lon="5.89583">
        <ele>265.2</ele>
        <time>2022-04-08T08:56:23Z</time>
      </trkpt>
      <trkpt lat="43.15833" lon="5.89586">
        <ele>264.8</ele>
        <time>2022-04-08T08:56:27Z</time>
      </trkpt>
      <trkpt lat="43.15829" lon="5.89587">
        <ele>264.8</ele>
        <time>2022-04-08T08:56:28Z</time>
      </trkpt>
      <trkpt lat="43.15814" lon="5.89589">
        <ele>264.6</ele>
        <time>2022-04-08T08:56:31Z</time>
      </trkpt>
      <trkpt lat="43.15805" lon="5.89587">
        <ele>262.4</ele>
        <time>2022-04-08T08:56:33Z</time>
      </trkpt>
      <trkpt lat="43.158" lon="5.89587">
        <ele>261.6</ele>
        <time>2022-04-08T08:56:34Z</time>
      </trkpt>
      <trkpt lat="43.15795" lon="5.89586">
        <ele>260.6</ele>
        <time>2022-04-08T08:56:35Z</time>
      </trkpt>
      <trkpt lat="43.1579" lon="5.89585">
        <ele>260</ele>
        <time>2022-04-08T08:56:36Z</time>
      </trkpt>
      <trkpt lat="43.15785" lon="5.89583">
        <ele>259.2</ele>
        <time>2022-04-08T08:56:37Z</time>
      </trkpt>
      <trkpt lat="43.15781" lon="5.89582">
        <ele>258.2</ele>
        <time>2022-04-08T08:56:38Z</time>
      </trkpt>
      <trkpt lat="43.15774" lon="5.89578">
        <ele>256.2</ele>
        <time>2022-04-08T08:56:40Z</time>
      </trkpt>
      <trkpt lat="43.15768" lon="5.8958">
        <ele>255</ele>
        <time>2022-04-08T08:56:42Z</time>
      </trkpt>
      <trkpt lat="43.1576" lon="5.89581">
        <ele>253.8</ele>
        <time>2022-04-08T08:56:44Z</time>
      </trkpt>
      <trkpt lat="43.15753" lon="5.89581">
        <ele>252.8</ele>
        <time>2022-04-08T08:56:46Z</time>
      </trkpt>
      <trkpt lat="43.15746" lon="5.89578">
        <ele>251.4</ele>
        <time>2022-04-08T08:56:48Z</time>
      </trkpt>
      <trkpt lat="43.15739" lon="5.89577">
        <ele>250</ele>
        <time>2022-04-08T08:56:50Z</time>
      </trkpt>
      <trkpt lat="43.15732" lon="5.89581">
        <ele>248.6</ele>
        <time>2022-04-08T08:56:52Z</time>
      </trkpt>
      <trkpt lat="43.15727" lon="5.89584">
        <ele>247.2</ele>
        <time>2022-04-08T08:56:54Z</time>
      </trkpt>
      <trkpt lat="43.15724" lon="5.89585">
        <ele>246</ele>
        <time>2022-04-08T08:56:55Z</time>
      </trkpt>
      <trkpt lat="43.15721" lon="5.89586">
        <ele>245</ele>
        <time>2022-04-08T08:56:56Z</time>
      </trkpt>
      <trkpt lat="43.15718" lon="5.89588">
        <ele>243.8</ele>
        <time>2022-04-08T08:56:57Z</time>
      </trkpt>
      <trkpt lat="43.15713" lon="5.89594">
        <ele>242</ele>
        <time>2022-04-08T08:56:59Z</time>
      </trkpt>
      <trkpt lat="43.15712" lon="5.89597">
        <ele>241</ele>
        <time>2022-04-08T08:57:00Z</time>
      </trkpt>
      <trkpt lat="43.15712" lon="5.89602">
        <ele>240.2</ele>
        <time>2022-04-08T08:57:01Z</time>
      </trkpt>
      <trkpt lat="43.1571" lon="5.8961">
        <ele>238.6</ele>
        <time>2022-04-08T08:57:03Z</time>
      </trkpt>
      <trkpt lat="43.15706" lon="5.89613">
        <ele>237</ele>
        <time>2022-04-08T08:57:05Z</time>
      </trkpt>
      <trkpt lat="43.157" lon="5.89617">
        <ele>235.4</ele>
        <time>2022-04-08T08:57:07Z</time>
      </trkpt>
      <trkpt lat="43.15698" lon="5.89619">
        <ele>234.2</ele>
        <time>2022-04-08T08:57:08Z</time>
      </trkpt>
      <trkpt lat="43.15691" lon="5.89624">
        <ele>232.6</ele>
        <time>2022-04-08T08:57:11Z</time>
      </trkpt>
      <trkpt lat="43.15688" lon="5.89626">
        <ele>232</ele>
        <time>2022-04-08T08:57:12Z</time>
      </trkpt>
      <trkpt lat="43.15686" lon="5.89629">
        <ele>231.2</ele>
        <time>2022-04-08T08:57:13Z</time>
      </trkpt>
      <trkpt lat="43.15683" lon="5.89634">
        <ele>229.8</ele>
        <time>2022-04-08T08:57:15Z</time>
      </trkpt>
      <trkpt lat="43.15677" lon="5.89635">
        <ele>228.4</ele>
        <time>2022-04-08T08:57:17Z</time>
      </trkpt>
      <trkpt lat="43.1567" lon="5.89633">
        <ele>226.8</ele>
        <time>2022-04-08T08:57:19Z</time>
      </trkpt>
      <trkpt lat="43.15664" lon="5.89627">
        <ele>225.2</ele>
        <time>2022-04-08T08:57:21Z</time>
      </trkpt>
      <trkpt lat="43.15659" lon="5.89623">
        <ele>223.8</ele>
        <time>2022-04-08T08:57:23Z</time>
      </trkpt>
      <trkpt lat="43.15656" lon="5.89622">
        <ele>222.8</ele>
        <time>2022-04-08T08:57:25Z</time>
      </trkpt>
      <trkpt lat="43.15654" lon="5.89624">
        <ele>221.6</ele>
        <time>2022-04-08T08:57:27Z</time>
      </trkpt>
      <trkpt lat="43.15653" lon="5.89626">
        <ele>221</ele>
        <time>2022-04-08T08:57:28Z</time>
      </trkpt>
      <trkpt lat="43.15652" lon="5.89631">
        <ele>220.2</ele>
        <time>2022-04-08T08:57:30Z</time>
      </trkpt>
      <trkpt lat="43.15653" lon="5.89636">
        <ele>219.2</ele>
        <time>2022-04-08T08:57:32Z</time>
      </trkpt>
      <trkpt lat="43.15654" lon="5.89639">
        <ele>218.6</ele>
        <time>2022-04-08T08:57:33Z</time>
      </trkpt>
      <trkpt lat="43.15656" lon="5.89645">
        <ele>217.6</ele>
        <time>2022-04-08T08:57:35Z</time>
      </trkpt>
      <trkpt lat="43.15656" lon="5.89647">
        <ele>217.4</ele>
        <time>2022-04-08T08:57:36Z</time>
      </trkpt>
      <trkpt lat="43.15655" lon="5.89648">
        <ele>217</ele>
        <time>2022-04-08T08:57:37Z</time>
      </trkpt>
      <trkpt lat="43.15652" lon="5.89652">
        <ele>216.4</ele>
        <time>2022-04-08T08:57:40Z</time>
      </trkpt>
      <trkpt lat="43.15651" lon="5.89655">
        <ele>216.2</ele>
        <time>2022-04-08T08:57:42Z</time>
      </trkpt>
      <trkpt lat="43.15651" lon="5.8967">
        <ele>215.2</ele>
        <time>2022-04-08T08:57:47Z</time>
      </trkpt>
      <trkpt lat="43.15647" lon="5.89678">
        <ele>213.8</ele>
        <time>2022-04-08T08:57:50Z</time>
      </trkpt>
      <trkpt lat="43.15641" lon="5.89676">
        <ele>213</ele>
        <time>2022-04-08T08:57:54Z</time>
      </trkpt>
      <trkpt lat="43.1564" lon="5.89675">
        <ele>212.6</ele>
        <time>2022-04-08T08:57:55Z</time>
      </trkpt>
      <trkpt lat="43.15637" lon="5.89676">
        <ele>211</ele>
        <time>2022-04-08T08:57:58Z</time>
      </trkpt>
      <trkpt lat="43.15633" lon="5.89679">
        <ele>209.8</ele>
        <time>2022-04-08T08:58:01Z</time>
      </trkpt>
      <trkpt lat="43.15629" lon="5.89678">
        <ele>209.4</ele>
        <time>2022-04-08T08:58:03Z</time>
      </trkpt>
      <trkpt lat="43.15622" lon="5.89678">
        <ele>208.8</ele>
        <time>2022-04-08T08:58:07Z</time>
      </trkpt>
      <trkpt lat="43.15617" lon="5.89681">
        <ele>207.2</ele>
        <time>2022-04-08T08:58:10Z</time>
      </trkpt>
      <trkpt lat="43.15614" lon="5.89681">
        <ele>206.6</ele>
        <time>2022-04-08T08:58:12Z</time>
      </trkpt>
      <trkpt lat="43.15613" lon="5.8968">
        <ele>206</ele>
        <time>2022-04-08T08:58:13Z</time>
      </trkpt>
      <trkpt lat="43.15611" lon="5.8968">
        <ele>205.6</ele>
        <time>2022-04-08T08:58:14Z</time>
      </trkpt>
      <trkpt lat="43.15608" lon="5.89678">
        <ele>205.2</ele>
        <time>2022-04-08T08:58:16Z</time>
      </trkpt>
      <trkpt lat="43.15603" lon="5.89677">
        <ele>203.8</ele>
        <time>2022-04-08T08:58:18Z</time>
      </trkpt>
      <trkpt lat="43.15602" lon="5.89675">
        <ele>203.4</ele>
        <time>2022-04-08T08:58:19Z</time>
      </trkpt>
      <trkpt lat="43.15602" lon="5.89672">
        <ele>202.6</ele>
        <time>2022-04-08T08:58:21Z</time>
      </trkpt>
      <trkpt lat="43.15604" lon="5.89668">
        <ele>201.8</ele>
        <time>2022-04-08T08:58:23Z</time>
      </trkpt>
      <trkpt lat="43.15605" lon="5.89667">
        <ele>201.4</ele>
        <time>2022-04-08T08:58:24Z</time>
      </trkpt>
      <trkpt lat="43.15607" lon="5.8966">
        <ele>200.4</ele>
        <time>2022-04-08T08:58:28Z</time>
      </trkpt>
      <trkpt lat="43.15618" lon="5.89632">
        <ele>201.4</ele>
        <time>2022-04-08T08:58:43Z</time>
      </trkpt>
      <trkpt lat="43.15625" lon="5.89619">
        <ele>202.6</ele>
        <time>2022-04-08T08:58:50Z</time>
      </trkpt>
      <trkpt lat="43.15629" lon="5.89612">
        <ele>203.6</ele>
        <time>2022-04-08T08:58:54Z</time>
      </trkpt>
      <trkpt lat="43.15635" lon="5.89597">
        <ele>204.8</ele>
        <time>2022-04-08T08:59:02Z</time>
      </trkpt>
      <trkpt lat="43.15642" lon="5.89583">
        <ele>206</ele>
        <time>2022-04-08T08:59:09Z</time>
      </trkpt>
      <trkpt lat="43.15647" lon="5.89572">
        <ele>207</ele>
        <time>2022-04-08T08:59:15Z</time>
      </trkpt>
      <trkpt lat="43.15649" lon="5.89569">
        <ele>207.4</ele>
        <time>2022-04-08T08:59:17Z</time>
      </trkpt>
      <trkpt lat="43.15654" lon="5.89561">
        <ele>208</ele>
        <time>2022-04-08T08:59:21Z</time>
      </trkpt>
      <trkpt lat="43.15659" lon="5.89552">
        <ele>209.4</ele>
        <time>2022-04-08T08:59:26Z</time>
      </trkpt>
      <trkpt lat="43.15667" lon="5.89541">
        <ele>210.4</ele>
        <time>2022-04-08T08:59:33Z</time>
      </trkpt>
      <trkpt lat="43.1567" lon="5.89539">
        <ele>210.8</ele>
        <time>2022-04-08T08:59:35Z</time>
      </trkpt>
      <trkpt lat="43.15676" lon="5.89533">
        <ele>211.6</ele>
        <time>2022-04-08T08:59:39Z</time>
      </trkpt>
      <trkpt lat="43.1568" lon="5.89527">
        <ele>212.2</ele>
        <time>2022-04-08T08:59:42Z</time>
      </trkpt>
      <trkpt lat="43.15684" lon="5.89522">
        <ele>212.8</ele>
        <time>2022-04-08T08:59:45Z</time>
      </trkpt>
      <trkpt lat="43.15691" lon="5.89514">
        <ele>214</ele>
        <time>2022-04-08T08:59:50Z</time>
      </trkpt>
      <trkpt lat="43.15698" lon="5.89505">
        <ele>215</ele>
        <time>2022-04-08T08:59:55Z</time>
      </trkpt>
      <trkpt lat="43.15701" lon="5.89494">
        <ele>216.4</ele>
        <time>2022-04-08T09:00:00Z</time>
      </trkpt>
      <trkpt lat="43.15703" lon="5.89483">
        <ele>217.4</ele>
        <time>2022-04-08T09:00:05Z</time>
      </trkpt>
      <trkpt lat="43.15703" lon="5.8948">
        <ele>217.6</ele>
        <time>2022-04-08T09:00:06Z</time>
      </trkpt>
      <trkpt lat="43.15699" lon="5.89475">
        <ele>218.4</ele>
        <time>2022-04-08T09:00:09Z</time>
      </trkpt>
      <trkpt lat="43.15698" lon="5.89475">
        <ele>218.6</ele>
        <time>2022-04-08T09:00:10Z</time>
      </trkpt>
      <trkpt lat="43.15693" lon="5.89474">
        <ele>219.4</ele>
        <time>2022-04-08T09:00:13Z</time>
      </trkpt>
      <trkpt lat="43.15683" lon="5.89471">
        <ele>220.4</ele>
        <time>2022-04-08T09:00:18Z</time>
      </trkpt>
      <trkpt lat="43.15666" lon="5.89458">
        <ele>221.6</ele>
        <time>2022-04-08T09:00:27Z</time>
      </trkpt>
      <trkpt lat="43.15656" lon="5.8945">
        <ele>222.6</ele>
        <time>2022-04-08T09:00:32Z</time>
      </trkpt>
      <trkpt lat="43.1565" lon="5.89446">
        <ele>223.8</ele>
        <time>2022-04-08T09:00:35Z</time>
      </trkpt>
      <trkpt lat="43.15641" lon="5.89437">
        <ele>224.8</ele>
        <time>2022-04-08T09:00:40Z</time>
      </trkpt>
      <trkpt lat="43.15631" lon="5.8943">
        <ele>226</ele>
        <time>2022-04-08T09:00:45Z</time>
      </trkpt>
      <trkpt lat="43.15622" lon="5.89421">
        <ele>227.2</ele>
        <time>2022-04-08T09:00:50Z</time>
      </trkpt>
      <trkpt lat="43.15615" lon="5.89414">
        <ele>228.2</ele>
        <time>2022-04-08T09:00:54Z</time>
      </trkpt>
      <trkpt lat="43.15607" lon="5.89402">
        <ele>229.4</ele>
        <time>2022-04-08T09:01:00Z</time>
      </trkpt>
      <trkpt lat="43.15602" lon="5.89387">
        <ele>230.6</ele>
        <time>2022-04-08T09:01:06Z</time>
      </trkpt>
      <trkpt lat="43.15602" lon="5.89374">
        <ele>231.8</ele>
        <time>2022-04-08T09:01:11Z</time>
      </trkpt>
      <trkpt lat="43.15604" lon="5.89358">
        <ele>233</ele>
        <time>2022-04-08T09:01:17Z</time>
      </trkpt>
      <trkpt lat="43.15606" lon="5.89342">
        <ele>234.2</ele>
        <time>2022-04-08T09:01:23Z</time>
      </trkpt>
      <trkpt lat="43.15609" lon="5.89329">
        <ele>234.6</ele>
        <time>2022-04-08T09:01:28Z</time>
      </trkpt>
      <trkpt lat="43.15612" lon="5.89322">
        <ele>235.2</ele>
        <time>2022-04-08T09:01:31Z</time>
      </trkpt>
      <trkpt lat="43.15618" lon="5.89306">
        <ele>236.4</ele>
        <time>2022-04-08T09:01:37Z</time>
      </trkpt>
      <trkpt lat="43.15622" lon="5.89296">
        <ele>237.6</ele>
        <time>2022-04-08T09:01:41Z</time>
      </trkpt>
      <trkpt lat="43.15627" lon="5.89286">
        <ele>238.8</ele>
        <time>2022-04-08T09:01:45Z</time>
      </trkpt>
      <trkpt lat="43.15633" lon="5.89278">
        <ele>239.8</ele>
        <time>2022-04-08T09:01:49Z</time>
      </trkpt>
      <trkpt lat="43.15638" lon="5.8927">
        <ele>240.8</ele>
        <time>2022-04-08T09:01:53Z</time>
      </trkpt>
      <trkpt lat="43.15644" lon="5.8926">
        <ele>242</ele>
        <time>2022-04-08T09:01:58Z</time>
      </trkpt>
      <trkpt lat="43.15651" lon="5.89246">
        <ele>243.2</ele>
        <time>2022-04-08T09:02:04Z</time>
      </trkpt>
      <trkpt lat="43.15657" lon="5.89235">
        <ele>244.4</ele>
        <time>2022-04-08T09:02:09Z</time>
      </trkpt>
      <trkpt lat="43.15662" lon="5.89223">
        <ele>245.6</ele>
        <time>2022-04-08T09:02:14Z</time>
      </trkpt>
      <trkpt lat="43.1567" lon="5.89205">
        <ele>246.8</ele>
        <time>2022-04-08T09:02:21Z</time>
      </trkpt>
      <trkpt lat="43.15678" lon="5.89191">
        <ele>247.8</ele>
        <time>2022-04-08T09:02:27Z</time>
      </trkpt>
      <trkpt lat="43.15685" lon="5.89181">
        <ele>249</ele>
        <time>2022-04-08T09:02:32Z</time>
      </trkpt>
      <trkpt lat="43.15691" lon="5.89169">
        <ele>250.4</ele>
        <time>2022-04-08T09:02:37Z</time>
      </trkpt>
      <trkpt lat="43.15699" lon="5.89155">
        <ele>251.4</ele>
        <time>2022-04-08T09:02:43Z</time>
      </trkpt>
      <trkpt lat="43.15707" lon="5.89136">
        <ele>252.6</ele>
        <time>2022-04-08T09:02:50Z</time>
      </trkpt>
      <trkpt lat="43.15713" lon="5.89121">
        <ele>253.8</ele>
        <time>2022-04-08T09:02:56Z</time>
      </trkpt>
      <trkpt lat="43.15711" lon="5.89112">
        <ele>254.8</ele>
        <time>2022-04-08T09:02:59Z</time>
      </trkpt>
      <trkpt lat="43.15703" lon="5.89102">
        <ele>256</ele>
        <time>2022-04-08T09:03:03Z</time>
      </trkpt>
      <trkpt lat="43.15685" lon="5.89086">
        <ele>256.8</ele>
        <time>2022-04-08T09:03:10Z</time>
      </trkpt>
      <trkpt lat="43.15672" lon="5.8908">
        <ele>257.2</ele>
        <time>2022-04-08T09:03:14Z</time>
      </trkpt>
      <trkpt lat="43.15655" lon="5.89077">
        <ele>257.6</ele>
        <time>2022-04-08T09:03:19Z</time>
      </trkpt>
      <trkpt lat="43.15627" lon="5.89073">
        <ele>258.4</ele>
        <time>2022-04-08T09:03:28Z</time>
      </trkpt>
      <trkpt lat="43.15609" lon="5.89072">
        <ele>259.4</ele>
        <time>2022-04-08T09:03:34Z</time>
      </trkpt>
      <trkpt lat="43.15594" lon="5.89072">
        <ele>260.6</ele>
        <time>2022-04-08T09:03:40Z</time>
      </trkpt>
      <trkpt lat="43.15582" lon="5.89071">
        <ele>261.8</ele>
        <time>2022-04-08T09:03:45Z</time>
      </trkpt>
      <trkpt lat="43.15567" lon="5.89067">
        <ele>263</ele>
        <time>2022-04-08T09:03:50Z</time>
      </trkpt>
      <trkpt lat="43.15552" lon="5.89058">
        <ele>263.8</ele>
        <time>2022-04-08T09:03:56Z</time>
      </trkpt>
      <trkpt lat="43.15545" lon="5.8905">
        <ele>265</ele>
        <time>2022-04-08T09:04:00Z</time>
      </trkpt>
      <trkpt lat="43.15543" lon="5.89041">
        <ele>266</ele>
        <time>2022-04-08T09:04:03Z</time>
      </trkpt>
      <trkpt lat="43.15543" lon="5.89029">
        <ele>267</ele>
        <time>2022-04-08T09:04:07Z</time>
      </trkpt>
      <trkpt lat="43.15545" lon="5.89014">
        <ele>268.2</ele>
        <time>2022-04-08T09:04:12Z</time>
      </trkpt>
      <trkpt lat="43.15546" lon="5.89002">
        <ele>269.2</ele>
        <time>2022-04-08T09:04:16Z</time>
      </trkpt>
      <trkpt lat="43.15547" lon="5.8899">
        <ele>270.4</ele>
        <time>2022-04-08T09:04:20Z</time>
      </trkpt>
      <trkpt lat="43.15547" lon="5.88975">
        <ele>271.4</ele>
        <time>2022-04-08T09:04:25Z</time>
      </trkpt>
      <trkpt lat="43.15547" lon="5.88955">
        <ele>272.6</ele>
        <time>2022-04-08T09:04:31Z</time>
      </trkpt>
      <trkpt lat="43.15546" lon="5.8894">
        <ele>273.8</ele>
        <time>2022-04-08T09:04:36Z</time>
      </trkpt>
      <trkpt lat="43.15539" lon="5.88913">
        <ele>275</ele>
        <time>2022-04-08T09:04:44Z</time>
      </trkpt>
      <trkpt lat="43.1553" lon="5.8889">
        <ele>276.2</ele>
        <time>2022-04-08T09:04:51Z</time>
      </trkpt>
      <trkpt lat="43.15521" lon="5.8887">
        <ele>277.2</ele>
        <time>2022-04-08T09:04:58Z</time>
      </trkpt>
      <trkpt lat="43.15514" lon="5.88857">
        <ele>278.4</ele>
        <time>2022-04-08T09:05:03Z</time>
      </trkpt>
      <trkpt lat="43.15506" lon="5.88845">
        <ele>279.4</ele>
        <time>2022-04-08T09:05:08Z</time>
      </trkpt>
      <trkpt lat="43.15498" lon="5.88837">
        <ele>280.6</ele>
        <time>2022-04-08T09:05:12Z</time>
      </trkpt>
      <trkpt lat="43.15488" lon="5.88828">
        <ele>282</ele>
        <time>2022-04-08T09:05:17Z</time>
      </trkpt>
      <trkpt lat="43.15481" lon="5.88821">
        <ele>283</ele>
        <time>2022-04-08T09:05:21Z</time>
      </trkpt>
      <trkpt lat="43.15474" lon="5.88812">
        <ele>284</ele>
        <time>2022-04-08T09:05:25Z</time>
      </trkpt>
      <trkpt lat="43.15465" lon="5.88802">
        <ele>285.2</ele>
        <time>2022-04-08T09:05:30Z</time>
      </trkpt>
      <trkpt lat="43.15456" lon="5.88791">
        <ele>286.2</ele>
        <time>2022-04-08T09:05:35Z</time>
      </trkpt>
      <trkpt lat="43.15449" lon="5.88779">
        <ele>287.2</ele>
        <time>2022-04-08T09:05:40Z</time>
      </trkpt>
      <trkpt lat="43.15444" lon="5.88768">
        <ele>288.6</ele>
        <time>2022-04-08T09:05:44Z</time>
      </trkpt>
      <trkpt lat="43.15439" lon="5.88753">
        <ele>289.6</ele>
        <time>2022-04-08T09:05:49Z</time>
      </trkpt>
      <trkpt lat="43.15447" lon="5.88734">
        <ele>290.6</ele>
        <time>2022-04-08T09:05:56Z</time>
      </trkpt>
      <trkpt lat="43.1546" lon="5.88728">
        <ele>291.6</ele>
        <time>2022-04-08T09:06:02Z</time>
      </trkpt>
      <trkpt lat="43.1549" lon="5.88718">
        <ele>292.6</ele>
        <time>2022-04-08T09:06:13Z</time>
      </trkpt>
      <trkpt lat="43.15503" lon="5.88714">
        <ele>293.8</ele>
        <time>2022-04-08T09:06:18Z</time>
      </trkpt>
      <trkpt lat="43.15524" lon="5.88705">
        <ele>294.8</ele>
        <time>2022-04-08T09:06:27Z</time>
      </trkpt>
      <trkpt lat="43.15537" lon="5.88702">
        <ele>295.8</ele>
        <time>2022-04-08T09:06:32Z</time>
      </trkpt>
      <trkpt lat="43.15544" lon="5.887">
        <ele>297</ele>
        <time>2022-04-08T09:06:35Z</time>
      </trkpt>
      <trkpt lat="43.15561" lon="5.88691">
        <ele>298</ele>
        <time>2022-04-08T09:06:43Z</time>
      </trkpt>
      <trkpt lat="43.15577" lon="5.88678">
        <ele>299.2</ele>
        <time>2022-04-08T09:06:51Z</time>
      </trkpt>
      <trkpt lat="43.15584" lon="5.88671">
        <ele>300.2</ele>
        <time>2022-04-08T09:06:55Z</time>
      </trkpt>
      <trkpt lat="43.15593" lon="5.88661">
        <ele>301.4</ele>
        <time>2022-04-08T09:07:00Z</time>
      </trkpt>
      <trkpt lat="43.15611" lon="5.88648">
        <ele>302.4</ele>
        <time>2022-04-08T09:07:09Z</time>
      </trkpt>
      <trkpt lat="43.15622" lon="5.88642">
        <ele>303.4</ele>
        <time>2022-04-08T09:07:14Z</time>
      </trkpt>
      <trkpt lat="43.15629" lon="5.8864">
        <ele>304.6</ele>
        <time>2022-04-08T09:07:17Z</time>
      </trkpt>
      <trkpt lat="43.15633" lon="5.88639">
        <ele>305.8</ele>
        <time>2022-04-08T09:07:19Z</time>
      </trkpt>
      <trkpt lat="43.15644" lon="5.88634">
        <ele>306.8</ele>
        <time>2022-04-08T09:07:24Z</time>
      </trkpt>
      <trkpt lat="43.15662" lon="5.88629">
        <ele>307.8</ele>
        <time>2022-04-08T09:07:32Z</time>
      </trkpt>
      <trkpt lat="43.15682" lon="5.88624">
        <ele>308.8</ele>
        <time>2022-04-08T09:07:41Z</time>
      </trkpt>
      <trkpt lat="43.15691" lon="5.88624">
        <ele>310</ele>
        <time>2022-04-08T09:07:45Z</time>
      </trkpt>
      <trkpt lat="43.15702" lon="5.88626">
        <ele>311</ele>
        <time>2022-04-08T09:07:50Z</time>
      </trkpt>
      <trkpt lat="43.15713" lon="5.88627">
        <ele>312.2</ele>
        <time>2022-04-08T09:07:55Z</time>
      </trkpt>
      <trkpt lat="43.15721" lon="5.88632">
        <ele>313.4</ele>
        <time>2022-04-08T09:07:59Z</time>
      </trkpt>
      <trkpt lat="43.15729" lon="5.88637">
        <ele>314.6</ele>
        <time>2022-04-08T09:08:03Z</time>
      </trkpt>
      <trkpt lat="43.15736" lon="5.88643">
        <ele>315.8</ele>
        <time>2022-04-08T09:08:07Z</time>
      </trkpt>
      <trkpt lat="43.15746" lon="5.8865">
        <ele>316.8</ele>
        <time>2022-04-08T09:08:12Z</time>
      </trkpt>
      <trkpt lat="43.15754" lon="5.88654">
        <ele>318</ele>
        <time>2022-04-08T09:08:16Z</time>
      </trkpt>
      <trkpt lat="43.15763" lon="5.8866">
        <ele>319</ele>
        <time>2022-04-08T09:08:21Z</time>
      </trkpt>
      <trkpt lat="43.15776" lon="5.88666">
        <ele>320.2</ele>
        <time>2022-04-08T09:08:27Z</time>
      </trkpt>
      <trkpt lat="43.15784" lon="5.88671">
        <ele>321.2</ele>
        <time>2022-04-08T09:08:31Z</time>
      </trkpt>
      <trkpt lat="43.15794" lon="5.88676">
        <ele>322.4</ele>
        <time>2022-04-08T09:08:36Z</time>
      </trkpt>
      <trkpt lat="43.158" lon="5.88683">
        <ele>323.2</ele>
        <time>2022-04-08T09:08:40Z</time>
      </trkpt>
      <trkpt lat="43.15802" lon="5.88685">
        <ele>323.4</ele>
        <time>2022-04-08T09:08:41Z</time>
      </trkpt>
      <trkpt lat="43.15813" lon="5.88693">
        <ele>324.4</ele>
        <time>2022-04-08T09:08:47Z</time>
      </trkpt>
      <trkpt lat="43.15824" lon="5.88702">
        <ele>325.6</ele>
        <time>2022-04-08T09:08:53Z</time>
      </trkpt>
      <trkpt lat="43.15837" lon="5.88709">
        <ele>326.8</ele>
        <time>2022-04-08T09:08:59Z</time>
      </trkpt>
      <trkpt lat="43.15845" lon="5.88715">
        <ele>327.8</ele>
        <time>2022-04-08T09:09:03Z</time>
      </trkpt>
      <trkpt lat="43.15853" lon="5.88719">
        <ele>329</ele>
        <time>2022-04-08T09:09:07Z</time>
      </trkpt>
      <trkpt lat="43.15865" lon="5.88722">
        <ele>330.4</ele>
        <time>2022-04-08T09:09:12Z</time>
      </trkpt>
      <trkpt lat="43.15877" lon="5.88721">
        <ele>331.6</ele>
        <time>2022-04-08T09:09:17Z</time>
      </trkpt>
      <trkpt lat="43.1589" lon="5.88721">
        <ele>332.8</ele>
        <time>2022-04-08T09:09:23Z</time>
      </trkpt>
      <trkpt lat="43.15904" lon="5.88725">
        <ele>333.8</ele>
        <time>2022-04-08T09:09:29Z</time>
      </trkpt>
      <trkpt lat="43.15913" lon="5.88726">
        <ele>335</ele>
        <time>2022-04-08T09:09:33Z</time>
      </trkpt>
      <trkpt lat="43.15923" lon="5.88731">
        <ele>336</ele>
        <time>2022-04-08T09:09:38Z</time>
      </trkpt>
      <trkpt lat="43.1593" lon="5.88733">
        <ele>337.2</ele>
        <time>2022-04-08T09:09:42Z</time>
      </trkpt>
      <trkpt lat="43.15938" lon="5.88733">
        <ele>338.4</ele>
        <time>2022-04-08T09:09:47Z</time>
      </trkpt>
      <trkpt lat="43.15949" lon="5.88732">
        <ele>339.6</ele>
        <time>2022-04-08T09:09:53Z</time>
      </trkpt>
      <trkpt lat="43.15961" lon="5.88729">
        <ele>340.6</ele>
        <time>2022-04-08T09:10:00Z</time>
      </trkpt>
      <trkpt lat="43.15971" lon="5.88732">
        <ele>341.8</ele>
        <time>2022-04-08T09:10:06Z</time>
      </trkpt>
      <trkpt lat="43.1598" lon="5.8873">
        <ele>343</ele>
        <time>2022-04-08T09:10:11Z</time>
      </trkpt>
      <trkpt lat="43.15993" lon="5.88724">
        <ele>344</ele>
        <time>2022-04-08T09:10:18Z</time>
      </trkpt>
      <trkpt lat="43.16" lon="5.88719">
        <ele>345.2</ele>
        <time>2022-04-08T09:10:23Z</time>
      </trkpt>
      <trkpt lat="43.1601" lon="5.88713">
        <ele>346.2</ele>
        <time>2022-04-08T09:10:28Z</time>
      </trkpt>
      <trkpt lat="43.16023" lon="5.88699">
        <ele>347.2</ele>
        <time>2022-04-08T09:10:35Z</time>
      </trkpt>
      <trkpt lat="43.16028" lon="5.8867">
        <ele>348.4</ele>
        <time>2022-04-08T09:10:43Z</time>
      </trkpt>
      <trkpt lat="43.16023" lon="5.88646">
        <ele>349.6</ele>
        <time>2022-04-08T09:10:49Z</time>
      </trkpt>
      <trkpt lat="43.16" lon="5.88627">
        <ele>350.4</ele>
        <time>2022-04-08T09:10:59Z</time>
      </trkpt>
      <trkpt lat="43.15996" lon="5.88622">
        <ele>350.4</ele>
        <time>2022-04-08T09:11:01Z</time>
      </trkpt>
      <trkpt lat="43.15986" lon="5.88592">
        <ele>351.6</ele>
        <time>2022-04-08T09:11:10Z</time>
      </trkpt>
      <trkpt lat="43.15976" lon="5.8858">
        <ele>352.4</ele>
        <time>2022-04-08T09:11:15Z</time>
      </trkpt>
      <trkpt lat="43.1597" lon="5.88578">
        <ele>352.6</ele>
        <time>2022-04-08T09:11:17Z</time>
      </trkpt>
      <trkpt lat="43.15953" lon="5.88574">
        <ele>353.6</ele>
        <time>2022-04-08T09:11:24Z</time>
      </trkpt>
      <trkpt lat="43.15939" lon="5.88566">
        <ele>354.8</ele>
        <time>2022-04-08T09:11:30Z</time>
      </trkpt>
      <trkpt lat="43.1593" lon="5.88554">
        <ele>355.8</ele>
        <time>2022-04-08T09:11:36Z</time>
      </trkpt>
      <trkpt lat="43.15924" lon="5.88541">
        <ele>357.2</ele>
        <time>2022-04-08T09:11:41Z</time>
      </trkpt>
      <trkpt lat="43.1592" lon="5.88526">
        <ele>358</ele>
        <time>2022-04-08T09:11:46Z</time>
      </trkpt>
      <trkpt lat="43.15919" lon="5.88513">
        <ele>359.2</ele>
        <time>2022-04-08T09:11:50Z</time>
      </trkpt>
      <trkpt lat="43.1592" lon="5.88501">
        <ele>360.2</ele>
        <time>2022-04-08T09:11:54Z</time>
      </trkpt>
      <trkpt lat="43.15926" lon="5.88483">
        <ele>361.6</ele>
        <time>2022-04-08T09:12:00Z</time>
      </trkpt>
      <trkpt lat="43.15931" lon="5.88473">
        <ele>362.8</ele>
        <time>2022-04-08T09:12:04Z</time>
      </trkpt>
      <trkpt lat="43.15935" lon="5.88458">
        <ele>363.8</ele>
        <time>2022-04-08T09:12:09Z</time>
      </trkpt>
      <trkpt lat="43.15936" lon="5.88442">
        <ele>364.8</ele>
        <time>2022-04-08T09:12:14Z</time>
      </trkpt>
      <trkpt lat="43.15933" lon="5.88431">
        <ele>365.8</ele>
        <time>2022-04-08T09:12:18Z</time>
      </trkpt>
      <trkpt lat="43.15922" lon="5.88418">
        <ele>367</ele>
        <time>2022-04-08T09:12:24Z</time>
      </trkpt>
      <trkpt lat="43.15916" lon="5.8841">
        <ele>368.2</ele>
        <time>2022-04-08T09:12:28Z</time>
      </trkpt>
      <trkpt lat="43.15912" lon="5.884">
        <ele>369.4</ele>
        <time>2022-04-08T09:12:32Z</time>
      </trkpt>
      <trkpt lat="43.15913" lon="5.88381">
        <ele>370.6</ele>
        <time>2022-04-08T09:12:38Z</time>
      </trkpt>
      <trkpt lat="43.1592" lon="5.88364">
        <ele>371.6</ele>
        <time>2022-04-08T09:12:44Z</time>
      </trkpt>
      <trkpt lat="43.15925" lon="5.88351">
        <ele>372.8</ele>
        <time>2022-04-08T09:12:49Z</time>
      </trkpt>
      <trkpt lat="43.15932" lon="5.88334">
        <ele>373.8</ele>
        <time>2022-04-08T09:12:55Z</time>
      </trkpt>
      <trkpt lat="43.15936" lon="5.8832">
        <ele>374.8</ele>
        <time>2022-04-08T09:13:00Z</time>
      </trkpt>
      <trkpt lat="43.15938" lon="5.88308">
        <ele>375.8</ele>
        <time>2022-04-08T09:13:04Z</time>
      </trkpt>
      <trkpt lat="43.15938" lon="5.88295">
        <ele>376.4</ele>
        <time>2022-04-08T09:13:08Z</time>
      </trkpt>
      <trkpt lat="43.15937" lon="5.88286">
        <ele>377</ele>
        <time>2022-04-08T09:13:11Z</time>
      </trkpt>
      <trkpt lat="43.15937" lon="5.88274">
        <ele>378</ele>
        <time>2022-04-08T09:13:15Z</time>
      </trkpt>
      <trkpt lat="43.15933" lon="5.8826">
        <ele>379.2</ele>
        <time>2022-04-08T09:13:20Z</time>
      </trkpt>
      <trkpt lat="43.15927" lon="5.88251">
        <ele>380.2</ele>
        <time>2022-04-08T09:13:24Z</time>
      </trkpt>
      <trkpt lat="43.15922" lon="5.88241">
        <ele>381.4</ele>
        <time>2022-04-08T09:13:28Z</time>
      </trkpt>
      <trkpt lat="43.1592" lon="5.88229">
        <ele>382.6</ele>
        <time>2022-04-08T09:13:32Z</time>
      </trkpt>
      <trkpt lat="43.15922" lon="5.88217">
        <ele>383.8</ele>
        <time>2022-04-08T09:13:36Z</time>
      </trkpt>
      <trkpt lat="43.15927" lon="5.88197">
        <ele>385</ele>
        <time>2022-04-08T09:13:43Z</time>
      </trkpt>
      <trkpt lat="43.15929" lon="5.88179">
        <ele>386</ele>
        <time>2022-04-08T09:13:49Z</time>
      </trkpt>
      <trkpt lat="43.15929" lon="5.88164">
        <ele>387.2</ele>
        <time>2022-04-08T09:13:54Z</time>
      </trkpt>
      <trkpt lat="43.15923" lon="5.88148">
        <ele>388.4</ele>
        <time>2022-04-08T09:14:00Z</time>
      </trkpt>
      <trkpt lat="43.15914" lon="5.88126">
        <ele>389.4</ele>
        <time>2022-04-08T09:14:08Z</time>
      </trkpt>
      <trkpt lat="43.15914" lon="5.88113">
        <ele>390.8</ele>
        <time>2022-04-08T09:14:12Z</time>
      </trkpt>
      <trkpt lat="43.15919" lon="5.88099">
        <ele>391.8</ele>
        <time>2022-04-08T09:14:17Z</time>
      </trkpt>
      <trkpt lat="43.15921" lon="5.88084">
        <ele>393</ele>
        <time>2022-04-08T09:14:22Z</time>
      </trkpt>
      <trkpt lat="43.1592" lon="5.88069">
        <ele>394</ele>
        <time>2022-04-08T09:14:27Z</time>
      </trkpt>
      <trkpt lat="43.15917" lon="5.88055">
        <ele>395.2</ele>
        <time>2022-04-08T09:14:32Z</time>
      </trkpt>
      <trkpt lat="43.15912" lon="5.88041">
        <ele>396.2</ele>
        <time>2022-04-08T09:14:37Z</time>
      </trkpt>
      <trkpt lat="43.15906" lon="5.88028">
        <ele>397.2</ele>
        <time>2022-04-08T09:14:42Z</time>
      </trkpt>
      <trkpt lat="43.159" lon="5.88017">
        <ele>398.4</ele>
        <time>2022-04-08T09:14:46Z</time>
      </trkpt>
      <trkpt lat="43.15892" lon="5.88008">
        <ele>399.6</ele>
        <time>2022-04-08T09:14:50Z</time>
      </trkpt>
      <trkpt lat="43.15871" lon="5.88001">
        <ele>400.6</ele>
        <time>2022-04-08T09:14:57Z</time>
      </trkpt>
      <trkpt lat="43.15836" lon="5.88">
        <ele>401.6</ele>
        <time>2022-04-08T09:15:08Z</time>
      </trkpt>
      <trkpt lat="43.15812" lon="5.87998">
        <ele>402.8</ele>
        <time>2022-04-08T09:15:16Z</time>
      </trkpt>
      <trkpt lat="43.15798" lon="5.87992">
        <ele>404</ele>
        <time>2022-04-08T09:15:22Z</time>
      </trkpt>
      <trkpt lat="43.15788" lon="5.87989">
        <ele>405.2</ele>
        <time>2022-04-08T09:15:26Z</time>
      </trkpt>
      <trkpt lat="43.15784" lon="5.87989">
        <ele>405.8</ele>
        <time>2022-04-08T09:15:28Z</time>
      </trkpt>
      <trkpt lat="43.15779" lon="5.87988">
        <ele>406.4</ele>
        <time>2022-04-08T09:15:30Z</time>
      </trkpt>
      <trkpt lat="43.15765" lon="5.87987">
        <ele>407.4</ele>
        <time>2022-04-08T09:15:36Z</time>
      </trkpt>
      <trkpt lat="43.15756" lon="5.87987">
        <ele>408.8</ele>
        <time>2022-04-08T09:15:40Z</time>
      </trkpt>
      <trkpt lat="43.15743" lon="5.87988">
        <ele>410</ele>
        <time>2022-04-08T09:15:46Z</time>
      </trkpt>
      <trkpt lat="43.15733" lon="5.87992">
        <ele>411.2</ele>
        <time>2022-04-08T09:15:51Z</time>
      </trkpt>
      <trkpt lat="43.15713" lon="5.87996">
        <ele>412.2</ele>
        <time>2022-04-08T09:16:00Z</time>
      </trkpt>
      <trkpt lat="43.15701" lon="5.87999">
        <ele>413.2</ele>
        <time>2022-04-08T09:16:05Z</time>
      </trkpt>
      <trkpt lat="43.1569" lon="5.88004">
        <ele>414.4</ele>
        <time>2022-04-08T09:16:10Z</time>
      </trkpt>
      <trkpt lat="43.15681" lon="5.88006">
        <ele>415.4</ele>
        <time>2022-04-08T09:16:14Z</time>
      </trkpt>
      <trkpt lat="43.15672" lon="5.88007">
        <ele>416.8</ele>
        <time>2022-04-08T09:16:18Z</time>
      </trkpt>
      <trkpt lat="43.15663" lon="5.88006">
        <ele>418</ele>
        <time>2022-04-08T09:16:22Z</time>
      </trkpt>
      <trkpt lat="43.15653" lon="5.88002">
        <ele>419</ele>
        <time>2022-04-08T09:16:26Z</time>
      </trkpt>
      <trkpt lat="43.15638" lon="5.87993">
        <ele>420.2</ele>
        <time>2022-04-08T09:16:33Z</time>
      </trkpt>
      <trkpt lat="43.15632" lon="5.87986">
        <ele>421.4</ele>
        <time>2022-04-08T09:16:38Z</time>
      </trkpt>
      <trkpt lat="43.15623" lon="5.87931">
        <ele>421.4</ele>
        <time>2022-04-08T09:16:52Z</time>
      </trkpt>
      <trkpt lat="43.15619" lon="5.87929">
        <ele>420.2</ele>
        <time>2022-04-08T09:17:01Z</time>
      </trkpt>
      <trkpt lat="43.15618" lon="5.8793">
        <ele>419.2</ele>
        <time>2022-04-08T09:17:29Z</time>
      </trkpt>
      <trkpt lat="43.15613" lon="5.87944">
        <ele>419.2</ele>
        <time>2022-04-08T09:17:35Z</time>
      </trkpt>
      <trkpt lat="43.15606" lon="5.87954">
        <ele>418.2</ele>
        <time>2022-04-08T09:17:40Z</time>
      </trkpt>
      <trkpt lat="43.15604" lon="5.87954">
        <ele>417.8</ele>
        <time>2022-04-08T09:17:41Z</time>
      </trkpt>
      <trkpt lat="43.15601" lon="5.8795">
        <ele>416.4</ele>
        <time>2022-04-08T09:17:43Z</time>
      </trkpt>
      <trkpt lat="43.156" lon="5.87948">
        <ele>415.6</ele>
        <time>2022-04-08T09:17:44Z</time>
      </trkpt>
      <trkpt lat="43.15599" lon="5.87947">
        <ele>415</ele>
        <time>2022-04-08T09:17:45Z</time>
      </trkpt>
      <trkpt lat="43.15599" lon="5.87946">
        <ele>413.4</ele>
        <time>2022-04-08T09:17:46Z</time>
      </trkpt>
      <trkpt lat="43.15597" lon="5.87944">
        <ele>410.4</ele>
        <time>2022-04-08T09:17:50Z</time>
      </trkpt>
      <trkpt lat="43.15594" lon="5.87938">
        <ele>409.2</ele>
        <time>2022-04-08T09:17:52Z</time>
      </trkpt>
      <trkpt lat="43.15578" lon="5.87908">
        <ele>408</ele>
        <time>2022-04-08T09:17:58Z</time>
      </trkpt>
      <trkpt lat="43.15572" lon="5.87897">
        <ele>406.6</ele>
        <time>2022-04-08T09:18:01Z</time>
      </trkpt>
      <trkpt lat="43.15568" lon="5.87891">
        <ele>405.4</ele>
        <time>2022-04-08T09:18:03Z</time>
      </trkpt>
      <trkpt lat="43.15563" lon="5.87883">
        <ele>403.8</ele>
        <time>2022-04-08T09:18:05Z</time>
      </trkpt>
      <trkpt lat="43.1556" lon="5.87875">
        <ele>402.2</ele>
        <time>2022-04-08T09:18:07Z</time>
      </trkpt>
      <trkpt lat="43.15556" lon="5.87865">
        <ele>400.6</ele>
        <time>2022-04-08T09:18:09Z</time>
      </trkpt>
      <trkpt lat="43.15555" lon="5.87855">
        <ele>399</ele>
        <time>2022-04-08T09:18:11Z</time>
      </trkpt>
      <trkpt lat="43.15556" lon="5.87845">
        <ele>397.6</ele>
        <time>2022-04-08T09:18:13Z</time>
      </trkpt>
      <trkpt lat="43.15559" lon="5.87825">
        <ele>396</ele>
        <time>2022-04-08T09:18:16Z</time>
      </trkpt>
      <trkpt lat="43.15564" lon="5.87811">
        <ele>395.2</ele>
        <time>2022-04-08T09:18:18Z</time>
      </trkpt>
      <trkpt lat="43.15567" lon="5.87805">
        <ele>394.8</ele>
        <time>2022-04-08T09:18:19Z</time>
      </trkpt>
      <trkpt lat="43.1558" lon="5.8778">
        <ele>393.8</ele>
        <time>2022-04-08T09:18:24Z</time>
      </trkpt>
      <trkpt lat="43.15588" lon="5.87768">
        <ele>392.6</ele>
        <time>2022-04-08T09:18:27Z</time>
      </trkpt>
      <trkpt lat="43.15598" lon="5.87755">
        <ele>391.2</ele>
        <time>2022-04-08T09:18:31Z</time>
      </trkpt>
      <trkpt lat="43.15607" lon="5.87742">
        <ele>390.2</ele>
        <time>2022-04-08T09:18:34Z</time>
      </trkpt>
      <trkpt lat="43.15616" lon="5.87729">
        <ele>389</ele>
        <time>2022-04-08T09:18:37Z</time>
      </trkpt>
      <trkpt lat="43.15625" lon="5.87715">
        <ele>387.8</ele>
        <time>2022-04-08T09:18:40Z</time>
      </trkpt>
      <trkpt lat="43.15629" lon="5.87711">
        <ele>387.2</ele>
        <time>2022-04-08T09:18:41Z</time>
      </trkpt>
      <trkpt lat="43.15637" lon="5.87703">
        <ele>386.6</ele>
        <time>2022-04-08T09:18:43Z</time>
      </trkpt>
      <trkpt lat="43.15648" lon="5.87691">
        <ele>385.2</ele>
        <time>2022-04-08T09:18:48Z</time>
      </trkpt>
      <trkpt lat="43.15649" lon="5.87689">
        <ele>383.4</ele>
        <time>2022-04-08T09:18:52Z</time>
      </trkpt>
      <trkpt lat="43.15649" lon="5.87688">
        <ele>382.4</ele>
        <time>2022-04-08T09:18:54Z</time>
      </trkpt>
      <trkpt lat="43.15654" lon="5.87688">
        <ele>381.8</ele>
        <time>2022-04-08T09:18:58Z</time>
      </trkpt>
      <trkpt lat="43.15675" lon="5.8768">
        <ele>381.6</ele>
        <time>2022-04-08T09:19:05Z</time>
      </trkpt>
      <trkpt lat="43.15696" lon="5.87676">
        <ele>381.6</ele>
        <time>2022-04-08T09:19:09Z</time>
      </trkpt>
      <trkpt lat="43.15741" lon="5.87672">
        <ele>381.2</ele>
        <time>2022-04-08T09:19:16Z</time>
      </trkpt>
      <trkpt lat="43.15746" lon="5.8767">
        <ele>381</ele>
        <time>2022-04-08T09:19:17Z</time>
      </trkpt>
      <trkpt lat="43.15766" lon="5.87652">
        <ele>379.6</ele>
        <time>2022-04-08T09:19:22Z</time>
      </trkpt>
      <trkpt lat="43.15775" lon="5.87648">
        <ele>379</ele>
        <time>2022-04-08T09:19:24Z</time>
      </trkpt>
      <trkpt lat="43.15783" lon="5.87645">
        <ele>378.6</ele>
        <time>2022-04-08T09:19:26Z</time>
      </trkpt>
      <trkpt lat="43.15792" lon="5.87645">
        <ele>377.4</ele>
        <time>2022-04-08T09:19:28Z</time>
      </trkpt>
      <trkpt lat="43.158" lon="5.87642">
        <ele>376.2</ele>
        <time>2022-04-08T09:19:30Z</time>
      </trkpt>
      <trkpt lat="43.15828" lon="5.87636">
        <ele>375.4</ele>
        <time>2022-04-08T09:19:37Z</time>
      </trkpt>
      <trkpt lat="43.15833" lon="5.87612">
        <ele>375.2</ele>
        <time>2022-04-08T09:19:41Z</time>
      </trkpt>
      <trkpt lat="43.15826" lon="5.87579">
        <ele>374</ele>
        <time>2022-04-08T09:19:46Z</time>
      </trkpt>
      <trkpt lat="43.15825" lon="5.87568">
        <ele>373.4</ele>
        <time>2022-04-08T09:19:48Z</time>
      </trkpt>
      <trkpt lat="43.15823" lon="5.87556">
        <ele>372.8</ele>
        <time>2022-04-08T09:19:50Z</time>
      </trkpt>
      <trkpt lat="43.15814" lon="5.87537">
        <ele>371.8</ele>
        <time>2022-04-08T09:19:53Z</time>
      </trkpt>
      <trkpt lat="43.15808" lon="5.87512">
        <ele>371</ele>
        <time>2022-04-08T09:19:57Z</time>
      </trkpt>
      <trkpt lat="43.15809" lon="5.875">
        <ele>370.6</ele>
        <time>2022-04-08T09:19:59Z</time>
      </trkpt>
      <trkpt lat="43.15818" lon="5.87488">
        <ele>369.4</ele>
        <time>2022-04-08T09:20:02Z</time>
      </trkpt>
      <trkpt lat="43.15822" lon="5.87471">
        <ele>368.4</ele>
        <time>2022-04-08T09:20:05Z</time>
      </trkpt>
      <trkpt lat="43.15816" lon="5.87456">
        <ele>367.8</ele>
        <time>2022-04-08T09:20:08Z</time>
      </trkpt>
      <trkpt lat="43.15811" lon="5.87446">
        <ele>367.4</ele>
        <time>2022-04-08T09:20:10Z</time>
      </trkpt>
      <trkpt lat="43.15802" lon="5.8744">
        <ele>366.6</ele>
        <time>2022-04-08T09:20:14Z</time>
      </trkpt>
      <trkpt lat="43.15792" lon="5.87436">
        <ele>365.8</ele>
        <time>2022-04-08T09:20:18Z</time>
      </trkpt>
      <trkpt lat="43.15787" lon="5.87432">
        <ele>364</ele>
        <time>2022-04-08T09:20:22Z</time>
      </trkpt>
      <trkpt lat="43.15785" lon="5.8743">
        <ele>362.4</ele>
        <time>2022-04-08T09:20:24Z</time>
      </trkpt>
      <trkpt lat="43.1578" lon="5.87426">
        <ele>361.2</ele>
        <time>2022-04-08T09:20:26Z</time>
      </trkpt>
      <trkpt lat="43.15771" lon="5.87422">
        <ele>360</ele>
        <time>2022-04-08T09:20:30Z</time>
      </trkpt>
      <trkpt lat="43.15754" lon="5.87405">
        <ele>359</ele>
        <time>2022-04-08T09:20:36Z</time>
      </trkpt>
      <trkpt lat="43.15748" lon="5.87397">
        <ele>357.6</ele>
        <time>2022-04-08T09:20:39Z</time>
      </trkpt>
      <trkpt lat="43.15743" lon="5.87389">
        <ele>356.4</ele>
        <time>2022-04-08T09:20:41Z</time>
      </trkpt>
      <trkpt lat="43.15737" lon="5.87384">
        <ele>355</ele>
        <time>2022-04-08T09:20:43Z</time>
      </trkpt>
      <trkpt lat="43.15733" lon="5.8738">
        <ele>353.6</ele>
        <time>2022-04-08T09:20:45Z</time>
      </trkpt>
      <trkpt lat="43.15728" lon="5.87375">
        <ele>352.4</ele>
        <time>2022-04-08T09:20:48Z</time>
      </trkpt>
      <trkpt lat="43.15696" lon="5.87349">
        <ele>351.4</ele>
        <time>2022-04-08T09:20:58Z</time>
      </trkpt>
      <trkpt lat="43.15686" lon="5.87337">
        <ele>350.2</ele>
        <time>2022-04-08T09:21:03Z</time>
      </trkpt>
      <trkpt lat="43.15663" lon="5.87303">
        <ele>349.2</ele>
        <time>2022-04-08T09:21:14Z</time>
      </trkpt>
      <trkpt lat="43.15661" lon="5.873">
        <ele>349</ele>
        <time>2022-04-08T09:21:15Z</time>
      </trkpt>
      <trkpt lat="43.15657" lon="5.87288">
        <ele>347.4</ele>
        <time>2022-04-08T09:21:19Z</time>
      </trkpt>
      <trkpt lat="43.15657" lon="5.87281">
        <ele>346.2</ele>
        <time>2022-04-08T09:21:21Z</time>
      </trkpt>
      <trkpt lat="43.15654" lon="5.87275">
        <ele>345</ele>
        <time>2022-04-08T09:21:24Z</time>
      </trkpt>
      <trkpt lat="43.15652" lon="5.87264">
        <ele>344</ele>
        <time>2022-04-08T09:21:27Z</time>
      </trkpt>
      <trkpt lat="43.15646" lon="5.87241">
        <ele>343</ele>
        <time>2022-04-08T09:21:33Z</time>
      </trkpt>
      <trkpt lat="43.15642" lon="5.87237">
        <ele>341.6</ele>
        <time>2022-04-08T09:21:37Z</time>
      </trkpt>
      <trkpt lat="43.1564" lon="5.87237">
        <ele>341</ele>
        <time>2022-04-08T09:21:38Z</time>
      </trkpt>
      <trkpt lat="43.15639" lon="5.87238">
        <ele>340.4</ele>
        <time>2022-04-08T09:21:39Z</time>
      </trkpt>
      <trkpt lat="43.15641" lon="5.87228">
        <ele>334.8</ele>
        <time>2022-04-08T09:22:08Z</time>
      </trkpt>
      <trkpt lat="43.15642" lon="5.87217">
        <ele>334.8</ele>
        <time>2022-04-08T09:22:11Z</time>
      </trkpt>
      <trkpt lat="43.15641" lon="5.87205">
        <ele>334</ele>
        <time>2022-04-08T09:22:14Z</time>
      </trkpt>
      <trkpt lat="43.15641" lon="5.87194">
        <ele>333</ele>
        <time>2022-04-08T09:22:17Z</time>
      </trkpt>
      <trkpt lat="43.15642" lon="5.87187">
        <ele>331.8</ele>
        <time>2022-04-08T09:22:19Z</time>
      </trkpt>
      <trkpt lat="43.15641" lon="5.87181">
        <ele>330.4</ele>
        <time>2022-04-08T09:22:21Z</time>
      </trkpt>
      <trkpt lat="43.15641" lon="5.87174">
        <ele>329</ele>
        <time>2022-04-08T09:22:23Z</time>
      </trkpt>
      <trkpt lat="43.1564" lon="5.87166">
        <ele>327.6</ele>
        <time>2022-04-08T09:22:25Z</time>
      </trkpt>
      <trkpt lat="43.15641" lon="5.87159">
        <ele>326.6</ele>
        <time>2022-04-08T09:22:27Z</time>
      </trkpt>
      <trkpt lat="43.15642" lon="5.87149">
        <ele>325.2</ele>
        <time>2022-04-08T09:22:29Z</time>
      </trkpt>
      <trkpt lat="43.15642" lon="5.87143">
        <ele>324.4</ele>
        <time>2022-04-08T09:22:30Z</time>
      </trkpt>
      <trkpt lat="43.15641" lon="5.87136">
        <ele>324</ele>
        <time>2022-04-08T09:22:31Z</time>
      </trkpt>
      <trkpt lat="43.15641" lon="5.87127">
        <ele>322.8</ele>
        <time>2022-04-08T09:22:33Z</time>
      </trkpt>
      <trkpt lat="43.1564" lon="5.87121">
        <ele>321.2</ele>
        <time>2022-04-08T09:22:35Z</time>
      </trkpt>
      <trkpt lat="43.15637" lon="5.87117">
        <ele>319.6</ele>
        <time>2022-04-08T09:22:37Z</time>
      </trkpt>
      <trkpt lat="43.1563" lon="5.87112">
        <ele>318.8</ele>
        <time>2022-04-08T09:22:41Z</time>
      </trkpt>
      <trkpt lat="43.15627" lon="5.87107">
        <ele>320.2</ele>
        <time>2022-04-08T09:23:10Z</time>
      </trkpt>
      <trkpt lat="43.15626" lon="5.87107">
        <ele>320.4</ele>
        <time>2022-04-08T09:23:12Z</time>
      </trkpt>
      <trkpt lat="43.15627" lon="5.87106">
        <ele>323.8</ele>
        <time>2022-04-08T09:23:27Z</time>
      </trkpt>
      <trkpt lat="43.15627" lon="5.87105">
        <ele>324.6</ele>
        <time>2022-04-08T09:23:36Z</time>
      </trkpt>
      <trkpt lat="43.15625" lon="5.87101">
        <ele>326.4</ele>
        <time>2022-04-08T09:23:48Z</time>
      </trkpt>
      <trkpt lat="43.15611" lon="5.87088">
        <ele>326.4</ele>
        <time>2022-04-08T09:23:57Z</time>
      </trkpt>
      <trkpt lat="43.15609" lon="5.87087">
        <ele>326.4</ele>
        <time>2022-04-08T09:23:58Z</time>
      </trkpt>
      <trkpt lat="43.15598" lon="5.87083">
        <ele>324.6</ele>
        <time>2022-04-08T09:24:04Z</time>
      </trkpt>
      <trkpt lat="43.15594" lon="5.87078">
        <ele>323.4</ele>
        <time>2022-04-08T09:24:06Z</time>
      </trkpt>
      <trkpt lat="43.15591" lon="5.8707">
        <ele>322.2</ele>
        <time>2022-04-08T09:24:08Z</time>
      </trkpt>
      <trkpt lat="43.15587" lon="5.87064">
        <ele>321</ele>
        <time>2022-04-08T09:24:10Z</time>
      </trkpt>
      <trkpt lat="43.15584" lon="5.87058">
        <ele>320.4</ele>
        <time>2022-04-08T09:24:12Z</time>
      </trkpt>
      <trkpt lat="43.15583" lon="5.87051">
        <ele>319.6</ele>
        <time>2022-04-08T09:24:14Z</time>
      </trkpt>
      <trkpt lat="43.15579" lon="5.87038">
        <ele>318.2</ele>
        <time>2022-04-08T09:24:17Z</time>
      </trkpt>
      <trkpt lat="43.15578" lon="5.87025">
        <ele>317</ele>
        <time>2022-04-08T09:24:20Z</time>
      </trkpt>
      <trkpt lat="43.15578" lon="5.87021">
        <ele>316.4</ele>
        <time>2022-04-08T09:24:21Z</time>
      </trkpt>
      <trkpt lat="43.15577" lon="5.87012">
        <ele>315.6</ele>
        <time>2022-04-08T09:24:23Z</time>
      </trkpt>
      <trkpt lat="43.15577" lon="5.86998">
        <ele>314.2</ele>
        <time>2022-04-08T09:24:26Z</time>
      </trkpt>
      <trkpt lat="43.15579" lon="5.86981">
        <ele>313</ele>
        <time>2022-04-08T09:24:29Z</time>
      </trkpt>
      <trkpt lat="43.15582" lon="5.86971">
        <ele>312</ele>
        <time>2022-04-08T09:24:31Z</time>
      </trkpt>
      <trkpt lat="43.15582" lon="5.86968">
        <ele>311.2</ele>
        <time>2022-04-08T09:24:32Z</time>
      </trkpt>
      <trkpt lat="43.15583" lon="5.86965">
        <ele>309.4</ele>
        <time>2022-04-08T09:24:33Z</time>
      </trkpt>
      <trkpt lat="43.15587" lon="5.8696">
        <ele>307.6</ele>
        <time>2022-04-08T09:24:35Z</time>
      </trkpt>
      <trkpt lat="43.1559" lon="5.86955">
        <ele>306</ele>
        <time>2022-04-08T09:24:37Z</time>
      </trkpt>
      <trkpt lat="43.15595" lon="5.8695">
        <ele>304.4</ele>
        <time>2022-04-08T09:24:39Z</time>
      </trkpt>
      <trkpt lat="43.15602" lon="5.86929">
        <ele>303.4</ele>
        <time>2022-04-08T09:24:46Z</time>
      </trkpt>
      <trkpt lat="43.15602" lon="5.86925">
        <ele>303.4</ele>
        <time>2022-04-08T09:24:47Z</time>
      </trkpt>
      <trkpt lat="43.15599" lon="5.86911">
        <ele>304.6</ele>
        <time>2022-04-08T09:24:51Z</time>
      </trkpt>
      <trkpt lat="43.15598" lon="5.86905">
        <ele>305.8</ele>
        <time>2022-04-08T09:24:53Z</time>
      </trkpt>
      <trkpt lat="43.15596" lon="5.86898">
        <ele>306.8</ele>
        <time>2022-04-08T09:24:55Z</time>
      </trkpt>
      <trkpt lat="43.15591" lon="5.86885">
        <ele>307.8</ele>
        <time>2022-04-08T09:25:00Z</time>
      </trkpt>
      <trkpt lat="43.15589" lon="5.86884">
        <ele>308.8</ele>
        <time>2022-04-08T09:25:03Z</time>
      </trkpt>
      <trkpt lat="43.15586" lon="5.86881">
        <ele>310.6</ele>
        <time>2022-04-08T09:25:08Z</time>
      </trkpt>
      <trkpt lat="43.15554" lon="5.86847">
        <ele>309.4</ele>
        <time>2022-04-08T09:25:20Z</time>
      </trkpt>
      <trkpt lat="43.1555" lon="5.86843">
        <ele>308.8</ele>
        <time>2022-04-08T09:25:21Z</time>
      </trkpt>
      <trkpt lat="43.15546" lon="5.86839">
        <ele>308.2</ele>
        <time>2022-04-08T09:25:22Z</time>
      </trkpt>
      <trkpt lat="43.15538" lon="5.86832">
        <ele>306.8</ele>
        <time>2022-04-08T09:25:24Z</time>
      </trkpt>
      <trkpt lat="43.1553" lon="5.86824">
        <ele>305.8</ele>
        <time>2022-04-08T09:25:26Z</time>
      </trkpt>
      <trkpt lat="43.15525" lon="5.8682">
        <ele>305.4</ele>
        <time>2022-04-08T09:25:27Z</time>
      </trkpt>
      <trkpt lat="43.15521" lon="5.86815">
        <ele>304.8</ele>
        <time>2022-04-08T09:25:28Z</time>
      </trkpt>
      <trkpt lat="43.15509" lon="5.86804">
        <ele>303</ele>
        <time>2022-04-08T09:25:30Z</time>
      </trkpt>
      <trkpt lat="43.15498" lon="5.86795">
        <ele>301.6</ele>
        <time>2022-04-08T09:25:32Z</time>
      </trkpt>
      <trkpt lat="43.15487" lon="5.86788">
        <ele>300.2</ele>
        <time>2022-04-08T09:25:34Z</time>
      </trkpt>
      <trkpt lat="43.15476" lon="5.86782">
        <ele>299</ele>
        <time>2022-04-08T09:25:36Z</time>
      </trkpt>
      <trkpt lat="43.15457" lon="5.86769">
        <ele>297.6</ele>
        <time>2022-04-08T09:25:39Z</time>
      </trkpt>
      <trkpt lat="43.15451" lon="5.86764">
        <ele>296.4</ele>
        <time>2022-04-08T09:25:40Z</time>
      </trkpt>
      <trkpt lat="43.15438" lon="5.86756">
        <ele>294.6</ele>
        <time>2022-04-08T09:25:42Z</time>
      </trkpt>
      <trkpt lat="43.15427" lon="5.86748">
        <ele>293</ele>
        <time>2022-04-08T09:25:44Z</time>
      </trkpt>
      <trkpt lat="43.15415" lon="5.8674">
        <ele>291.4</ele>
        <time>2022-04-08T09:25:46Z</time>
      </trkpt>
      <trkpt lat="43.15407" lon="5.86732">
        <ele>290</ele>
        <time>2022-04-08T09:25:48Z</time>
      </trkpt>
      <trkpt lat="43.15401" lon="5.86725">
        <ele>288.8</ele>
        <time>2022-04-08T09:25:50Z</time>
      </trkpt>
      <trkpt lat="43.15391" lon="5.86715">
        <ele>287.6</ele>
        <time>2022-04-08T09:25:53Z</time>
      </trkpt>
      <trkpt lat="43.15379" lon="5.86701">
        <ele>286.6</ele>
        <time>2022-04-08T09:25:57Z</time>
      </trkpt>
      <trkpt lat="43.15372" lon="5.86699">
        <ele>286.2</ele>
        <time>2022-04-08T09:25:59Z</time>
      </trkpt>
      <trkpt lat="43.15366" lon="5.86701">
        <ele>285.4</ele>
        <time>2022-04-08T09:26:01Z</time>
      </trkpt>
      <trkpt lat="43.15356" lon="5.86704">
        <ele>284.2</ele>
        <time>2022-04-08T09:26:04Z</time>
      </trkpt>
      <trkpt lat="43.15351" lon="5.86704">
        <ele>282.8</ele>
        <time>2022-04-08T09:26:06Z</time>
      </trkpt>
      <trkpt lat="43.15346" lon="5.86707">
        <ele>281.2</ele>
        <time>2022-04-08T09:26:09Z</time>
      </trkpt>
      <trkpt lat="43.15339" lon="5.86712">
        <ele>279.8</ele>
        <time>2022-04-08T09:26:12Z</time>
      </trkpt>
      <trkpt lat="43.15336" lon="5.86713">
        <ele>278.6</ele>
        <time>2022-04-08T09:26:13Z</time>
      </trkpt>
      <trkpt lat="43.15329" lon="5.86719">
        <ele>277.2</ele>
        <time>2022-04-08T09:26:16Z</time>
      </trkpt>
      <trkpt lat="43.15324" lon="5.86722">
        <ele>276</ele>
        <time>2022-04-08T09:26:18Z</time>
      </trkpt>
      <trkpt lat="43.1532" lon="5.86726">
        <ele>274.8</ele>
        <time>2022-04-08T09:26:20Z</time>
      </trkpt>
      <trkpt lat="43.15317" lon="5.8673">
        <ele>273</ele>
        <time>2022-04-08T09:26:22Z</time>
      </trkpt>
      <trkpt lat="43.15314" lon="5.86734">
        <ele>271.6</ele>
        <time>2022-04-08T09:26:24Z</time>
      </trkpt>
      <trkpt lat="43.15309" lon="5.8674">
        <ele>270.6</ele>
        <time>2022-04-08T09:26:27Z</time>
      </trkpt>
      <trkpt lat="43.15306" lon="5.86745">
        <ele>269</ele>
        <time>2022-04-08T09:26:29Z</time>
      </trkpt>
      <trkpt lat="43.15303" lon="5.86751">
        <ele>267.2</ele>
        <time>2022-04-08T09:26:31Z</time>
      </trkpt>
      <trkpt lat="43.15302" lon="5.86757">
        <ele>265.8</ele>
        <time>2022-04-08T09:26:33Z</time>
      </trkpt>
      <trkpt lat="43.15301" lon="5.86762">
        <ele>264.4</ele>
        <time>2022-04-08T09:26:35Z</time>
      </trkpt>
      <trkpt lat="43.15299" lon="5.86765">
        <ele>263.2</ele>
        <time>2022-04-08T09:26:36Z</time>
      </trkpt>
      <trkpt lat="43.15298" lon="5.86769">
        <ele>261.4</ele>
        <time>2022-04-08T09:26:38Z</time>
      </trkpt>
      <trkpt lat="43.15296" lon="5.86775">
        <ele>260.4</ele>
        <time>2022-04-08T09:26:40Z</time>
      </trkpt>
      <trkpt lat="43.15295" lon="5.8678">
        <ele>259.4</ele>
        <time>2022-04-08T09:26:42Z</time>
      </trkpt>
      <trkpt lat="43.15291" lon="5.86787">
        <ele>258</ele>
        <time>2022-04-08T09:26:45Z</time>
      </trkpt>
      <trkpt lat="43.1529" lon="5.86791">
        <ele>256</ele>
        <time>2022-04-08T09:26:47Z</time>
      </trkpt>
      <trkpt lat="43.15289" lon="5.86793">
        <ele>254.6</ele>
        <time>2022-04-08T09:26:49Z</time>
      </trkpt>
      <trkpt lat="43.15289" lon="5.86794">
        <ele>253.2</ele>
        <time>2022-04-08T09:26:51Z</time>
      </trkpt>
      <trkpt lat="43.15288" lon="5.86795">
        <ele>251.8</ele>
        <time>2022-04-08T09:26:53Z</time>
      </trkpt>
      <trkpt lat="43.15286" lon="5.86797">
        <ele>249.4</ele>
        <time>2022-04-08T09:26:59Z</time>
      </trkpt>
      <trkpt lat="43.15279" lon="5.86798">
        <ele>249.2</ele>
        <time>2022-04-08T09:27:02Z</time>
      </trkpt>
      <trkpt lat="43.15276" lon="5.86799">
        <ele>249.2</ele>
        <time>2022-04-08T09:27:03Z</time>
      </trkpt>
      <trkpt lat="43.15262" lon="5.86804">
        <ele>248</ele>
        <time>2022-04-08T09:27:09Z</time>
      </trkpt>
      <trkpt lat="43.15257" lon="5.86808">
        <ele>246.8</ele>
        <time>2022-04-08T09:27:12Z</time>
      </trkpt>
      <trkpt lat="43.15251" lon="5.86811">
        <ele>245.6</ele>
        <time>2022-04-08T09:27:14Z</time>
      </trkpt>
      <trkpt lat="43.15244" lon="5.86814">
        <ele>244.6</ele>
        <time>2022-04-08T09:27:16Z</time>
      </trkpt>
      <trkpt lat="43.15237" lon="5.86815">
        <ele>243.4</ele>
        <time>2022-04-08T09:27:18Z</time>
      </trkpt>
      <trkpt lat="43.15231" lon="5.86815">
        <ele>241.6</ele>
        <time>2022-04-08T09:27:20Z</time>
      </trkpt>
      <trkpt lat="43.15225" lon="5.86815">
        <ele>240.2</ele>
        <time>2022-04-08T09:27:22Z</time>
      </trkpt>
      <trkpt lat="43.15219" lon="5.86814">
        <ele>239.2</ele>
        <time>2022-04-08T09:27:24Z</time>
      </trkpt>
      <trkpt lat="43.15215" lon="5.8681">
        <ele>237.8</ele>
        <time>2022-04-08T09:27:26Z</time>
      </trkpt>
      <trkpt lat="43.15213" lon="5.86808">
        <ele>236.6</ele>
        <time>2022-04-08T09:27:29Z</time>
      </trkpt>
      <trkpt lat="43.15213" lon="5.86809">
        <ele>235.4</ele>
        <time>2022-04-08T09:27:31Z</time>
      </trkpt>
      <trkpt lat="43.15212" lon="5.86809">
        <ele>234.4</ele>
        <time>2022-04-08T09:27:33Z</time>
      </trkpt>
      <trkpt lat="43.15212" lon="5.8681">
        <ele>233.2</ele>
        <time>2022-04-08T09:27:37Z</time>
      </trkpt>
      <trkpt lat="43.15211" lon="5.86811">
        <ele>233.2</ele>
        <time>2022-04-08T09:27:38Z</time>
      </trkpt>
      <trkpt lat="43.15204" lon="5.86816">
        <ele>233</ele>
        <time>2022-04-08T09:27:42Z</time>
      </trkpt>
      <trkpt lat="43.15195" lon="5.86822">
        <ele>232</ele>
        <time>2022-04-08T09:27:48Z</time>
      </trkpt>
      <trkpt lat="43.15193" lon="5.86823">
        <ele>230.4</ele>
        <time>2022-04-08T09:27:50Z</time>
      </trkpt>
      <trkpt lat="43.15189" lon="5.86824">
        <ele>229.2</ele>
        <time>2022-04-08T09:27:52Z</time>
      </trkpt>
      <trkpt lat="43.15185" lon="5.86825">
        <ele>227.8</ele>
        <time>2022-04-08T09:27:54Z</time>
      </trkpt>
      <trkpt lat="43.15184" lon="5.86826">
        <ele>227.4</ele>
        <time>2022-04-08T09:27:55Z</time>
      </trkpt>
      <trkpt lat="43.1518" lon="5.86827">
        <ele>226.6</ele>
        <time>2022-04-08T09:27:57Z</time>
      </trkpt>
      <trkpt lat="43.15175" lon="5.86829">
        <ele>225.6</ele>
        <time>2022-04-08T09:28:00Z</time>
      </trkpt>
      <trkpt lat="43.1517" lon="5.86832">
        <ele>224.2</ele>
        <time>2022-04-08T09:28:03Z</time>
      </trkpt>
      <trkpt lat="43.15164" lon="5.86832">
        <ele>223</ele>
        <time>2022-04-08T09:28:06Z</time>
      </trkpt>
      <trkpt lat="43.1516" lon="5.86834">
        <ele>222.2</ele>
        <time>2022-04-08T09:28:08Z</time>
      </trkpt>
      <trkpt lat="43.15159" lon="5.86834">
        <ele>221.6</ele>
        <time>2022-04-08T09:28:09Z</time>
      </trkpt>
      <trkpt lat="43.15154" lon="5.86836">
        <ele>220.4</ele>
        <time>2022-04-08T09:28:11Z</time>
      </trkpt>
      <trkpt lat="43.15149" lon="5.86838">
        <ele>219.6</ele>
        <time>2022-04-08T09:28:13Z</time>
      </trkpt>
      <trkpt lat="43.15147" lon="5.8684">
        <ele>219</ele>
        <time>2022-04-08T09:28:14Z</time>
      </trkpt>
      <trkpt lat="43.1514" lon="5.86843">
        <ele>217.4</ele>
        <time>2022-04-08T09:28:17Z</time>
      </trkpt>
      <trkpt lat="43.15132" lon="5.86845">
        <ele>216</ele>
        <time>2022-04-08T09:28:20Z</time>
      </trkpt>
      <trkpt lat="43.15128" lon="5.86847">
        <ele>214.8</ele>
        <time>2022-04-08T09:28:22Z</time>
      </trkpt>
      <trkpt lat="43.15119" lon="5.86845">
        <ele>213.4</ele>
        <time>2022-04-08T09:28:25Z</time>
      </trkpt>
      <trkpt lat="43.15113" lon="5.86846">
        <ele>212</ele>
        <time>2022-04-08T09:28:27Z</time>
      </trkpt>
      <trkpt lat="43.1511" lon="5.86847">
        <ele>211</ele>
        <time>2022-04-08T09:28:28Z</time>
      </trkpt>
      <trkpt lat="43.15106" lon="5.86847">
        <ele>209.6</ele>
        <time>2022-04-08T09:28:30Z</time>
      </trkpt>
      <trkpt lat="43.15105" lon="5.86847">
        <ele>208.4</ele>
        <time>2022-04-08T09:28:32Z</time>
      </trkpt>
      <trkpt lat="43.15102" lon="5.86846">
        <ele>206.2</ele>
        <time>2022-04-08T09:28:36Z</time>
      </trkpt>
      <trkpt lat="43.15099" lon="5.86847">
        <ele>205.8</ele>
        <time>2022-04-08T09:28:37Z</time>
      </trkpt>
      <trkpt lat="43.15095" lon="5.86849">
        <ele>205.2</ele>
        <time>2022-04-08T09:28:39Z</time>
      </trkpt>
      <trkpt lat="43.15078" lon="5.86851">
        <ele>204.8</ele>
        <time>2022-04-08T09:28:44Z</time>
      </trkpt>
      <trkpt lat="43.15072" lon="5.86856">
        <ele>204</ele>
        <time>2022-04-08T09:28:47Z</time>
      </trkpt>
      <trkpt lat="43.15067" lon="5.86863">
        <ele>203</ele>
        <time>2022-04-08T09:28:49Z</time>
      </trkpt>
      <trkpt lat="43.1506" lon="5.8687">
        <ele>201.8</ele>
        <time>2022-04-08T09:28:51Z</time>
      </trkpt>
      <trkpt lat="43.15049" lon="5.86877">
        <ele>200.4</ele>
        <time>2022-04-08T09:28:54Z</time>
      </trkpt>
      <trkpt lat="43.15037" lon="5.86881">
        <ele>198.6</ele>
        <time>2022-04-08T09:28:57Z</time>
      </trkpt>
      <trkpt lat="43.15028" lon="5.86884">
        <ele>197.6</ele>
        <time>2022-04-08T09:28:59Z</time>
      </trkpt>
      <trkpt lat="43.1502" lon="5.86887">
        <ele>196.6</ele>
        <time>2022-04-08T09:29:01Z</time>
      </trkpt>
      <trkpt lat="43.15013" lon="5.8689">
        <ele>195.2</ele>
        <time>2022-04-08T09:29:03Z</time>
      </trkpt>
      <trkpt lat="43.15006" lon="5.86893">
        <ele>194.4</ele>
        <time>2022-04-08T09:29:05Z</time>
      </trkpt>
      <trkpt lat="43.15002" lon="5.86895">
        <ele>194</ele>
        <time>2022-04-08T09:29:06Z</time>
      </trkpt>
      <trkpt lat="43.14995" lon="5.86899">
        <ele>192.4</ele>
        <time>2022-04-08T09:29:08Z</time>
      </trkpt>
      <trkpt lat="43.14988" lon="5.86903">
        <ele>191.4</ele>
        <time>2022-04-08T09:29:10Z</time>
      </trkpt>
      <trkpt lat="43.14985" lon="5.86906">
        <ele>191</ele>
        <time>2022-04-08T09:29:11Z</time>
      </trkpt>
      <trkpt lat="43.14978" lon="5.86909">
        <ele>190</ele>
        <time>2022-04-08T09:29:13Z</time>
      </trkpt>
      <trkpt lat="43.14971" lon="5.86914">
        <ele>188.6</ele>
        <time>2022-04-08T09:29:15Z</time>
      </trkpt>
      <trkpt lat="43.14964" lon="5.86918">
        <ele>187.6</ele>
        <time>2022-04-08T09:29:17Z</time>
      </trkpt>
      <trkpt lat="43.14953" lon="5.86921">
        <ele>186.6</ele>
        <time>2022-04-08T09:29:20Z</time>
      </trkpt>
      <trkpt lat="43.14946" lon="5.86919">
        <ele>185</ele>
        <time>2022-04-08T09:29:22Z</time>
      </trkpt>
      <trkpt lat="43.14939" lon="5.86917">
        <ele>183.8</ele>
        <time>2022-04-08T09:29:24Z</time>
      </trkpt>
      <trkpt lat="43.14932" lon="5.86916">
        <ele>182.4</ele>
        <time>2022-04-08T09:29:26Z</time>
      </trkpt>
      <trkpt lat="43.14922" lon="5.86912">
        <ele>181.4</ele>
        <time>2022-04-08T09:29:29Z</time>
      </trkpt>
      <trkpt lat="43.14911" lon="5.8691">
        <ele>180</ele>
        <time>2022-04-08T09:29:32Z</time>
      </trkpt>
      <trkpt lat="43.14895" lon="5.86911">
        <ele>178.8</ele>
        <time>2022-04-08T09:29:36Z</time>
      </trkpt>
      <trkpt lat="43.14886" lon="5.86911">
        <ele>177.8</ele>
        <time>2022-04-08T09:29:38Z</time>
      </trkpt>
      <trkpt lat="43.14872" lon="5.86916">
        <ele>176.2</ele>
        <time>2022-04-08T09:29:42Z</time>
      </trkpt>
      <trkpt lat="43.14866" lon="5.86921">
        <ele>175</ele>
        <time>2022-04-08T09:29:44Z</time>
      </trkpt>
      <trkpt lat="43.1486" lon="5.86934">
        <ele>173.8</ele>
        <time>2022-04-08T09:29:48Z</time>
      </trkpt>
      <trkpt lat="43.1486" lon="5.86943">
        <ele>172.8</ele>
        <time>2022-04-08T09:29:50Z</time>
      </trkpt>
      <trkpt lat="43.14863" lon="5.86952">
        <ele>171.4</ele>
        <time>2022-04-08T09:29:52Z</time>
      </trkpt>
      <trkpt lat="43.14866" lon="5.86957">
        <ele>171.2</ele>
        <time>2022-04-08T09:29:53Z</time>
      </trkpt>
      <trkpt lat="43.14872" lon="5.86964">
        <ele>170.2</ele>
        <time>2022-04-08T09:29:55Z</time>
      </trkpt>
      <trkpt lat="43.14876" lon="5.86969">
        <ele>169.6</ele>
        <time>2022-04-08T09:29:57Z</time>
      </trkpt>
      <trkpt lat="43.14878" lon="5.86971">
        <ele>169.2</ele>
        <time>2022-04-08T09:29:58Z</time>
      </trkpt>
      <trkpt lat="43.14886" lon="5.86982">
        <ele>167.8</ele>
        <time>2022-04-08T09:30:03Z</time>
      </trkpt>
      <trkpt lat="43.14889" lon="5.86987">
        <ele>166.8</ele>
        <time>2022-04-08T09:30:05Z</time>
      </trkpt>
      <trkpt lat="43.14893" lon="5.86991">
        <ele>165.8</ele>
        <time>2022-04-08T09:30:07Z</time>
      </trkpt>
      <trkpt lat="43.14898" lon="5.86997">
        <ele>164.2</ele>
        <time>2022-04-08T09:30:09Z</time>
      </trkpt>
      <trkpt lat="43.14907" lon="5.87009">
        <ele>163.2</ele>
        <time>2022-04-08T09:30:13Z</time>
      </trkpt>
      <trkpt lat="43.14918" lon="5.87021">
        <ele>162.2</ele>
        <time>2022-04-08T09:30:17Z</time>
      </trkpt>
      <trkpt lat="43.14927" lon="5.8703">
        <ele>161</ele>
        <time>2022-04-08T09:30:20Z</time>
      </trkpt>
      <trkpt lat="43.14935" lon="5.87038">
        <ele>159.8</ele>
        <time>2022-04-08T09:30:23Z</time>
      </trkpt>
      <trkpt lat="43.14943" lon="5.87044">
        <ele>158.4</ele>
        <time>2022-04-08T09:30:26Z</time>
      </trkpt>
      <trkpt lat="43.14952" lon="5.87048">
        <ele>157.4</ele>
        <time>2022-04-08T09:30:29Z</time>
      </trkpt>
      <trkpt lat="43.14958" lon="5.87049">
        <ele>156.4</ele>
        <time>2022-04-08T09:30:31Z</time>
      </trkpt>
      <trkpt lat="43.14969" lon="5.8705">
        <ele>155.2</ele>
        <time>2022-04-08T09:30:34Z</time>
      </trkpt>
      <trkpt lat="43.14975" lon="5.87049">
        <ele>154.2</ele>
        <time>2022-04-08T09:30:36Z</time>
      </trkpt>
      <trkpt lat="43.14981" lon="5.87049">
        <ele>153.2</ele>
        <time>2022-04-08T09:30:38Z</time>
      </trkpt>
      <trkpt lat="43.14991" lon="5.8705">
        <ele>151.8</ele>
        <time>2022-04-08T09:30:41Z</time>
      </trkpt>
      <trkpt lat="43.15" lon="5.8705">
        <ele>150.4</ele>
        <time>2022-04-08T09:30:44Z</time>
      </trkpt>
      <trkpt lat="43.15009" lon="5.87054">
        <ele>149</ele>
        <time>2022-04-08T09:30:47Z</time>
      </trkpt>
      <trkpt lat="43.1501" lon="5.87057">
        <ele>147.6</ele>
        <time>2022-04-08T09:30:49Z</time>
      </trkpt>
      <trkpt lat="43.15007" lon="5.87059">
        <ele>146.4</ele>
        <time>2022-04-08T09:30:51Z</time>
      </trkpt>
      <trkpt lat="43.15004" lon="5.87062">
        <ele>145.2</ele>
        <time>2022-04-08T09:30:53Z</time>
      </trkpt>
      <trkpt lat="43.14998" lon="5.87069">
        <ele>143.8</ele>
        <time>2022-04-08T09:30:56Z</time>
      </trkpt>
      <trkpt lat="43.14988" lon="5.87079">
        <ele>142.6</ele>
        <time>2022-04-08T09:30:59Z</time>
      </trkpt>
      <trkpt lat="43.14978" lon="5.87087">
        <ele>142</ele>
        <time>2022-04-08T09:31:01Z</time>
      </trkpt>
      <trkpt lat="43.14965" lon="5.87095">
        <ele>141.4</ele>
        <time>2022-04-08T09:31:03Z</time>
      </trkpt>
      <trkpt lat="43.14942" lon="5.87104">
        <ele>140.8</ele>
        <time>2022-04-08T09:31:06Z</time>
      </trkpt>
      <trkpt lat="43.14936" lon="5.87106">
        <ele>140.2</ele>
        <time>2022-04-08T09:31:07Z</time>
      </trkpt>
      <trkpt lat="43.14919" lon="5.87111">
        <ele>138.6</ele>
        <time>2022-04-08T09:31:10Z</time>
      </trkpt>
      <trkpt lat="43.14913" lon="5.87111">
        <ele>137.2</ele>
        <time>2022-04-08T09:31:12Z</time>
      </trkpt>
      <trkpt lat="43.14904" lon="5.87106">
        <ele>136</ele>
        <time>2022-04-08T09:31:14Z</time>
      </trkpt>
      <trkpt lat="43.149" lon="5.87105">
        <ele>135.4</ele>
        <time>2022-04-08T09:31:15Z</time>
      </trkpt>
      <trkpt lat="43.14896" lon="5.87105">
        <ele>134.6</ele>
        <time>2022-04-08T09:31:16Z</time>
      </trkpt>
      <trkpt lat="43.14879" lon="5.87104">
        <ele>133.2</ele>
        <time>2022-04-08T09:31:19Z</time>
      </trkpt>
      <trkpt lat="43.14868" lon="5.87102">
        <ele>131.8</ele>
        <time>2022-04-08T09:31:21Z</time>
      </trkpt>
      <trkpt lat="43.14852" lon="5.87102">
        <ele>131.2</ele>
        <time>2022-04-08T09:31:23Z</time>
      </trkpt>
      <trkpt lat="43.14844" lon="5.87102">
        <ele>130.8</ele>
        <time>2022-04-08T09:31:24Z</time>
      </trkpt>
      <trkpt lat="43.1483" lon="5.87101">
        <ele>129.8</ele>
        <time>2022-04-08T09:31:26Z</time>
      </trkpt>
      <trkpt lat="43.14804" lon="5.87096">
        <ele>128.4</ele>
        <time>2022-04-08T09:31:30Z</time>
      </trkpt>
      <trkpt lat="43.14781" lon="5.87094">
        <ele>127.2</ele>
        <time>2022-04-08T09:31:33Z</time>
      </trkpt>
      <trkpt lat="43.14774" lon="5.87096">
        <ele>126.8</ele>
        <time>2022-04-08T09:31:34Z</time>
      </trkpt>
      <trkpt lat="43.14759" lon="5.87104">
        <ele>125.8</ele>
        <time>2022-04-08T09:31:36Z</time>
      </trkpt>
      <trkpt lat="43.14748" lon="5.87115">
        <ele>124.6</ele>
        <time>2022-04-08T09:31:38Z</time>
      </trkpt>
      <trkpt lat="43.14736" lon="5.87147">
        <ele>123.4</ele>
        <time>2022-04-08T09:31:42Z</time>
      </trkpt>
      <trkpt lat="43.14734" lon="5.87155">
        <ele>122.8</ele>
        <time>2022-04-08T09:31:43Z</time>
      </trkpt>
      <trkpt lat="43.14732" lon="5.8717">
        <ele>121.6</ele>
        <time>2022-04-08T09:31:45Z</time>
      </trkpt>
      <trkpt lat="43.1473" lon="5.87182">
        <ele>120.6</ele>
        <time>2022-04-08T09:31:47Z</time>
      </trkpt>
      <trkpt lat="43.14728" lon="5.87194">
        <ele>118.6</ele>
        <time>2022-04-08T09:31:51Z</time>
      </trkpt>
      <trkpt lat="43.14728" lon="5.87198">
        <ele>117.6</ele>
        <time>2022-04-08T09:31:53Z</time>
      </trkpt>
      <trkpt lat="43.14728" lon="5.87204">
        <ele>116.2</ele>
        <time>2022-04-08T09:31:55Z</time>
      </trkpt>
      <trkpt lat="43.14726" lon="5.87218">
        <ele>115.2</ele>
        <time>2022-04-08T09:31:59Z</time>
      </trkpt>
      <trkpt lat="43.14721" lon="5.87266">
        <ele>114.2</ele>
        <time>2022-04-08T09:32:10Z</time>
      </trkpt>
      <trkpt lat="43.14718" lon="5.87281">
        <ele>114</ele>
        <time>2022-04-08T09:32:13Z</time>
      </trkpt>
      <trkpt lat="43.1472" lon="5.87309">
        <ele>113.6</ele>
        <time>2022-04-08T09:32:17Z</time>
      </trkpt>
      <trkpt lat="43.14724" lon="5.87321">
        <ele>113.4</ele>
        <time>2022-04-08T09:32:19Z</time>
      </trkpt>
      <trkpt lat="43.14725" lon="5.87326">
        <ele>113.2</ele>
        <time>2022-04-08T09:32:20Z</time>
      </trkpt>
      <trkpt lat="43.14727" lon="5.87346">
        <ele>112.6</ele>
        <time>2022-04-08T09:32:24Z</time>
      </trkpt>
      <trkpt lat="43.1473" lon="5.87357">
        <ele>112.4</ele>
        <time>2022-04-08T09:32:26Z</time>
      </trkpt>
      <trkpt lat="43.14732" lon="5.87368">
        <ele>112</ele>
        <time>2022-04-08T09:32:28Z</time>
      </trkpt>
      <trkpt lat="43.14739" lon="5.87415">
        <ele>111.4</ele>
        <time>2022-04-08T09:32:40Z</time>
      </trkpt>
      <trkpt lat="43.14747" lon="5.87429">
        <ele>111.8</ele>
        <time>2022-04-08T09:32:46Z</time>
      </trkpt>
      <trkpt lat="43.14752" lon="5.87425">
        <ele>112.2</ele>
        <time>2022-04-08T09:32:49Z</time>
      </trkpt>
      <trkpt lat="43.14752" lon="5.87419">
        <ele>112.8</ele>
        <time>2022-04-08T09:32:52Z</time>
      </trkpt>
      <trkpt lat="43.14752" lon="5.87417">
        <ele>113</ele>
        <time>2022-04-08T09:32:54Z</time>
      </trkpt>
      <trkpt lat="43.14754" lon="5.87413">
        <ele>114.2</ele>
        <time>2022-04-08T09:32:58Z</time>
      </trkpt>
      <trkpt lat="43.14754" lon="5.87411">
        <ele>114.6</ele>
        <time>2022-04-08T09:32:59Z</time>
      </trkpt>
      <trkpt lat="43.14754" lon="5.87404">
        <ele>115.4</ele>
        <time>2022-04-08T09:33:02Z</time>
      </trkpt>
      <trkpt lat="43.14754" lon="5.87396">
        <ele>116</ele>
        <time>2022-04-08T09:33:06Z</time>
      </trkpt>
      <trkpt lat="43.14753" lon="5.87389">
        <ele>116.6</ele>
        <time>2022-04-08T09:33:09Z</time>
      </trkpt>
      <trkpt lat="43.14753" lon="5.8738">
        <ele>118</ele>
        <time>2022-04-08T09:33:13Z</time>
      </trkpt>
      <trkpt lat="43.14754" lon="5.87372">
        <ele>119</ele>
        <time>2022-04-08T09:33:17Z</time>
      </trkpt>
      <trkpt lat="43.14755" lon="5.87366">
        <ele>120</ele>
        <time>2022-04-08T09:33:20Z</time>
      </trkpt>
      <trkpt lat="43.14757" lon="5.87366">
        <ele>120.2</ele>
        <time>2022-04-08T09:33:21Z</time>
      </trkpt>
      <trkpt lat="43.14759" lon="5.87365">
        <ele>120.6</ele>
        <time>2022-04-08T09:33:23Z</time>
      </trkpt>
      <trkpt lat="43.14762" lon="5.87367">
        <ele>121.4</ele>
        <time>2022-04-08T09:33:25Z</time>
      </trkpt>
      <trkpt lat="43.14764" lon="5.8737">
        <ele>122</ele>
        <time>2022-04-08T09:33:27Z</time>
      </trkpt>
      <trkpt lat="43.14766" lon="5.87373">
        <ele>122.6</ele>
        <time>2022-04-08T09:33:29Z</time>
      </trkpt>
      <trkpt lat="43.14772" lon="5.8738">
        <ele>123.8</ele>
        <time>2022-04-08T09:33:34Z</time>
      </trkpt>
      <trkpt lat="43.14777" lon="5.87388">
        <ele>125</ele>
        <time>2022-04-08T09:33:39Z</time>
      </trkpt>
      <trkpt lat="43.14783" lon="5.87395">
        <ele>126.2</ele>
        <time>2022-04-08T09:33:44Z</time>
      </trkpt>
      <trkpt lat="43.14784" lon="5.87399">
        <ele>126.4</ele>
        <time>2022-04-08T09:33:46Z</time>
      </trkpt>
      <trkpt lat="43.14789" lon="5.87404">
        <ele>127.2</ele>
        <time>2022-04-08T09:33:50Z</time>
      </trkpt>
      <trkpt lat="43.14797" lon="5.87409">
        <ele>128.2</ele>
        <time>2022-04-08T09:33:54Z</time>
      </trkpt>
      <trkpt lat="43.14804" lon="5.87416">
        <ele>129.4</ele>
        <time>2022-04-08T09:33:58Z</time>
      </trkpt>
      <trkpt lat="43.14809" lon="5.87427">
        <ele>130.6</ele>
        <time>2022-04-08T09:34:02Z</time>
      </trkpt>
      <trkpt lat="43.14813" lon="5.87433">
        <ele>131.6</ele>
        <time>2022-04-08T09:34:05Z</time>
      </trkpt>
      <trkpt lat="43.14815" lon="5.87444">
        <ele>132.4</ele>
        <time>2022-04-08T09:34:09Z</time>
      </trkpt>
      <trkpt lat="43.14816" lon="5.87446">
        <ele>133</ele>
        <time>2022-04-08T09:34:10Z</time>
      </trkpt>
      <trkpt lat="43.1482" lon="5.87465">
        <ele>134.2</ele>
        <time>2022-04-08T09:34:17Z</time>
      </trkpt>
      <trkpt lat="43.14823" lon="5.8748">
        <ele>135.2</ele>
        <time>2022-04-08T09:34:22Z</time>
      </trkpt>
      <trkpt lat="43.14825" lon="5.87495">
        <ele>136.4</ele>
        <time>2022-04-08T09:34:28Z</time>
      </trkpt>
      <trkpt lat="43.14826" lon="5.8751">
        <ele>137.4</ele>
        <time>2022-04-08T09:34:33Z</time>
      </trkpt>
      <trkpt lat="43.14828" lon="5.8752">
        <ele>138.2</ele>
        <time>2022-04-08T09:34:37Z</time>
      </trkpt>
      <trkpt lat="43.1483" lon="5.87533">
        <ele>139.4</ele>
        <time>2022-04-08T09:34:42Z</time>
      </trkpt>
      <trkpt lat="43.14832" lon="5.87539">
        <ele>140.8</ele>
        <time>2022-04-08T09:34:45Z</time>
      </trkpt>
      <trkpt lat="43.14834" lon="5.87547">
        <ele>142</ele>
        <time>2022-04-08T09:34:49Z</time>
      </trkpt>
      <trkpt lat="43.14836" lon="5.87556">
        <ele>142.8</ele>
        <time>2022-04-08T09:34:53Z</time>
      </trkpt>
      <trkpt lat="43.14837" lon="5.87568">
        <ele>143.8</ele>
        <time>2022-04-08T09:34:57Z</time>
      </trkpt>
      <trkpt lat="43.14838" lon="5.87577">
        <ele>145</ele>
        <time>2022-04-08T09:35:01Z</time>
      </trkpt>
      <trkpt lat="43.14839" lon="5.87587">
        <ele>146.2</ele>
        <time>2022-04-08T09:35:05Z</time>
      </trkpt>
      <trkpt lat="43.14841" lon="5.87596">
        <ele>147.4</ele>
        <time>2022-04-08T09:35:09Z</time>
      </trkpt>
      <trkpt lat="43.14843" lon="5.87606">
        <ele>148.2</ele>
        <time>2022-04-08T09:35:13Z</time>
      </trkpt>
      <trkpt lat="43.14844" lon="5.87616">
        <ele>149.4</ele>
        <time>2022-04-08T09:35:17Z</time>
      </trkpt>
      <trkpt lat="43.14847" lon="5.87622">
        <ele>150.6</ele>
        <time>2022-04-08T09:35:20Z</time>
      </trkpt>
      <trkpt lat="43.14849" lon="5.8763">
        <ele>151.6</ele>
        <time>2022-04-08T09:35:24Z</time>
      </trkpt>
      <trkpt lat="43.14852" lon="5.87638">
        <ele>152.8</ele>
        <time>2022-04-08T09:35:28Z</time>
      </trkpt>
      <trkpt lat="43.14854" lon="5.87645">
        <ele>154</ele>
        <time>2022-04-08T09:35:32Z</time>
      </trkpt>
      <trkpt lat="43.14856" lon="5.87652">
        <ele>155</ele>
        <time>2022-04-08T09:35:36Z</time>
      </trkpt>
      <trkpt lat="43.14857" lon="5.87656">
        <ele>155.6</ele>
        <time>2022-04-08T09:35:38Z</time>
      </trkpt>
      <trkpt lat="43.1486" lon="5.87661">
        <ele>156.2</ele>
        <time>2022-04-08T09:35:41Z</time>
      </trkpt>
      <trkpt lat="43.14863" lon="5.87662">
        <ele>156.8</ele>
        <time>2022-04-08T09:35:43Z</time>
      </trkpt>
      <trkpt lat="43.14866" lon="5.87663">
        <ele>157.4</ele>
        <time>2022-04-08T09:35:45Z</time>
      </trkpt>
      <trkpt lat="43.14867" lon="5.87664">
        <ele>157.6</ele>
        <time>2022-04-08T09:35:46Z</time>
      </trkpt>
      <trkpt lat="43.14872" lon="5.87663">
        <ele>158.2</ele>
        <time>2022-04-08T09:35:49Z</time>
      </trkpt>
      <trkpt lat="43.1488" lon="5.87662">
        <ele>159.8</ele>
        <time>2022-04-08T09:35:54Z</time>
      </trkpt>
      <trkpt lat="43.14884" lon="5.87666">
        <ele>160.8</ele>
        <time>2022-04-08T09:35:57Z</time>
      </trkpt>
      <trkpt lat="43.14888" lon="5.87669">
        <ele>161.4</ele>
        <time>2022-04-08T09:35:59Z</time>
      </trkpt>
      <trkpt lat="43.14891" lon="5.87672">
        <ele>162</ele>
        <time>2022-04-08T09:36:01Z</time>
      </trkpt>
      <trkpt lat="43.14901" lon="5.8768">
        <ele>163.2</ele>
        <time>2022-04-08T09:36:07Z</time>
      </trkpt>
      <trkpt lat="43.14915" lon="5.87688">
        <ele>164.2</ele>
        <time>2022-04-08T09:36:14Z</time>
      </trkpt>
      <trkpt lat="43.14929" lon="5.87692">
        <ele>165.2</ele>
        <time>2022-04-08T09:36:20Z</time>
      </trkpt>
      <trkpt lat="43.14948" lon="5.87698">
        <ele>166.2</ele>
        <time>2022-04-08T09:36:30Z</time>
      </trkpt>
      <trkpt lat="43.15" lon="5.8769">
        <ele>165.2</ele>
        <time>2022-04-08T09:36:55Z</time>
      </trkpt>
      <trkpt lat="43.15048" lon="5.87659">
        <ele>164.8</ele>
        <time>2022-04-08T09:37:17Z</time>
      </trkpt>
      <trkpt lat="43.15051" lon="5.87658">
        <ele>165.6</ele>
        <time>2022-04-08T09:37:19Z</time>
      </trkpt>
      <trkpt lat="43.15058" lon="5.87656">
        <ele>166.4</ele>
        <time>2022-04-08T09:37:22Z</time>
      </trkpt>
      <trkpt lat="43.15063" lon="5.87655">
        <ele>166.6</ele>
        <time>2022-04-08T09:37:24Z</time>
      </trkpt>
      <trkpt lat="43.15076" lon="5.87657">
        <ele>166.6</ele>
        <time>2022-04-08T09:37:28Z</time>
      </trkpt>
      <trkpt lat="43.15081" lon="5.87666">
        <ele>165.6</ele>
        <time>2022-04-08T09:37:48Z</time>
      </trkpt>
      <trkpt lat="43.15078" lon="5.87668">
        <ele>165.8</ele>
        <time>2022-04-08T09:38:16Z</time>
      </trkpt>
      <trkpt lat="43.15066" lon="5.87685">
        <ele>165.6</ele>
        <time>2022-04-08T09:38:22Z</time>
      </trkpt>
      <trkpt lat="43.15064" lon="5.87761">
        <ele>166.2</ele>
        <time>2022-04-08T09:38:41Z</time>
      </trkpt>
      <trkpt lat="43.15065" lon="5.87773">
        <ele>166.8</ele>
        <time>2022-04-08T09:38:45Z</time>
      </trkpt>
      <trkpt lat="43.15069" lon="5.87799">
        <ele>168</ele>
        <time>2022-04-08T09:38:53Z</time>
      </trkpt>
      <trkpt lat="43.15074" lon="5.87817">
        <ele>169.2</ele>
        <time>2022-04-08T09:38:59Z</time>
      </trkpt>
      <trkpt lat="43.15081" lon="5.87833">
        <ele>170.4</ele>
        <time>2022-04-08T09:39:05Z</time>
      </trkpt>
      <trkpt lat="43.15091" lon="5.87852">
        <ele>171.4</ele>
        <time>2022-04-08T09:39:12Z</time>
      </trkpt>
      <trkpt lat="43.15094" lon="5.87862">
        <ele>172.4</ele>
        <time>2022-04-08T09:39:18Z</time>
      </trkpt>
      <trkpt lat="43.15094" lon="5.87869">
        <ele>173.4</ele>
        <time>2022-04-08T09:39:28Z</time>
      </trkpt>
      <trkpt lat="43.15092" lon="5.87874">
        <ele>173.4</ele>
        <time>2022-04-08T09:39:30Z</time>
      </trkpt>
      <trkpt lat="43.15085" lon="5.87887">
        <ele>173.6</ele>
        <time>2022-04-08T09:39:35Z</time>
      </trkpt>
      <trkpt lat="43.15069" lon="5.87957">
        <ele>172.8</ele>
        <time>2022-04-08T09:39:53Z</time>
      </trkpt>
      <trkpt lat="43.15073" lon="5.87968">
        <ele>172.8</ele>
        <time>2022-04-08T09:39:56Z</time>
      </trkpt>
      <trkpt lat="43.15081" lon="5.87985">
        <ele>172.8</ele>
        <time>2022-04-08T09:40:02Z</time>
      </trkpt>
      <trkpt lat="43.15083" lon="5.87991">
        <ele>173</ele>
        <time>2022-04-08T09:40:04Z</time>
      </trkpt>
      <trkpt lat="43.15086" lon="5.8801">
        <ele>174.2</ele>
        <time>2022-04-08T09:40:10Z</time>
      </trkpt>
      <trkpt lat="43.15106" lon="5.88068">
        <ele>174.8</ele>
        <time>2022-04-08T09:40:27Z</time>
      </trkpt>
      <trkpt lat="43.15124" lon="5.88098">
        <ele>176</ele>
        <time>2022-04-08T09:40:39Z</time>
      </trkpt>
      <trkpt lat="43.15134" lon="5.88114">
        <ele>177.2</ele>
        <time>2022-04-08T09:40:45Z</time>
      </trkpt>
      <trkpt lat="43.15146" lon="5.88128">
        <ele>178.4</ele>
        <time>2022-04-08T09:40:51Z</time>
      </trkpt>
      <trkpt lat="43.15149" lon="5.88139">
        <ele>179.2</ele>
        <time>2022-04-08T09:40:56Z</time>
      </trkpt>
      <trkpt lat="43.15148" lon="5.88141">
        <ele>179.4</ele>
        <time>2022-04-08T09:40:57Z</time>
      </trkpt>
      <trkpt lat="43.15141" lon="5.88147">
        <ele>180.8</ele>
        <time>2022-04-08T09:41:01Z</time>
      </trkpt>
      <trkpt lat="43.15131" lon="5.88152">
        <ele>181.8</ele>
        <time>2022-04-08T09:41:06Z</time>
      </trkpt>
      <trkpt lat="43.15107" lon="5.88158">
        <ele>182.8</ele>
        <time>2022-04-08T09:41:15Z</time>
      </trkpt>
      <trkpt lat="43.15066" lon="5.88159">
        <ele>183.8</ele>
        <time>2022-04-08T09:41:31Z</time>
      </trkpt>
      <trkpt lat="43.15052" lon="5.88162">
        <ele>185</ele>
        <time>2022-04-08T09:41:37Z</time>
      </trkpt>
      <trkpt lat="43.15047" lon="5.88166">
        <ele>185.4</ele>
        <time>2022-04-08T09:41:40Z</time>
      </trkpt>
      <trkpt lat="43.15044" lon="5.8817">
        <ele>185.8</ele>
        <time>2022-04-08T09:41:43Z</time>
      </trkpt>
      <trkpt lat="43.15043" lon="5.88171">
        <ele>186.2</ele>
        <time>2022-04-08T09:41:44Z</time>
      </trkpt>
      <trkpt lat="43.15034" lon="5.88174">
        <ele>187.2</ele>
        <time>2022-04-08T09:41:48Z</time>
      </trkpt>
      <trkpt lat="43.15032" lon="5.88175">
        <ele>187.4</ele>
        <time>2022-04-08T09:41:49Z</time>
      </trkpt>
      <trkpt lat="43.15009" lon="5.88198">
        <ele>188.2</ele>
        <time>2022-04-08T09:41:59Z</time>
      </trkpt>
      <trkpt lat="43.15008" lon="5.88209">
        <ele>188</ele>
        <time>2022-04-08T09:42:02Z</time>
      </trkpt>
      <trkpt lat="43.15001" lon="5.88253">
        <ele>187</ele>
        <time>2022-04-08T09:42:15Z</time>
      </trkpt>
      <trkpt lat="43.14997" lon="5.88259">
        <ele>186</ele>
        <time>2022-04-08T09:42:18Z</time>
      </trkpt>
      <trkpt lat="43.14993" lon="5.88271">
        <ele>184.8</ele>
        <time>2022-04-08T09:42:21Z</time>
      </trkpt>
      <trkpt lat="43.14994" lon="5.88281">
        <ele>183.8</ele>
        <time>2022-04-08T09:42:23Z</time>
      </trkpt>
      <trkpt lat="43.14997" lon="5.88291">
        <ele>182.4</ele>
        <time>2022-04-08T09:42:25Z</time>
      </trkpt>
      <trkpt lat="43.14999" lon="5.88297">
        <ele>182</ele>
        <time>2022-04-08T09:42:26Z</time>
      </trkpt>
      <trkpt lat="43.15004" lon="5.88304">
        <ele>181.2</ele>
        <time>2022-04-08T09:42:28Z</time>
      </trkpt>
      <trkpt lat="43.1501" lon="5.88306">
        <ele>179.6</ele>
        <time>2022-04-08T09:42:30Z</time>
      </trkpt>
      <trkpt lat="43.15015" lon="5.88309">
        <ele>179</ele>
        <time>2022-04-08T09:42:32Z</time>
      </trkpt>
      <trkpt lat="43.15047" lon="5.88325">
        <ele>180.6</ele>
        <time>2022-04-08T09:42:46Z</time>
      </trkpt>
      <trkpt lat="43.1505" lon="5.88326">
        <ele>180.8</ele>
        <time>2022-04-08T09:42:47Z</time>
      </trkpt>
      <trkpt lat="43.15056" lon="5.88329">
        <ele>182.2</ele>
        <time>2022-04-08T09:42:50Z</time>
      </trkpt>
      <trkpt lat="43.15063" lon="5.88332">
        <ele>183.4</ele>
        <time>2022-04-08T09:42:53Z</time>
      </trkpt>
      <trkpt lat="43.15074" lon="5.88337">
        <ele>184.4</ele>
        <time>2022-04-08T09:43:01Z</time>
      </trkpt>
      <trkpt lat="43.15091" lon="5.88341">
        <ele>185.6</ele>
        <time>2022-04-08T09:43:08Z</time>
      </trkpt>
      <trkpt lat="43.15093" lon="5.88343">
        <ele>185.8</ele>
        <time>2022-04-08T09:43:09Z</time>
      </trkpt>
      <trkpt lat="43.15139" lon="5.88371">
        <ele>186.2</ele>
        <time>2022-04-08T09:43:22Z</time>
      </trkpt>
      <trkpt lat="43.15152" lon="5.88377">
        <ele>184.8</ele>
        <time>2022-04-08T09:43:26Z</time>
      </trkpt>
      <trkpt lat="43.15155" lon="5.88378">
        <ele>184.6</ele>
        <time>2022-04-08T09:43:27Z</time>
      </trkpt>
      <trkpt lat="43.152" lon="5.88401">
        <ele>184.6</ele>
        <time>2022-04-08T09:43:43Z</time>
      </trkpt>
      <trkpt lat="43.15216" lon="5.88417">
        <ele>185.2</ele>
        <time>2022-04-08T09:43:50Z</time>
      </trkpt>
      <trkpt lat="43.15237" lon="5.88414">
        <ele>185.4</ele>
        <time>2022-04-08T09:43:55Z</time>
      </trkpt>
      <trkpt lat="43.15247" lon="5.8841">
        <ele>185.6</ele>
        <time>2022-04-08T09:43:57Z</time>
      </trkpt>
      <trkpt lat="43.15278" lon="5.88403">
        <ele>185.6</ele>
        <time>2022-04-08T09:44:04Z</time>
      </trkpt>
      <trkpt lat="43.15318" lon="5.8841">
        <ele>185</ele>
        <time>2022-04-08T09:44:14Z</time>
      </trkpt>
      <trkpt lat="43.15333" lon="5.8842">
        <ele>184.6</ele>
        <time>2022-04-08T09:44:18Z</time>
      </trkpt>
      <trkpt lat="43.15341" lon="5.88426">
        <ele>184.6</ele>
        <time>2022-04-08T09:44:21Z</time>
      </trkpt>
      <trkpt lat="43.15349" lon="5.88434">
        <ele>184.8</ele>
        <time>2022-04-08T09:44:25Z</time>
      </trkpt>
      <trkpt lat="43.1536" lon="5.8844">
        <ele>184.8</ele>
        <time>2022-04-08T09:44:28Z</time>
      </trkpt>
      <trkpt lat="43.1538" lon="5.88448">
        <ele>185</ele>
        <time>2022-04-08T09:44:32Z</time>
      </trkpt>
      <trkpt lat="43.15385" lon="5.88454">
        <ele>183.6</ele>
        <time>2022-04-08T09:44:40Z</time>
      </trkpt>
      <trkpt lat="43.1537" lon="5.88453">
        <ele>181.6</ele>
        <time>2022-04-08T09:44:51Z</time>
      </trkpt>
      <trkpt lat="43.15362" lon="5.88454">
        <ele>181.6</ele>
        <time>2022-04-08T09:44:53Z</time>
      </trkpt>
      <trkpt lat="43.15349" lon="5.88453">
        <ele>181.4</ele>
        <time>2022-04-08T09:44:56Z</time>
      </trkpt>
      <trkpt lat="43.15346" lon="5.88452">
        <ele>181.2</ele>
        <time>2022-04-08T09:44:57Z</time>
      </trkpt>
      <trkpt lat="43.15336" lon="5.88446">
        <ele>180.2</ele>
        <time>2022-04-08T09:45:00Z</time>
      </trkpt>
      <trkpt lat="43.15333" lon="5.88444">
        <ele>179</ele>
        <time>2022-04-08T09:45:01Z</time>
      </trkpt>
      <trkpt lat="43.15325" lon="5.88441">
        <ele>178</ele>
        <time>2022-04-08T09:45:03Z</time>
      </trkpt>
      <trkpt lat="43.15318" lon="5.8844">
        <ele>176.8</ele>
        <time>2022-04-08T09:45:05Z</time>
      </trkpt>
      <trkpt lat="43.15312" lon="5.8844">
        <ele>174.8</ele>
        <time>2022-04-08T09:45:07Z</time>
      </trkpt>
      <trkpt lat="43.15304" lon="5.88439">
        <ele>173.8</ele>
        <time>2022-04-08T09:45:09Z</time>
      </trkpt>
      <trkpt lat="43.15294" lon="5.88439">
        <ele>172.4</ele>
        <time>2022-04-08T09:45:12Z</time>
      </trkpt>
      <trkpt lat="43.15288" lon="5.8844">
        <ele>171.2</ele>
        <time>2022-04-08T09:45:14Z</time>
      </trkpt>
      <trkpt lat="43.15281" lon="5.88442">
        <ele>169.8</ele>
        <time>2022-04-08T09:45:16Z</time>
      </trkpt>
      <trkpt lat="43.15272" lon="5.88446">
        <ele>168.8</ele>
        <time>2022-04-08T09:45:18Z</time>
      </trkpt>
      <trkpt lat="43.15267" lon="5.88449">
        <ele>168.6</ele>
        <time>2022-04-08T09:45:19Z</time>
      </trkpt>
      <trkpt lat="43.15258" lon="5.88454">
        <ele>167.6</ele>
        <time>2022-04-08T09:45:21Z</time>
      </trkpt>
      <trkpt lat="43.1524" lon="5.88463">
        <ele>166.4</ele>
        <time>2022-04-08T09:45:25Z</time>
      </trkpt>
      <trkpt lat="43.1523" lon="5.88468">
        <ele>165</ele>
        <time>2022-04-08T09:45:27Z</time>
      </trkpt>
      <trkpt lat="43.15224" lon="5.88474">
        <ele>163.8</ele>
        <time>2022-04-08T09:45:29Z</time>
      </trkpt>
      <trkpt lat="43.1522" lon="5.88476">
        <ele>163.2</ele>
        <time>2022-04-08T09:45:30Z</time>
      </trkpt>
      <trkpt lat="43.15216" lon="5.88477">
        <ele>162.6</ele>
        <time>2022-04-08T09:45:31Z</time>
      </trkpt>
      <trkpt lat="43.15211" lon="5.88477">
        <ele>161.6</ele>
        <time>2022-04-08T09:45:33Z</time>
      </trkpt>
      <trkpt lat="43.15205" lon="5.88477">
        <ele>160.4</ele>
        <time>2022-04-08T09:45:35Z</time>
      </trkpt>
      <trkpt lat="43.15195" lon="5.88483">
        <ele>159.2</ele>
        <time>2022-04-08T09:45:39Z</time>
      </trkpt>
      <trkpt lat="43.15197" lon="5.88489">
        <ele>158</ele>
        <time>2022-04-08T09:45:42Z</time>
      </trkpt>
      <trkpt lat="43.15199" lon="5.88491">
        <ele>157.2</ele>
        <time>2022-04-08T09:45:43Z</time>
      </trkpt>
      <trkpt lat="43.152" lon="5.88494">
        <ele>156.6</ele>
        <time>2022-04-08T09:45:44Z</time>
      </trkpt>
      <trkpt lat="43.15203" lon="5.885">
        <ele>155.6</ele>
        <time>2022-04-08T09:45:46Z</time>
      </trkpt>
      <trkpt lat="43.15204" lon="5.88505">
        <ele>155</ele>
        <time>2022-04-08T09:45:47Z</time>
      </trkpt>
      <trkpt lat="43.15201" lon="5.88511">
        <ele>154.4</ele>
        <time>2022-04-08T09:45:49Z</time>
      </trkpt>
      <trkpt lat="43.15182" lon="5.885">
        <ele>153.4</ele>
        <time>2022-04-08T09:45:55Z</time>
      </trkpt>
      <trkpt lat="43.15168" lon="5.88494">
        <ele>152.2</ele>
        <time>2022-04-08T09:45:58Z</time>
      </trkpt>
      <trkpt lat="43.15162" lon="5.88491">
        <ele>151.4</ele>
        <time>2022-04-08T09:45:59Z</time>
      </trkpt>
      <trkpt lat="43.15156" lon="5.8849">
        <ele>150.8</ele>
        <time>2022-04-08T09:46:00Z</time>
      </trkpt>
      <trkpt lat="43.15145" lon="5.88485">
        <ele>149.8</ele>
        <time>2022-04-08T09:46:02Z</time>
      </trkpt>
      <trkpt lat="43.1514" lon="5.88482">
        <ele>149.2</ele>
        <time>2022-04-08T09:46:03Z</time>
      </trkpt>
      <trkpt lat="43.15128" lon="5.88476">
        <ele>148</ele>
        <time>2022-04-08T09:46:05Z</time>
      </trkpt>
      <trkpt lat="43.15117" lon="5.88474">
        <ele>146.2</ele>
        <time>2022-04-08T09:46:07Z</time>
      </trkpt>
      <trkpt lat="43.15112" lon="5.88473">
        <ele>145.4</ele>
        <time>2022-04-08T09:46:08Z</time>
      </trkpt>
      <trkpt lat="43.15106" lon="5.88471">
        <ele>143.4</ele>
        <time>2022-04-08T09:46:09Z</time>
      </trkpt>
      <trkpt lat="43.15095" lon="5.88468">
        <ele>142</ele>
        <time>2022-04-08T09:46:11Z</time>
      </trkpt>
      <trkpt lat="43.15082" lon="5.88463">
        <ele>140.6</ele>
        <time>2022-04-08T09:46:13Z</time>
      </trkpt>
      <trkpt lat="43.15072" lon="5.88459">
        <ele>139.2</ele>
        <time>2022-04-08T09:46:15Z</time>
      </trkpt>
      <trkpt lat="43.15066" lon="5.88455">
        <ele>138</ele>
        <time>2022-04-08T09:46:17Z</time>
      </trkpt>
      <trkpt lat="43.15058" lon="5.88454">
        <ele>137.2</ele>
        <time>2022-04-08T09:46:20Z</time>
      </trkpt>
      <trkpt lat="43.1503" lon="5.88444">
        <ele>138.2</ele>
        <time>2022-04-08T09:46:31Z</time>
      </trkpt>
      <trkpt lat="43.15023" lon="5.88442">
        <ele>138.6</ele>
        <time>2022-04-08T09:46:34Z</time>
      </trkpt>
      <trkpt lat="43.15009" lon="5.88444">
        <ele>138.8</ele>
        <time>2022-04-08T09:46:38Z</time>
      </trkpt>
      <trkpt lat="43.1499" lon="5.88439">
        <ele>138.8</ele>
        <time>2022-04-08T09:46:42Z</time>
      </trkpt>
      <trkpt lat="43.14965" lon="5.88438">
        <ele>138.8</ele>
        <time>2022-04-08T09:46:47Z</time>
      </trkpt>
      <trkpt lat="43.14942" lon="5.88452">
        <ele>138</ele>
        <time>2022-04-08T09:46:54Z</time>
      </trkpt>
      <trkpt lat="43.14938" lon="5.88455">
        <ele>138</ele>
        <time>2022-04-08T09:46:55Z</time>
      </trkpt>
      <trkpt lat="43.1493" lon="5.88461">
        <ele>138</ele>
        <time>2022-04-08T09:46:57Z</time>
      </trkpt>
      <trkpt lat="43.14919" lon="5.88466">
        <ele>137.8</ele>
        <time>2022-04-08T09:46:59Z</time>
      </trkpt>
      <trkpt lat="43.14899" lon="5.88481">
        <ele>136.8</ele>
        <time>2022-04-08T09:47:03Z</time>
      </trkpt>
      <trkpt lat="43.14885" lon="5.88484">
        <ele>136.2</ele>
        <time>2022-04-08T09:47:05Z</time>
      </trkpt>
      <trkpt lat="43.14871" lon="5.88478">
        <ele>135.6</ele>
        <time>2022-04-08T09:47:07Z</time>
      </trkpt>
      <trkpt lat="43.14865" lon="5.88473">
        <ele>135.2</ele>
        <time>2022-04-08T09:47:08Z</time>
      </trkpt>
      <trkpt lat="43.14855" lon="5.88467">
        <ele>134</ele>
        <time>2022-04-08T09:47:10Z</time>
      </trkpt>
      <trkpt lat="43.14846" lon="5.8847">
        <ele>132.4</ele>
        <time>2022-04-08T09:47:12Z</time>
      </trkpt>
      <trkpt lat="43.14842" lon="5.88474">
        <ele>131.4</ele>
        <time>2022-04-08T09:47:13Z</time>
      </trkpt>
      <trkpt lat="43.14833" lon="5.88486">
        <ele>130.2</ele>
        <time>2022-04-08T09:47:15Z</time>
      </trkpt>
      <trkpt lat="43.1483" lon="5.88502">
        <ele>129</ele>
        <time>2022-04-08T09:47:17Z</time>
      </trkpt>
      <trkpt lat="43.14831" lon="5.88511">
        <ele>127.6</ele>
        <time>2022-04-08T09:47:18Z</time>
      </trkpt>
      <trkpt lat="43.14839" lon="5.88539">
        <ele>126.2</ele>
        <time>2022-04-08T09:47:21Z</time>
      </trkpt>
      <trkpt lat="43.14844" lon="5.88549">
        <ele>125.6</ele>
        <time>2022-04-08T09:47:22Z</time>
      </trkpt>
      <trkpt lat="43.14849" lon="5.88558">
        <ele>125</ele>
        <time>2022-04-08T09:47:23Z</time>
      </trkpt>
      <trkpt lat="43.14858" lon="5.88573">
        <ele>124</ele>
        <time>2022-04-08T09:47:25Z</time>
      </trkpt>
      <trkpt lat="43.14867" lon="5.88586">
        <ele>122.6</ele>
        <time>2022-04-08T09:47:27Z</time>
      </trkpt>
      <trkpt lat="43.14871" lon="5.88599">
        <ele>121</ele>
        <time>2022-04-08T09:47:29Z</time>
      </trkpt>
      <trkpt lat="43.14866" lon="5.88608">
        <ele>119.2</ele>
        <time>2022-04-08T09:47:31Z</time>
      </trkpt>
      <trkpt lat="43.14862" lon="5.88613">
        <ele>118</ele>
        <time>2022-04-08T09:47:32Z</time>
      </trkpt>
      <trkpt lat="43.14858" lon="5.88619">
        <ele>116.6</ele>
        <time>2022-04-08T09:47:33Z</time>
      </trkpt>
      <trkpt lat="43.1485" lon="5.88632">
        <ele>114.8</ele>
        <time>2022-04-08T09:47:35Z</time>
      </trkpt>
      <trkpt lat="43.14847" lon="5.88638">
        <ele>113.4</ele>
        <time>2022-04-08T09:47:36Z</time>
      </trkpt>
      <trkpt lat="43.14845" lon="5.88642">
        <ele>112.2</ele>
        <time>2022-04-08T09:47:37Z</time>
      </trkpt>
      <trkpt lat="43.14844" lon="5.88645">
        <ele>110.6</ele>
        <time>2022-04-08T09:47:39Z</time>
      </trkpt>
      <trkpt lat="43.14843" lon="5.88645">
        <ele>109.6</ele>
        <time>2022-04-08T09:47:41Z</time>
      </trkpt>
      <trkpt lat="43.14841" lon="5.88648">
        <ele>107</ele>
        <time>2022-04-08T09:48:02Z</time>
      </trkpt>
      <trkpt lat="43.14837" lon="5.88685">
        <ele>106.8</ele>
        <time>2022-04-08T09:48:08Z</time>
      </trkpt>
      <trkpt lat="43.14837" lon="5.88759">
        <ele>106.4</ele>
        <time>2022-04-08T09:48:16Z</time>
      </trkpt>
      <trkpt lat="43.14836" lon="5.88769">
        <ele>106</ele>
        <time>2022-04-08T09:48:17Z</time>
      </trkpt>
      <trkpt lat="43.14826" lon="5.88783">
        <ele>105.2</ele>
        <time>2022-04-08T09:48:19Z</time>
      </trkpt>
      <trkpt lat="43.14816" lon="5.88796">
        <ele>104</ele>
        <time>2022-04-08T09:48:21Z</time>
      </trkpt>
      <trkpt lat="43.14813" lon="5.88826">
        <ele>103</ele>
        <time>2022-04-08T09:48:24Z</time>
      </trkpt>
      <trkpt lat="43.14813" lon="5.88857">
        <ele>101.8</ele>
        <time>2022-04-08T09:48:27Z</time>
      </trkpt>
      <trkpt lat="43.14795" lon="5.88871">
        <ele>100.4</ele>
        <time>2022-04-08T09:48:30Z</time>
      </trkpt>
      <trkpt lat="43.14769" lon="5.88879">
        <ele>99.4</ele>
        <time>2022-04-08T09:48:33Z</time>
      </trkpt>
      <trkpt lat="43.14751" lon="5.88885">
        <ele>98.6</ele>
        <time>2022-04-08T09:48:35Z</time>
      </trkpt>
      <trkpt lat="43.14743" lon="5.8889">
        <ele>98.2</ele>
        <time>2022-04-08T09:48:36Z</time>
      </trkpt>
      <trkpt lat="43.14718" lon="5.8891">
        <ele>96.6</ele>
        <time>2022-04-08T09:48:39Z</time>
      </trkpt>
      <trkpt lat="43.14702" lon="5.88925">
        <ele>95.4</ele>
        <time>2022-04-08T09:48:41Z</time>
      </trkpt>
      <trkpt lat="43.14688" lon="5.88944">
        <ele>94.2</ele>
        <time>2022-04-08T09:48:43Z</time>
      </trkpt>
      <trkpt lat="43.14676" lon="5.88966">
        <ele>92.8</ele>
        <time>2022-04-08T09:48:45Z</time>
      </trkpt>
      <trkpt lat="43.14663" lon="5.88988">
        <ele>91.4</ele>
        <time>2022-04-08T09:48:47Z</time>
      </trkpt>
      <trkpt lat="43.14647" lon="5.89007">
        <ele>90.4</ele>
        <time>2022-04-08T09:48:49Z</time>
      </trkpt>
      <trkpt lat="43.14628" lon="5.89024">
        <ele>89.2</ele>
        <time>2022-04-08T09:48:51Z</time>
      </trkpt>
      <trkpt lat="43.14618" lon="5.89031">
        <ele>88.4</ele>
        <time>2022-04-08T09:48:52Z</time>
      </trkpt>
      <trkpt lat="43.14607" lon="5.89037">
        <ele>87.6</ele>
        <time>2022-04-08T09:48:53Z</time>
      </trkpt>
      <trkpt lat="43.14585" lon="5.89044">
        <ele>86</ele>
        <time>2022-04-08T09:48:55Z</time>
      </trkpt>
      <trkpt lat="43.14561" lon="5.89051">
        <ele>84.4</ele>
        <time>2022-04-08T09:48:57Z</time>
      </trkpt>
      <trkpt lat="43.14538" lon="5.8906">
        <ele>83.2</ele>
        <time>2022-04-08T09:48:59Z</time>
      </trkpt>
      <trkpt lat="43.14516" lon="5.8907">
        <ele>80.6</ele>
        <time>2022-04-08T09:49:01Z</time>
      </trkpt>
      <trkpt lat="43.14494" lon="5.89079">
        <ele>79.2</ele>
        <time>2022-04-08T09:49:03Z</time>
      </trkpt>
      <trkpt lat="43.14473" lon="5.89089">
        <ele>78</ele>
        <time>2022-04-08T09:49:05Z</time>
      </trkpt>
      <trkpt lat="43.14452" lon="5.89097">
        <ele>76.4</ele>
        <time>2022-04-08T09:49:07Z</time>
      </trkpt>
      <trkpt lat="43.14431" lon="5.89105">
        <ele>75</ele>
        <time>2022-04-08T09:49:09Z</time>
      </trkpt>
      <trkpt lat="43.14412" lon="5.89112">
        <ele>73.6</ele>
        <time>2022-04-08T09:49:11Z</time>
      </trkpt>
      <trkpt lat="43.14392" lon="5.89119">
        <ele>72</ele>
        <time>2022-04-08T09:49:13Z</time>
      </trkpt>
      <trkpt lat="43.14373" lon="5.89127">
        <ele>70.4</ele>
        <time>2022-04-08T09:49:15Z</time>
      </trkpt>
      <trkpt lat="43.14354" lon="5.89136">
        <ele>69.2</ele>
        <time>2022-04-08T09:49:17Z</time>
      </trkpt>
      <trkpt lat="43.14334" lon="5.89145">
        <ele>67.8</ele>
        <time>2022-04-08T09:49:19Z</time>
      </trkpt>
      <trkpt lat="43.14313" lon="5.89151">
        <ele>66.4</ele>
        <time>2022-04-08T09:49:21Z</time>
      </trkpt>
      <trkpt lat="43.14293" lon="5.89155">
        <ele>65.4</ele>
        <time>2022-04-08T09:49:23Z</time>
      </trkpt>
      <trkpt lat="43.14272" lon="5.89159">
        <ele>64.2</ele>
        <time>2022-04-08T09:49:25Z</time>
      </trkpt>
      <trkpt lat="43.14263" lon="5.89163">
        <ele>63.6</ele>
        <time>2022-04-08T09:49:26Z</time>
      </trkpt>
      <trkpt lat="43.14254" lon="5.89169">
        <ele>63</ele>
        <time>2022-04-08T09:49:27Z</time>
      </trkpt>
      <trkpt lat="43.14237" lon="5.89185">
        <ele>61.6</ele>
        <time>2022-04-08T09:49:29Z</time>
      </trkpt>
      <trkpt lat="43.1421" lon="5.89195">
        <ele>60.4</ele>
        <time>2022-04-08T09:49:32Z</time>
      </trkpt>
      <trkpt lat="43.14187" lon="5.89202">
        <ele>59</ele>
        <time>2022-04-08T09:49:35Z</time>
      </trkpt>
      <trkpt lat="43.14177" lon="5.89205">
        <ele>57.6</ele>
        <time>2022-04-08T09:49:37Z</time>
      </trkpt>
      <trkpt lat="43.14169" lon="5.89215">
        <ele>56.2</ele>
        <time>2022-04-08T09:49:40Z</time>
      </trkpt>
      <trkpt lat="43.14168" lon="5.89222">
        <ele>54.8</ele>
        <time>2022-04-08T09:49:43Z</time>
      </trkpt>
      <trkpt lat="43.1417" lon="5.8923">
        <ele>53.8</ele>
        <time>2022-04-08T09:49:46Z</time>
      </trkpt>
      <trkpt lat="43.14179" lon="5.89254">
        <ele>52.8</ele>
        <time>2022-04-08T09:49:51Z</time>
      </trkpt>
      <trkpt lat="43.14181" lon="5.89259">
        <ele>52.8</ele>
        <time>2022-04-08T09:49:52Z</time>
      </trkpt>
      <trkpt lat="43.1421" lon="5.89326">
        <ele>52</ele>
        <time>2022-04-08T09:50:03Z</time>
      </trkpt>
      <trkpt lat="43.14227" lon="5.89375">
        <ele>51.6</ele>
        <time>2022-04-08T09:50:10Z</time>
      </trkpt>
      <trkpt lat="43.14238" lon="5.89403">
        <ele>51</ele>
        <time>2022-04-08T09:50:14Z</time>
      </trkpt>
      <trkpt lat="43.14255" lon="5.89424">
        <ele>50.6</ele>
        <time>2022-04-08T09:50:18Z</time>
      </trkpt>
      <trkpt lat="43.14264" lon="5.89432">
        <ele>50.4</ele>
        <time>2022-04-08T09:50:20Z</time>
      </trkpt>
      <trkpt lat="43.14282" lon="5.89447">
        <ele>50.2</ele>
        <time>2022-04-08T09:50:24Z</time>
      </trkpt>
      <trkpt lat="43.14329" lon="5.89488">
        <ele>50</ele>
        <time>2022-04-08T09:50:34Z</time>
      </trkpt>
      <trkpt lat="43.1438" lon="5.89533">
        <ele>49.8</ele>
        <time>2022-04-08T09:50:44Z</time>
      </trkpt>
      <trkpt lat="43.14385" lon="5.89538">
        <ele>49.6</ele>
        <time>2022-04-08T09:50:45Z</time>
      </trkpt>
      <trkpt lat="43.14434" lon="5.89583">
        <ele>48.6</ele>
        <time>2022-04-08T09:50:53Z</time>
      </trkpt>
      <trkpt lat="43.14464" lon="5.89621">
        <ele>47.4</ele>
        <time>2022-04-08T09:50:59Z</time>
      </trkpt>
      <trkpt lat="43.14481" lon="5.89655">
        <ele>46.2</ele>
        <time>2022-04-08T09:51:04Z</time>
      </trkpt>
      <trkpt lat="43.14489" lon="5.89671">
        <ele>46</ele>
        <time>2022-04-08T09:51:07Z</time>
      </trkpt>
      <trkpt lat="43.14497" lon="5.89684">
        <ele>45.8</ele>
        <time>2022-04-08T09:51:10Z</time>
      </trkpt>
      <trkpt lat="43.14512" lon="5.89706">
        <ele>45.6</ele>
        <time>2022-04-08T09:51:15Z</time>
      </trkpt>
      <trkpt lat="43.14519" lon="5.89715">
        <ele>45.6</ele>
        <time>2022-04-08T09:51:17Z</time>
      </trkpt>
      <trkpt lat="43.14555" lon="5.89776">
        <ele>47</ele>
        <time>2022-04-08T09:51:29Z</time>
      </trkpt>
      <trkpt lat="43.14571" lon="5.89802">
        <ele>47.6</ele>
        <time>2022-04-08T09:51:34Z</time>
      </trkpt>
      <trkpt lat="43.14589" lon="5.89832">
        <ele>47.8</ele>
        <time>2022-04-08T09:51:40Z</time>
      </trkpt>
      <trkpt lat="43.14597" lon="5.89848">
        <ele>48.2</ele>
        <time>2022-04-08T09:51:43Z</time>
      </trkpt>
      <trkpt lat="43.14601" lon="5.8986">
        <ele>48.6</ele>
        <time>2022-04-08T09:51:45Z</time>
      </trkpt>
      <trkpt lat="43.14603" lon="5.89872">
        <ele>49</ele>
        <time>2022-04-08T09:51:47Z</time>
      </trkpt>
      <trkpt lat="43.14606" lon="5.89897">
        <ele>49.8</ele>
        <time>2022-04-08T09:51:51Z</time>
      </trkpt>
      <trkpt lat="43.14612" lon="5.89936">
        <ele>50.8</ele>
        <time>2022-04-08T09:51:57Z</time>
      </trkpt>
      <trkpt lat="43.14615" lon="5.89947">
        <ele>51</ele>
        <time>2022-04-08T09:51:59Z</time>
      </trkpt>
      <trkpt lat="43.14623" lon="5.89969">
        <ele>51.4</ele>
        <time>2022-04-08T09:52:03Z</time>
      </trkpt>
      <trkpt lat="43.14649" lon="5.90035">
        <ele>51.6</ele>
        <time>2022-04-08T09:52:15Z</time>
      </trkpt>
      <trkpt lat="43.1465" lon="5.90041">
        <ele>51.6</ele>
        <time>2022-04-08T09:52:16Z</time>
      </trkpt>
      <trkpt lat="43.14653" lon="5.90064">
        <ele>51.6</ele>
        <time>2022-04-08T09:52:20Z</time>
      </trkpt>
      <trkpt lat="43.14676" lon="5.90109">
        <ele>51.6</ele>
        <time>2022-04-08T09:52:29Z</time>
      </trkpt>
      <trkpt lat="43.14719" lon="5.90172">
        <ele>56.6</ele>
        <time>2022-04-08T09:52:41Z</time>
      </trkpt>
    </trkseg>
  </trk>
</gpx>